[[{"header":{"parameterUnit":"m.s-1","parameterCategory":1,"la1":30.6,"la2":29.2853,"lo1":-89.7004,"lo2":-87.6739,"dy":0.0162,"dx":0.0183,"nx":112,"ny":82,"refTime":"2026-04-14T00:00:00:Z","depth":0,"parameterNumber":2,"parameterNumberName":"U-component_of_WINDS"},"data":[0.0,0.0,0.0,0.0,0.0,0.0,0.0,0.0,0.0,0.0,0.0,0.0,0.0,0.0,0.0,0.0,0.0,0.0,0.0,0.0,0.0,0.0,0.0,0.0,0.0,0.0,0.0,0.0,0.0,0.0,0.0,0.0,0.0,0.0,0.0,0.0,0.0,0.0,0.0,0.0,0.0,0.0,0.0,0.0,0.0,0.0,0.0,0.0,0.0,0.0,0.0,0.0,0.0,0.0,0.0,0.0,0.0,0.0,0.0,0.0,0.0,0.0,0.0,0.0,0.0,0.0,0.0,0.0,0.0,0.0,0.0,0.0,0.0,0.0,0.0,0.0,0.0,0.0,0.0,0.0,0.0,0.0,0.0,0.0,0.0,0.0,0.0,0.0,0.0,0.0,-4.3802,-4.5599,-4.743,-4.8549,-4.8669,-4.8454,-4.7091,-4.4203,0.0,0.0,0.0,0.0,0.0,0.0,0.0,0.0,0.0,0.0,0.0,0.0,0.0,0.0,0.0,0.0,0.0,0.0,0.0,0.0,0.0,0.0,0.0,0.0,0.0,0.0,0.0,0.0,0.0,0.0,0.0,0.0,0.0,0.0,0.0,0.0,0.0,0.0,0.0,0.0,0.0,0.0,0.0,0.0,0.0,0.0,0.0,0.0,0.0,0.0,0.0,0.0,0.0,0.0,0.0,0.0,0.0,0.0,0.0,0.0,0.0,0.0,0.0,0.0,0.0,0.0,0.0,0.0,0.0,0.0,0.0,0.0,0.0,0.0,0.0,0.0,0.0,0.0,0.0,0.0,0.0,0.0,0.0,0.0,0.0,0.0,0.0,0.0,0.0,0.0,0.0,0.0,0.0,0.0,0.0,0.0,0.0,0.0,0.0,0.0,0.0,0.0,0.0,0.0,-4.3415,-4.6387,-4.7773,-4.852,-4.8537,-4.7949,-4.63,-4.3366,0.0,0.0,0.0,0.0,0.0,0.0,0.0,0.0,0.0,0.0,0.0,0.0,0.0,0.0,0.0,0.0,0.0,0.0,0.0,0.0,0.0,0.0,0.0,0.0,0.0,0.0,0.0,0.0,0.0,0.0,0.0,0.0,0.0,0.0,0.0,0.0,0.0,0.0,0.0,0.0,0.0,0.0,0.0,0.0,0.0,0.0,0.0,0.0,0.0,0.0,0.0,0.0,0.0,0.0,0.0,0.0,0.0,0.0,0.0,0.0,0.0,0.0,0.0,0.0,0.0,0.0,0.0,0.0,0.0,0.0,0.0,0.0,0.0,0.0,0.0,0.0,0.0,0.0,0.0,0.0,0.0,0.0,0.0,0.0,0.0,0.0,0.0,0.0,0.0,0.0,0.0,0.0,0.0,0.0,0.0,0.0,0.0,0.0,0.0,0.0,0.0,0.0,0.0,-4.1906,-4.3401,-4.5924,-4.6273,-4.6351,-4.6435,-4.5693,-4.4274,-4.1993,-4.0977,0.0,0.0,0.0,0.0,0.0,0.0,0.0,0.0,0.0,0.0,0.0,0.0,0.0,0.0,0.0,0.0,0.0,0.0,0.0,0.0,0.0,0.0,0.0,0.0,0.0,0.0,0.0,0.0,0.0,0.0,0.0,0.0,0.0,0.0,0.0,0.0,0.0,0.0,0.0,0.0,0.0,0.0,0.0,0.0,0.0,0.0,0.0,0.0,0.0,0.0,0.0,0.0,0.0,0.0,0.0,0.0,0.0,0.0,0.0,0.0,0.0,0.0,0.0,0.0,0.0,0.0,0.0,0.0,0.0,0.0,0.0,0.0,0.0,0.0,0.0,0.0,0.0,0.0,0.0,0.0,0.0,0.0,0.0,0.0,0.0,0.0,0.0,0.0,0.0,0.0,0.0,0.0,0.0,0.0,0.0,0.0,0.0,0.0,0.0,0.0,0.0,0.0,-4.2153,-4.3244,-4.4727,-4.4464,-4.4256,-4.4383,-4.3619,-4.2415,-4.0698,-3.9478,0.0,0.0,0.0,0.0,0.0,0.0,0.0,0.0,0.0,0.0,0.0,0.0,0.0,0.0,0.0,0.0,0.0,0.0,0.0,0.0,0.0,0.0,0.0,0.0,0.0,0.0,0.0,0.0,0.0,0.0,0.0,0.0,0.0,0.0,0.0,0.0,0.0,0.0,0.0,0.0,0.0,0.0,0.0,0.0,0.0,0.0,0.0,0.0,0.0,0.0,0.0,0.0,0.0,0.0,0.0,0.0,0.0,0.0,0.0,0.0,0.0,0.0,0.0,0.0,0.0,0.0,0.0,0.0,0.0,0.0,0.0,0.0,0.0,0.0,0.0,0.0,0.0,0.0,0.0,0.0,0.0,0.0,0.0,0.0,0.0,0.0,0.0,0.0,0.0,0.0,0.0,0.0,0.0,0.0,0.0,0.0,0.0,0.0,0.0,0.0,0.0,0.0,-4.1279,-4.2658,-4.2812,-4.3096,-4.335,-4.3478,-4.2819,-4.1601,-3.9815,-3.8847,0.0,0.0,0.0,0.0,0.0,0.0,0.0,0.0,0.0,0.0,0.0,0.0,0.0,0.0,0.0,0.0,0.0,0.0,0.0,0.0,0.0,0.0,0.0,0.0,0.0,0.0,0.0,0.0,0.0,0.0,0.0,0.0,0.0,0.0,0.0,0.0,0.0,0.0,0.0,0.0,0.0,0.0,0.0,0.0,0.0,0.0,0.0,0.0,0.0,0.0,0.0,0.0,0.0,0.0,0.0,0.0,0.0,0.0,0.0,0.0,0.0,0.0,0.0,0.0,0.0,0.0,0.0,0.0,0.0,0.0,0.0,0.0,0.0,0.0,0.0,0.0,0.0,0.0,0.0,0.0,0.0,0.0,0.0,0.0,0.0,0.0,0.0,0.0,0.0,0.0,0.0,0.0,0.0,0.0,0.0,0.0,0.0,0.0,0.0,0.0,0.0,0.0,-3.9652,-4.1014,0.0,-4.2239,-4.1925,-4.1734,-4.0956,-3.9769,-3.8093,0.0,0.0,0.0,0.0,0.0,0.0,0.0,0.0,0.0,0.0,0.0,0.0,0.0,0.0,0.0,0.0,0.0,0.0,0.0,0.0,0.0,0.0,0.0,0.0,0.0,0.0,0.0,0.0,0.0,0.0,0.0,0.0,0.0,0.0,0.0,0.0,0.0,0.0,0.0,0.0,0.0,0.0,0.0,0.0,0.0,0.0,0.0,0.0,0.0,0.0,0.0,0.0,0.0,0.0,0.0,0.0,0.0,0.0,0.0,0.0,0.0,0.0,0.0,0.0,0.0,0.0,0.0,0.0,0.0,0.0,0.0,0.0,0.0,0.0,0.0,0.0,0.0,0.0,0.0,0.0,0.0,0.0,0.0,0.0,0.0,0.0,0.0,0.0,0.0,0.0,0.0,0.0,0.0,0.0,0.0,0.0,0.0,0.0,0.0,0.0,0.0,0.0,-3.6493,-3.7683,-3.9045,0.0,-4.0414,-4.0081,-3.9925,-3.9102,-3.8035,-3.6679,0.0,0.0,0.0,0.0,0.0,0.0,0.0,0.0,0.0,0.0,0.0,0.0,0.0,0.0,0.0,0.0,0.0,0.0,0.0,0.0,0.0,0.0,0.0,0.0,0.0,0.0,0.0,0.0,0.0,0.0,0.0,0.0,0.0,0.0,0.0,0.0,0.0,0.0,0.0,0.0,0.0,0.0,0.0,0.0,0.0,0.0,0.0,0.0,0.0,0.0,0.0,0.0,0.0,0.0,0.0,0.0,0.0,0.0,0.0,0.0,0.0,0.0,0.0,0.0,0.0,0.0,0.0,0.0,0.0,0.0,0.0,0.0,0.0,0.0,0.0,0.0,0.0,0.0,0.0,0.0,0.0,0.0,0.0,0.0,0.0,0.0,0.0,0.0,0.0,0.0,0.0,0.0,0.0,0.0,0.0,0.0,0.0,0.0,0.0,0.0,0.0,0.0,-3.3807,-3.5501,-3.6794,-3.7068,-3.7395,-3.775,-3.8131,-3.7387,-3.6526,0.0,0.0,0.0,0.0,0.0,0.0,0.0,0.0,0.0,0.0,0.0,0.0,0.0,0.0,0.0,0.0,0.0,0.0,0.0,0.0,0.0,0.0,0.0,0.0,0.0,0.0,0.0,0.0,0.0,0.0,0.0,0.0,0.0,0.0,0.0,0.0,0.0,0.0,0.0,0.0,0.0,0.0,0.0,0.0,0.0,0.0,0.0,0.0,0.0,0.0,0.0,0.0,0.0,0.0,0.0,0.0,0.0,0.0,0.0,0.0,0.0,0.0,0.0,0.0,0.0,0.0,0.0,0.0,0.0,0.0,0.0,0.0,0.0,0.0,0.0,0.0,0.0,0.0,0.0,0.0,0.0,0.0,0.0,0.0,0.0,0.0,0.0,0.0,0.0,0.0,0.0,0.0,0.0,0.0,0.0,0.0,0.0,0.0,0.0,0.0,0.0,0.0,0.0,-3.3762,-3.5052,-3.6158,-3.6739,-3.6914,-3.6864,-3.6594,-3.5821,-3.5085,-3.4468,0.0,0.0,0.0,0.0,0.0,0.0,0.0,0.0,0.0,0.0,0.0,0.0,0.0,0.0,0.0,0.0,0.0,0.0,0.0,0.0,0.0,0.0,0.0,0.0,0.0,0.0,0.0,0.0,0.0,0.0,0.0,0.0,0.0,0.0,0.0,0.0,0.0,0.0,0.0,0.0,0.0,0.0,0.0,0.0,0.0,0.0,0.0,0.0,0.0,0.0,0.0,0.0,0.0,0.0,0.0,0.0,0.0,0.0,0.0,0.0,0.0,0.0,0.0,0.0,0.0,0.0,0.0,0.0,0.0,0.0,0.0,0.0,0.0,0.0,0.0,0.0,0.0,0.0,0.0,0.0,0.0,0.0,0.0,0.0,0.0,0.0,0.0,0.0,0.0,0.0,0.0,0.0,0.0,0.0,0.0,0.0,0.0,0.0,0.0,0.0,0.0,0.0,-3.2305,-3.3156,-3.3992,-3.4673,-3.5043,-3.5142,-3.4931,-3.4451,-3.393,-3.3293,0.0,0.0,0.0,0.0,0.0,0.0,0.0,0.0,0.0,0.0,0.0,0.0,0.0,0.0,0.0,0.0,0.0,0.0,0.0,0.0,0.0,0.0,0.0,0.0,0.0,0.0,0.0,0.0,0.0,0.0,0.0,0.0,0.0,0.0,0.0,0.0,0.0,0.0,0.0,0.0,0.0,0.0,0.0,0.0,0.0,0.0,0.0,0.0,0.0,0.0,0.0,0.0,0.0,0.0,0.0,0.0,0.0,0.0,0.0,0.0,0.0,0.0,0.0,0.0,0.0,0.0,0.0,0.0,0.0,0.0,0.0,0.0,0.0,0.0,0.0,0.0,0.0,0.0,0.0,0.0,0.0,0.0,0.0,0.0,0.0,0.0,0.0,0.0,0.0,0.0,0.0,0.0,0.0,0.0,0.0,0.0,0.0,0.0,0.0,0.0,0.0,0.0,-3.0088,-3.0513,-3.102,-3.1648,-3.2362,-3.2952,-3.3295,-3.3183,-3.2864,-3.23,0.0,0.0,0.0,0.0,0.0,0.0,0.0,0.0,0.0,0.0,0.0,0.0,0.0,0.0,0.0,0.0,0.0,0.0,0.0,0.0,0.0,0.0,0.0,0.0,0.0,0.0,0.0,0.0,0.0,0.0,0.0,0.0,0.0,0.0,0.0,0.0,0.0,0.0,0.0,0.0,0.0,0.0,0.0,0.0,0.0,0.0,0.0,0.0,0.0,0.0,0.0,0.0,0.0,0.0,0.0,0.0,0.0,0.0,0.0,0.0,-4.1933,0.0,0.0,0.0,0.0,0.0,0.0,0.0,0.0,0.0,0.0,0.0,0.0,0.0,0.0,0.0,0.0,0.0,0.0,0.0,0.0,0.0,0.0,0.0,0.0,0.0,0.0,0.0,0.0,0.0,0.0,0.0,0.0,0.0,0.0,0.0,0.0,0.0,0.0,0.0,0.0,0.0,-2.9673,-2.9822,-3.0181,-3.1011,-3.1255,-3.1733,-3.2693,-3.1602,-3.1173,-3.1861,-3.0562,0.0,0.0,0.0,0.0,0.0,0.0,0.0,0.0,0.0,0.0,0.0,0.0,0.0,0.0,0.0,0.0,0.0,0.0,0.0,0.0,0.0,0.0,0.0,0.0,0.0,0.0,0.0,0.0,0.0,0.0,0.0,0.0,0.0,0.0,0.0,0.0,0.0,0.0,0.0,0.0,0.0,0.0,0.0,0.0,0.0,0.0,0.0,0.0,0.0,0.0,0.0,0.0,0.0,0.0,0.0,0.0,0.0,0.0,0.0,0.0,-4.1217,0.0,0.0,0.0,0.0,0.0,0.0,0.0,0.0,0.0,0.0,0.0,0.0,0.0,0.0,0.0,0.0,0.0,0.0,0.0,0.0,0.0,0.0,0.0,0.0,0.0,0.0,0.0,0.0,0.0,0.0,0.0,0.0,0.0,0.0,0.0,0.0,0.0,0.0,0.0,0.0,-2.8764,-2.8609,-2.8734,-2.9394,-2.9804,-3.0266,-3.0875,-3.0152,-2.9906,-3.0469,-2.9363,0.0,0.0,0.0,0.0,0.0,0.0,0.0,0.0,0.0,0.0,0.0,0.0,0.0,0.0,0.0,0.0,0.0,0.0,0.0,0.0,0.0,0.0,0.0,0.0,0.0,0.0,0.0,0.0,0.0,0.0,0.0,0.0,0.0,0.0,0.0,0.0,0.0,0.0,0.0,0.0,0.0,0.0,0.0,0.0,0.0,0.0,0.0,0.0,0.0,0.0,0.0,0.0,0.0,-3.9374,-3.955,-3.9392,-4.0008,-3.9898,-3.9216,-3.9002,-3.9416,-4.0357,-4.1406,0.0,0.0,0.0,0.0,0.0,0.0,0.0,0.0,0.0,0.0,0.0,0.0,0.0,0.0,0.0,0.0,0.0,0.0,0.0,0.0,0.0,0.0,0.0,0.0,-3.0567,-3.0076,0.0,0.0,0.0,0.0,0.0,0.0,0.0,0.0,0.0,0.0,0.0,0.0,-2.7779,-2.7361,-2.727,-2.7736,-2.8391,-2.8874,-2.9089,-2.8965,-2.8947,-2.9089,-2.8351,-2.8121,0.0,0.0,0.0,0.0,0.0,0.0,0.0,0.0,0.0,0.0,0.0,0.0,0.0,0.0,0.0,0.0,0.0,0.0,0.0,0.0,0.0,0.0,0.0,0.0,0.0,0.0,0.0,0.0,0.0,0.0,0.0,0.0,-4.3008,-4.2629,0.0,0.0,0.0,0.0,0.0,0.0,0.0,0.0,0.0,0.0,0.0,0.0,0.0,-3.9058,-3.9539,-3.8842,-3.8555,-3.8616,-3.8617,-3.8273,-3.7729,-3.782,-3.7503,-3.692,-3.6954,0.0,-3.9104,-3.9704,0.0,0.0,0.0,0.0,0.0,0.0,0.0,0.0,0.0,0.0,0.0,0.0,0.0,0.0,0.0,0.0,0.0,0.0,0.0,0.0,0.0,0.0,-3.1467,-3.0156,-2.932,-2.8824,0.0,-2.8317,-2.8119,-2.8746,-2.8192,0.0,0.0,0.0,0.0,0.0,0.0,0.0,-2.7332,-2.6674,-2.6488,-2.7286,-2.7465,-2.7964,-2.9006,-2.8457,-2.8369,-2.9053,-2.8351,-2.794,-2.802,-2.8518,0.0,0.0,0.0,0.0,0.0,0.0,0.0,0.0,0.0,0.0,0.0,0.0,0.0,0.0,0.0,0.0,0.0,0.0,0.0,0.0,0.0,0.0,0.0,0.0,0.0,0.0,0.0,0.0,0.0,-4.2277,-4.2749,-4.2077,-4.2912,-4.2734,0.0,0.0,0.0,0.0,0.0,0.0,0.0,0.0,0.0,-3.8686,-3.8258,-3.814,-3.8433,-3.8101,-3.8098,-3.8493,-3.8417,-3.8242,-3.7958,-3.7958,-3.7614,-3.7019,-3.7041,-3.7203,-3.7543,-3.8275,-3.7987,-3.708,0.0,0.0,0.0,0.0,-3.4569,-3.4258,-3.4258,-3.4258,0.0,-3.335,0.0,0.0,0.0,0.0,0.0,0.0,0.0,0.0,0.0,0.0,-3.0017,-2.8639,-2.8129,-2.7956,-2.7947,-2.7777,-2.7814,0.0,-2.7863,-2.7311,-2.7307,0.0,0.0,0.0,0.0,-2.6113,-2.6127,-2.5784,-2.5819,-2.6505,-2.6573,-2.6893,-2.769,-2.7431,-2.7379,-2.7739,-2.7414,-2.7334,-2.7545,-2.7826,-2.8136,0.0,0.0,0.0,0.0,0.0,0.0,0.0,0.0,0.0,0.0,0.0,0.0,0.0,0.0,0.0,0.0,0.0,0.0,0.0,0.0,0.0,0.0,0.0,0.0,0.0,0.0,0.0,0.0,-4.166,-4.2289,-4.1423,-4.2286,-4.2034,0.0,0.0,0.0,0.0,0.0,0.0,-3.9157,-3.8611,-3.8376,-3.856,-3.7986,-3.7749,-3.7913,-3.7913,-3.8078,-3.8392,-3.8392,-3.8302,-3.8138,-3.7973,-3.7629,-3.7165,-3.7,-3.6656,-3.6307,-3.7126,-3.6953,-3.6103,-3.5584,-3.486,-3.3983,-3.3507,-3.3208,-3.305,-3.305,-3.305,-3.2929,-3.2185,-3.1663,-3.1118,-2.9929,0.0,0.0,0.0,0.0,-3.019,-2.9761,-2.9159,-2.8367,-2.7305,-2.7004,-2.6955,-2.6955,-2.6883,-2.7011,0.0,-2.7322,-2.6767,-2.6425,0.0,0.0,0.0,0.0,-2.5371,-2.5224,-2.507,-2.5202,-2.5726,-2.5797,-2.5997,-2.647,-2.6505,-2.6505,-2.6505,-2.6505,-2.659,-2.6756,-2.6984,-2.732,-2.7761,0.0,0.0,0.0,0.0,0.0,0.0,0.0,0.0,0.0,0.0,0.0,0.0,0.0,0.0,0.0,0.0,0.0,0.0,0.0,0.0,0.0,0.0,0.0,0.0,0.0,0.0,0.0,0.0,0.0,-3.9703,-4.1434,0.0,0.0,0.0,0.0,-3.7594,-3.7481,-3.7511,-3.7526,-3.7473,-3.7758,-3.8387,-3.8367,-3.8661,-3.9269,-3.932,-3.9005,-3.8392,-3.8392,-3.8063,-3.7434,-3.6851,-3.6567,-3.6492,-3.5863,-3.5594,-3.5594,-3.6277,-3.5784,-3.4614,-3.4584,-3.3757,-3.2586,-3.2556,-3.2151,-3.1611,-3.1611,-3.1611,-3.1466,-3.0689,-2.9419,-2.8119,-2.7539,-2.7358,0.0,0.0,-2.7055,-2.7487,-2.7459,-2.7025,-2.6522,-2.6465,-2.5966,-2.5495,-2.5495,-2.5051,-2.5067,0.0,-2.6144,-2.5652,-2.5487,0.0,-2.4637,-2.5147,-2.4796,-2.4637,-2.5144,-2.4772,-2.4652,-2.5182,-2.524,-2.5465,-2.5979,-2.6049,-2.6049,-2.6049,-2.6049,-2.5834,-2.5319,-2.6095,-2.6555,-2.6588,-2.746,0.0,0.0,0.0,0.0,0.0,0.0,0.0,0.0,0.0,0.0,0.0,0.0,0.0,0.0,0.0,0.0,0.0,0.0,0.0,0.0,0.0,0.0,0.0,0.0,0.0,0.0,0.0,0.0,-3.8015,-3.9287,0.0,-3.7625,-3.771,-3.7515,-3.6642,-3.6561,-3.6876,-3.7609,-3.7645,-3.8069,-3.9,-3.905,-3.896,-3.8751,-3.8751,-3.8109,-3.6848,-3.6848,-3.6214,-3.4961,-3.4747,-3.4398,-3.3978,-3.375,-3.365,-3.3636,-3.3534,-3.4137,-3.5055,-3.4188,-3.3559,-3.3036,-3.2168,-3.1705,-3.1438,-3.0896,-3.0748,-3.0584,-2.9735,-2.8805,-2.7889,-2.7357,-2.6805,-2.6368,-2.6403,-2.646,-2.6438,-2.6034,-2.5792,-2.5403,-2.4485,-2.4482,-2.4602,-2.4199,-2.4314,-2.4434,-2.4131,-2.3902,-2.3722,-2.3677,-2.3109,-2.2728,-2.2922,-2.3157,-2.3376,-2.3563,-2.3764,-2.4095,-2.4632,-2.4692,-2.4894,-2.543,-2.5503,-2.5633,-2.5995,-2.567,-2.5542,-2.5707,-2.5677,-2.5662,-2.5662,-2.5988,-2.6164,0.0,0.0,0.0,0.0,0.0,0.0,0.0,0.0,0.0,0.0,0.0,0.0,0.0,0.0,0.0,0.0,0.0,0.0,0.0,0.0,0.0,0.0,0.0,0.0,0.0,0.0,-3.8131,-3.7442,-3.8297,-3.8475,-3.7346,-3.725,-3.7002,-3.6478,-3.6437,-3.6698,-3.7228,-3.7266,-3.7587,-3.8294,-3.8436,-3.8149,-3.7405,-3.7523,-3.6769,-3.5174,-3.5174,-3.4524,-3.3273,-3.3273,-3.3016,-3.2593,-3.2421,-3.2324,-3.2283,-3.1744,-3.2505,-3.3926,-3.3299,-3.2905,-3.264,-3.205,-3.169,-3.138,-3.0584,-2.9919,-2.9289,-2.8547,-2.7796,-2.7055,-2.634,-2.5704,-2.5248,-2.5288,-2.52,-2.5001,-2.461,-2.4506,-2.4214,-2.3094,-2.3233,-2.3472,-2.2875,-2.2988,-2.299,-2.2185,-2.2575,-2.2898,-2.2432,-2.2178,-2.1946,-2.172,-2.2077,-2.2369,-2.2369,-2.2905,-2.3428,-2.3785,-2.3996,-2.4348,-2.4875,-2.4914,-2.507,-2.543,-2.5125,-2.5012,-2.5182,-2.5012,-2.4914,-2.4914,-2.4882,-2.4867,-2.4851,0.0,0.0,0.0,0.0,0.0,0.0,0.0,0.0,0.0,0.0,0.0,0.0,0.0,0.0,0.0,0.0,0.0,0.0,0.0,0.0,0.0,0.0,0.0,-3.6934,-3.8075,-3.8556,-3.7895,-3.8403,-3.8583,-3.7908,-3.784,-3.762,-3.7057,-3.7002,-3.6754,-3.62,-3.6158,-3.6158,-3.617,-3.6538,-3.6301,-3.5363,-3.5736,-3.511,-3.355,-3.3536,-3.3196,-3.25,-3.2522,-3.2522,-3.2467,-3.1958,-3.1695,-3.1626,-3.112,-3.0871,-3.0971,-3.1807,-3.1723,-3.1255,-3.2093,-3.1945,-3.1278,-3.0494,-2.9083,-2.7552,-2.7018,-2.6284,-2.5372,-2.4318,-2.4004,-2.3879,-2.3271,-2.3108,-2.3108,-2.3108,-2.3095,-2.2945,-2.2406,-2.2297,-2.2133,-2.1581,-2.1069,-2.0679,-2.0666,-2.2249,-2.3188,-2.1878,-2.217,-2.2383,-2.1734,-2.1649,0.0,-2.1673,-2.2253,-2.2672,-2.2672,-2.3187,-2.3752,-2.4271,-2.4328,-2.4313,-2.4333,-2.4313,-2.408,-2.3595,-2.4038,-2.4328,-2.4328,-2.4184,-2.4138,-2.4158,0.0,0.0,0.0,0.0,0.0,0.0,0.0,0.0,0.0,0.0,0.0,0.0,0.0,0.0,0.0,0.0,0.0,0.0,0.0,0.0,0.0,-3.6415,-3.663,-3.6537,-3.6449,-3.6386,-3.6187,-3.6709,-3.7025,-3.6838,-3.6406,-3.5929,-3.5406,-3.4981,-3.4875,-3.5087,-3.5129,-3.5291,-3.5604,-3.5732,-3.5254,-3.409,-3.4203,-3.3449,-3.1887,-3.2568,-3.2063,-3.0608,-3.1254,-3.0979,-2.9912,-2.9757,-2.9497,-2.907,-2.8537,-2.8304,-2.8465,-3.0017,-3.0493,-3.0297,-3.0051,-2.9457,-2.8716,-2.8492,-2.7446,-2.6141,-2.6001,-2.5532,-2.4908,-2.4205,-2.4004,-2.3879,-2.3271,-2.3108,-2.3108,-2.3108,-2.2807,-2.2468,-2.2347,-2.2008,-2.1556,-2.1043,-2.0792,-2.0566,-2.0125,-2.0882,-2.1339,-2.0472,-2.0471,-2.0521,-2.0345,-2.0733,0.0,-2.1053,-2.1582,-2.1969,-2.1969,-2.2132,-2.228,-2.2435,-2.2435,-2.2624,-2.2988,-2.2655,-2.2556,-2.2797,-2.2579,-2.2435,-2.2435,-2.242,-2.2566,0.0,0.0,0.0,0.0,0.0,0.0,0.0,0.0,0.0,0.0,0.0,0.0,0.0,0.0,0.0,0.0,0.0,0.0,0.0,0.0,0.0,0.0,-3.6155,-3.6412,-3.6367,-3.607,-3.5893,-3.5893,-3.6169,-3.6405,-3.6405,-3.5868,-3.527,-3.4718,-3.4211,-3.3951,-3.4021,-3.4037,-3.4042,-3.4073,-3.4241,-3.3661,-3.2355,-3.2499,-3.1907,-3.062,-3.1169,-3.0716,-2.9428,-2.9984,-2.9626,-2.8537,-2.8335,-2.8059,-2.772,-2.7203,-2.6964,0.0,0.0,0.0,0.0,0.0,-2.8311,-2.7367,-2.7367,-2.6426,-2.5234,-2.5008,-2.472,-2.4368,-2.3803,-2.364,-2.3534,-2.3195,-2.3108,-2.3058,-2.2819,-2.2518,-2.2196,-2.1732,-2.1408,-2.1018,-2.0453,-2.0327,-2.0239,-1.9874,-2.0105,0.0,-1.9875,-2.0029,-2.0131,-1.985,-2.0131,-2.0371,-2.0371,-2.0917,-2.1318,-2.1318,-2.1544,-2.1697,-2.1697,-2.1697,0.0,0.0,0.0,-2.1834,-2.2163,-2.1857,0.0,0.0,0.0,0.0,0.0,0.0,0.0,0.0,-2.2283,-2.2392,0.0,0.0,0.0,0.0,0.0,0.0,0.0,0.0,0.0,0.0,0.0,0.0,0.0,0.0,0.0,0.0,-3.5787,-3.5805,-3.6329,-3.6405,-3.6405,-3.6405,-3.6405,-3.638,-3.6329,-3.578,-3.5182,-3.4675,-3.4123,-3.3596,-3.3149,0.0,0.0,0.0,0.0,-3.1914,-3.0532,-3.0879,-3.062,-2.9792,-2.9895,-2.9593,-2.8888,-2.9038,-2.8698,-2.7984,-2.7494,-2.7291,-2.719,-2.67,-2.6499,-2.6555,-2.7284,-2.7571,-2.7657,-2.8346,-2.7835,-2.6737,-2.6671,0.0,0.0,-2.4155,-2.3954,-2.3803,-2.3258,-2.3108,-2.3108,-2.3108,-2.3108,-2.2982,-2.2447,-2.2201,-2.1831,-2.0821,-2.0468,-2.02,-1.9665,-1.9553,-1.9553,-1.9553,-1.9553,-1.9553,-1.9553,-2.0194,-2.0497,-1.9901,-1.9798,-1.9798,-1.9798,-2.0321,-2.0696,-2.0696,0.0,0.0,-2.1482,-2.1482,-2.1482,-2.1482,-2.1482,-2.1459,-2.1373,-2.1349,-2.1325,-2.1239,-2.0079,-1.9453,-1.9453,-1.8209,-1.7605,-1.7649,-2.0091,-2.0591,0.0,0.0,0.0,0.0,0.0,0.0,0.0,0.0,0.0,0.0,0.0,0.0,0.0,0.0,0.0,-3.5727,-3.5982,-3.6292,-3.6392,-3.6405,-3.6405,-3.6405,-3.6405,-3.6194,-3.5696,-3.5157,-3.4605,-3.4098,-3.3545,-3.3194,-3.3124,-3.2641,-3.2127,-3.1562,-3.1223,-3.068,-2.9955,-3.0023,-2.9972,-2.9792,0.0,0.0,-2.8925,-2.9755,-2.9127,-2.7444,-2.7331,-2.7065,-2.665,-2.6537,-2.6499,-2.6521,-2.6692,-2.6714,-2.6684,-2.6368,-2.6105,-2.5788,-2.5369,-2.4734,-2.4142,-2.4029,-2.3678,-2.3246,-2.3145,-2.3108,0.0,-2.3108,-2.3108,-2.2982,-2.2447,-2.1527,-2.0595,-1.9968,-1.8999,-1.8157,-1.8054,-1.8043,-1.8043,-1.8043,-1.8043,-1.8043,-1.8043,-1.9111,-1.9952,-1.9824,-1.9798,-1.9798,-1.9798,-1.9901,-2.0003,-2.0003,-2.0093,-2.0156,-2.0156,-2.0156,-2.0156,-2.0156,-2.0156,-1.9889,-1.931,-1.9284,-1.8984,-1.8389,-1.8143,-1.802,-1.802,-1.7731,-1.7605,-1.7605,-1.8143,-1.824,0.0,0.0,0.0,0.0,0.0,0.0,0.0,0.0,0.0,0.0,0.0,-3.6236,-3.5974,0.0,-3.6235,-3.5999,-3.6182,-3.6405,-3.6405,-3.6119,-3.6056,-3.6367,-3.6119,-3.5843,-3.552,-3.4756,-3.4198,-3.3922,-3.3382,-3.3124,-3.3124,-3.2528,-3.1951,-3.1411,-3.0884,-3.0357,-2.9804,-2.9792,-2.9792,-2.9792,-2.9985,-2.9501,-2.8511,-2.8756,-2.8132,-2.6901,-2.6901,-2.6587,-2.6047,-2.5749,-2.5636,-2.5636,-2.5636,-2.5799,-2.6021,-2.5699,-2.5259,-2.4757,-2.4494,-2.4042,-2.3534,-2.3534,-2.3346,-2.3005,-2.2628,-2.2506,-2.2414,-2.1959,-2.1865,-2.1675,-2.089,-2.0223,-1.9547,-1.8783,-1.8089,-1.7605,-1.7605,-1.7605,-1.7605,-1.7605,-1.7605,-1.7605,-1.7605,-1.8205,-1.8688,-1.8688,-1.9006,-1.9254,-1.9254,-1.9553,-1.9798,-1.9798,-1.9798,-1.9798,-1.9798,-1.9449,-1.9097,-1.8715,-1.8688,-1.8528,-1.8167,-1.814,-1.7988,-1.7605,-1.7246,-1.7062,-1.7062,-1.6669,-1.6489,-1.6489,-1.6489,-1.6687,0.0,0.0,0.0,0.0,0.0,0.0,0.0,0.0,-3.3134,-3.4246,-3.4769,-3.5177,-3.5583,-3.5658,-3.5843,-3.6329,-3.6405,-3.6405,-3.6405,-3.5893,-3.5658,-3.6157,-3.5717,-3.5295,-3.5194,-3.4424,-3.3859,-3.3746,-3.3332,-3.3074,-3.2918,-3.2365,-3.18,-3.126,-3.0733,-3.0244,-2.9792,-2.9792,-2.9792,-2.9779,-2.9202,-2.8599,-2.8084,-2.7532,-2.7014,-2.6499,-2.6499,-2.6223,-2.5724,-2.5197,-2.4971,-2.4958,-2.4825,-2.5008,-2.5285,-2.5285,-2.4732,-2.3979,-2.3866,-2.3496,-2.3108,-2.3108,-2.2975,-2.2763,-2.2094,-2.1784,-2.1491,-2.0814,-2.0523,-2.0243,-1.9347,-1.8955,-1.8537,-1.7623,-1.7274,-1.7163,-1.7163,-1.7163,-1.7163,-1.7163,-1.7163,-1.7163,-1.7163,-1.7163,-1.7274,-1.755,-1.8124,-1.8501,-1.8501,-1.9018,-1.9371,-1.9371,-1.9371,-1.9371,-1.9371,-1.8821,-1.8221,-1.7633,-1.7605,-1.755,-1.7385,-1.7385,-1.733,-1.7191,-1.6595,-1.6293,-1.6293,-1.57,-1.541,-1.541,-1.541,-1.5729,-3.0197,-2.9952,-2.9963,-2.9972,-3.0306,-3.0652,0.0,0.0,-3.3434,-3.3577,-3.4996,-3.6241,-3.6304,-3.6317,-3.6329,-3.6405,-3.6405,-3.6405,-3.6405,-3.5893,-3.552,-3.5583,-3.5107,-3.4625,-3.4135,-3.3972,-3.3696,-3.3206,-3.3106,-3.2855,-3.234,-3.1788,-3.1235,-3.0721,-3.0168,-2.9854,-2.9792,-2.9792,-2.9792,-2.9779,-2.9202,-2.8599,-2.8084,-2.7532,-2.7014,-2.6499,-2.6499,-2.6461,-2.6348,-2.5749,-2.5511,-2.546,-2.5008,-2.4556,-2.418,-2.418,-2.4104,-2.3916,-2.3384,-2.3158,-2.3108,-2.3108,-2.2628,-2.2002,-2.1939,-2.1365,-2.0719,-2.0623,-2.0297,-1.9826,-1.9257,-1.8345,-1.7432,-1.6779,-1.6112,-1.5661,-1.5661,-1.5661,-1.5661,-1.5661,-1.5661,-1.5661,-1.5661,-1.5661,-1.6083,-1.7401,-1.766,-1.7715,-1.7715,-1.7797,-1.7852,-1.7852,-1.7852,-1.7852,-1.7852,-1.777,-1.7688,-1.7605,-1.7605,-1.7302,-1.6652,-1.6624,-1.6312,-1.5661,-1.5584,-1.5526,-1.5526,-1.5439,-1.541,-1.541,-1.541,-1.5439,-2.823,-2.7883,-2.8017,-2.8545,-2.8825,-2.9224,-3.0234,-3.1083,-3.2078,-3.3689,-3.4667,-3.5463,-3.6263,-3.6405,-3.6405,0.0,-3.6405,-3.6405,-3.6405,-3.5617,-3.5019,-3.5019,-3.4299,-3.3796,-3.3884,-3.3608,-3.3319,-3.3136,-3.3124,-3.283,-3.224,-3.1687,-3.1148,-3.0633,-3.008,-2.9792,-2.9792,-2.9792,-2.9616,-2.9289,-2.8712,-2.816,-2.7607,-2.709,-2.6713,-2.6474,-2.6135,-2.5787,-2.546,-2.4895,-2.4469,-2.4079,-2.3371,-2.2994,-2.2866,-2.371,-2.3791,-2.3434,-2.3195,-2.2793,-2.2414,-2.2414,-2.1834,-2.1037,-2.0526,-2.0139,-1.9759,-1.9243,-1.8788,-1.8321,-1.7833,-1.7195,-1.6496,-1.5964,-1.5613,-1.541,-1.541,-1.541,-1.541,-1.541,-1.541,-1.541,-1.541,-1.541,-1.5604,-1.6216,-1.6669,-1.695,-1.695,-1.733,-1.7605,-1.7605,-1.7605,-1.744,-1.7006,-1.695,-1.6782,-1.6358,-1.633,-1.6187,-1.5864,-1.5864,-1.5719,-1.541,-1.541,-1.541,-1.541,-1.541,-1.541,-1.541,-1.541,-1.541,-2.714,-2.6705,-2.6738,-2.7532,-2.7806,-2.8226,-2.9431,-3.0016,-3.0876,-3.2855,-3.3871,-3.4678,-3.5667,-3.6156,-3.6405,-3.6405,-3.6405,-3.6405,-3.6405,-3.5416,-3.468,-3.468,-3.3746,-3.3232,-3.3633,-3.3307,-3.3124,-3.3124,-3.3124,-3.2754,-3.2026,-3.1599,-3.1085,-3.0407,-2.9993,-2.9792,-2.9792,-2.9628,-2.934,-2.8888,-2.821,-2.767,-2.7256,-2.6459,-2.6245,-2.6474,-2.5729,-2.529,-2.4963,-2.4176,-2.3523,-2.2899,-2.1925,-2.1522,-2.1663,-2.2696,-2.2786,-2.2402,-2.2402,-2.2021,-2.1522,-2.1522,-2.0942,-2.0107,-1.9497,-1.905,-1.8637,-1.799,-1.7441,-1.6943,-1.6631,-1.6221,-1.5831,-1.5488,-1.541,-1.541,-1.541,-1.541,-1.541,-1.541,-1.541,-1.541,-1.541,-1.541,-1.541,-1.541,-1.5864,-1.6208,-1.6208,-1.6669,-1.6996,-1.6996,-1.6996,-1.6771,-1.6226,-1.6208,-1.5979,-1.5439,-1.541,-1.541,-1.541,-1.541,-1.541,-1.541,-1.541,-1.541,-1.541,-1.541,-1.541,-1.541,-1.541,-1.5294,-2.8164,-2.7591,-2.7109,-2.7559,-2.7969,-2.8281,-2.8344,-2.9355,-3.0317,-3.0421,-3.2555,-3.4434,-3.4434,-3.5523,-3.6405,-3.6405,-3.6405,-3.6405,-3.6405,-3.5416,-3.468,-3.468,-3.3746,-3.3124,0.0,-3.3124,-3.3124,-3.3124,-3.3124,-3.2634,-3.1474,-3.1399,-3.0909,-2.9854,-2.9804,-2.9792,-2.9792,-2.9239,-2.8913,-2.8875,-2.7821,-2.7341,-2.7268,-2.5718,-2.5594,-2.6452,-2.5464,-2.5241,-2.5457,-2.4071,-2.3212,-2.2579,-2.1168,-2.0655,-2.0655,-2.0698,-2.0698,-2.0687,-2.0687,-2.0655,-2.0655,-2.0655,-2.0042,-1.9332,-1.9299,-1.8426,-1.7468,-1.7435,-1.6809,-1.6134,-1.6114,-1.5762,-1.543,-1.5391,-1.541,-1.541,-1.541,-1.541,-1.541,-1.541,-1.541,-1.541,-1.541,-1.541,-1.541,-1.541,-1.541,-1.5439,-1.5439,-1.5439,-1.5468,-1.5468,-1.5468,-1.5468,-1.5439,-1.5439,-1.541,-1.541,-1.541,-1.541,-1.541,-1.541,-1.541,-1.541,-1.541,-1.541,-1.541,-1.541,-1.541,-1.541,-1.541,-1.4991,-3.012,-3.0025,-3.0213,-3.0625,-3.0202,-2.9608,-2.9608,-2.9313,-2.9169,-2.9786,-3.0629,-3.1721,-3.3161,-3.4053,-3.4889,-3.5678,-3.6119,-3.6405,-3.6405,-3.573,-3.5094,-3.4718,-3.4073,0.0,0.0,0.0,0.0,-3.3124,-3.2717,-3.2177,-3.1436,-3.0347,-2.9403,-2.87,-2.7999,-2.7462,-2.7163,-2.6936,-2.6851,-2.6845,-2.6117,-2.5778,-2.5742,-2.4562,-2.4044,-2.4085,-2.3732,-2.3317,-2.2774,-2.2313,-2.178,-2.1213,-2.014,-1.9759,-1.9661,-1.9077,-1.8877,-1.9044,-2.0204,-2.0236,-1.9759,-1.9759,-1.9144,-1.8428,-1.8428,-1.7939,-1.7383,-1.7383,-1.678,-1.6095,-1.6095,-1.5732,-1.541,-1.541,-1.541,-1.541,-1.541,-1.541,-1.541,-1.541,-1.541,-1.541,-1.541,-1.541,-1.541,-1.541,-1.541,-1.541,-1.541,-1.541,-1.541,-1.541,-1.541,-1.541,-1.541,-1.541,-1.541,-1.541,-1.541,-1.541,-1.541,-1.541,-1.541,-1.541,-1.4874,-1.4874,-1.541,-1.4332,-1.4085,-1.4599,-1.4055,-1.3666,-3.25,-3.2699,-3.2943,-3.2951,-3.2291,-3.1404,-3.0504,-2.9608,-2.9033,-2.9003,-2.9351,-3.0192,-3.1897,-3.2842,-3.3859,-3.5273,-3.5843,-3.6132,-3.638,-3.5893,-3.5295,-3.4743,-3.4236,-3.3684,0.0,0.0,0.0,-3.278,-3.2416,-3.171,-3.0569,-2.9482,-2.8468,-2.7545,-2.6701,-2.6098,-2.5813,-2.5453,-2.5176,-2.4971,-2.4632,-2.4445,-2.4409,-2.3404,-2.2918,-2.2868,-2.2512,-2.1994,-2.1396,-2.1052,-2.061,-2.0042,-1.9177,-1.8854,-1.8754,-1.8202,-1.8008,-1.8168,-1.9266,-1.9299,-1.8854,-1.8854,-1.8462,-1.8008,-1.8008,-1.7607,-1.7148,-1.7148,-1.6514,-1.586,-1.586,-1.5625,-1.541,-1.541,-1.541,-1.541,-1.541,-1.541,-1.541,-1.541,-1.541,-1.541,-1.541,-1.541,-1.541,-1.541,-1.541,-1.541,-1.541,-1.541,-1.541,-1.541,-1.541,-1.541,-1.541,-1.541,-1.541,-1.541,-1.541,-1.541,-1.541,-1.541,-1.5264,-1.4991,-1.4451,-1.4293,-1.454,-1.3485,-1.3282,-1.3756,-1.3252,-1.2848,-3.5203,-3.5451,-3.5273,-3.4557,-3.4282,-3.3564,-3.1098,-3.0483,-2.9901,-2.8187,-2.8788,-2.9878,-3.0656,-3.1912,-3.3356,-3.508,-3.5462,-3.5768,-3.6329,-3.5918,-3.532,0.0,0.0,0.0,0.0,0.0,0.0,-3.2034,0.0,-3.1124,-2.901,-2.8763,-2.7982,-2.6453,-2.5909,-2.5641,-2.5619,-2.4675,-2.3936,-2.3404,-2.3404,-2.3404,-2.3404,-2.2403,-2.221,-2.2657,-2.1746,-2.1282,-2.1152,-2.0345,-1.9718,-1.9144,-1.8337,-1.8008,-1.8008,-1.8008,-1.8008,-1.8008,-1.8008,-1.8008,-1.8008,-1.8008,-1.8008,-1.8008,-1.8008,-1.7399,-1.6726,-1.6707,-1.6083,-1.5439,-1.542,-1.541,-1.541,-1.541,-1.541,-1.5381,-1.5352,-1.5352,-1.5352,-1.5352,-1.5381,-1.541,-1.541,-1.541,-1.541,-1.541,-1.541,-1.541,-1.541,-1.541,-1.541,-1.541,-1.541,-1.541,-1.541,-1.541,-1.541,-1.541,-1.541,-1.5381,-1.5352,-1.5352,-1.4962,-1.4145,-1.4085,-1.3726,-1.3009,-1.2917,-1.2887,-1.2948,-1.2887,-1.2481,-3.7779,-3.8374,-3.8651,-3.8488,-3.7011,-3.5345,-3.4244,-3.2586,-3.0855,-2.9672,-2.8987,-2.8849,-2.9644,-3.0712,-3.1934,-3.3322,-3.5034,0.0,-3.6392,-3.6292,0.0,-3.3586,0.0,-3.3383,-3.0589,-3.1134,0.0,0.0,-2.9867,-2.9971,-2.8945,-2.6956,-2.5654,-2.5252,-2.3991,-2.3204,-2.2879,-2.2678,-2.252,-2.2366,-2.2366,-2.2366,-2.2366,-2.1375,-2.0705,-2.021,-2.0239,-1.9735,-1.888,-1.8948,-1.8725,-1.8303,-1.8076,-1.8008,-1.8008,-1.8008,-1.8008,-1.8008,-1.8008,-1.8008,-1.8008,-1.8008,-1.8008,-1.8008,-1.8008,-1.7637,-1.7148,-1.6794,-1.6328,-1.585,-1.5498,-1.541,-1.541,-1.541,-1.541,-1.5235,-1.4628,-1.451,-1.451,-1.451,-1.4991,-1.541,-1.541,-1.541,-1.541,-1.541,-1.541,-1.541,-1.541,-1.541,-1.541,-1.541,-1.541,-1.541,-1.541,-1.541,-1.541,-1.541,-1.541,-1.5138,-1.454,-1.451,-1.4124,-1.3312,-1.2718,-1.2604,-1.3009,-1.1787,-1.1507,-1.2081,-1.1476,-1.1115,-3.9746,-4.073,-4.1267,-4.0746,-3.9365,-3.7594,-3.574,-3.3995,-3.2229,-3.0364,-2.9463,-2.9095,-2.9359,-3.0034,-3.1045,0.0,0.0,0.0,-3.6273,-3.6405,-3.5509,0.0,-3.3477,0.0,-2.968,-3.0299,-3.0042,0.0,-2.8545,-2.8437,-2.719,-2.5634,-2.4491,-2.3807,-2.278,-2.1934,-2.1349,-2.1377,-2.1375,-2.1375,-2.1375,-2.1375,-2.1375,-2.0828,-2.0233,-1.957,0.0,-1.9121,-1.8256,-1.8305,-1.8188,-1.8008,-1.8008,-1.8008,-1.8008,-1.8008,-1.8008,-1.8008,-1.8008,-1.8008,-1.8008,-1.8008,-1.8008,-1.8008,-1.8008,-1.7715,-1.7367,-1.709,-1.6553,-1.5945,-1.5333,-1.5045,-1.4776,-1.4421,-1.4362,-1.4213,-1.3756,-1.3666,-1.3666,-1.3666,-1.4025,-1.4451,-1.4805,-1.4864,-1.4991,-1.5352,-1.541,-1.5255,-1.4932,-1.5167,-1.541,-1.541,-1.541,-1.541,-1.541,-1.541,-1.5264,-1.4903,-1.4864,-1.451,-1.3704,-1.3666,-1.3304,-1.2481,-1.2012,-1.1834,-1.1934,-1.1052,-1.0832,-1.1257,-1.08,-1.0593,-4.1318,-4.2548,-4.3046,-4.1968,-4.1151,-3.9702,-3.6337,-3.5092,-3.3841,-3.0986,-3.0385,-3.0202,-2.9749,-2.9984,-3.0856,-3.2628,0.0,-3.4388,-3.6128,-3.6405,-3.5449,-3.2935,-3.2816,-3.1833,-2.9185,-2.9542,-2.9247,-2.7568,-2.7393,-2.6606,-2.4872,-2.466,-2.39,-2.2484,-2.2021,-2.1406,-2.0615,-2.0605,-2.0605,-2.0605,-2.0605,-2.0605,-2.0605,-2.0605,-2.0322,-1.9893,-1.959,-1.918,-1.8666,-1.833,-1.8144,-1.8052,-1.8037,-1.8008,-1.8008,-1.8008,-1.8008,-1.8008,-1.8008,-1.8008,-1.8008,-1.8008,-1.8008,-1.8008,-1.8008,-1.7754,-1.7461,-1.7435,-1.6763,-1.5884,-1.5115,-1.4486,-1.3907,-1.3169,-1.3009,-1.2978,-1.2856,-1.2856,-1.2856,-1.2856,-1.2917,-1.3221,-1.3906,-1.4025,-1.4273,-1.4991,-1.5079,-1.4844,-1.4115,-1.4746,-1.5196,-1.5079,-1.5079,-1.5079,-1.5079,-1.5079,-1.4776,-1.4085,-1.4025,-1.3666,-1.2879,-1.2856,-1.2451,-1.1648,-1.1648,-1.1288,-1.0593,-1.0593,-1.0593,-1.0593,-1.0593,-1.0593,-4.2397,-4.3155,-4.3115,-4.2445,-4.1412,-3.9943,-3.7442,-3.6756,0.0,-3.3127,-3.245,-3.2047,-3.1078,-3.1335,-3.2014,-3.2779,-3.4171,-3.5438,-3.6282,-3.6405,-3.5153,0.0,-3.2277,-3.1155,-2.6787,-2.7066,0.0,0.0,-2.4706,-2.4608,-2.4776,-2.392,-2.2945,-2.2021,-2.1572,-2.1094,-2.0605,-2.0605,-2.0605,-2.0605,-2.0605,-2.0605,-2.0605,-2.0605,-2.0322,-1.9932,-2.0263,0.0,-1.917,-1.9092,-1.8857,-1.8461,-1.8144,-1.8008,-1.8008,-1.8008,-1.8008,-1.8008,-1.8008,-1.8008,-1.8008,-1.8008,-1.8008,-1.8008,-1.8008,-1.7959,-1.7832,-1.748,-1.667,-1.5783,-1.5065,-1.4217,-1.3434,-1.3075,-1.3009,-1.2826,-1.2143,-1.202,-1.202,-1.202,-1.2543,-1.3039,-1.3191,-1.3221,-1.3252,-1.3394,-1.3425,-1.3373,-1.3221,-1.3906,-1.4145,-1.3494,-1.3425,-1.3425,-1.3425,-1.3425,-1.3373,-1.3221,-1.3221,-1.2848,-1.205,-1.202,-1.1624,-1.0839,-1.0807,-1.0744,-1.0593,-1.0593,-1.0593,-1.0593,-1.0593,-1.0593,-4.2684,-4.329,-4.314,-4.256,-4.1724,-4.05,-3.8495,0.0,0.0,-3.441,-3.3846,-3.3187,-3.1148,-3.1428,-3.2007,-3.1984,-3.317,-3.448,-3.5762,-3.5931,-3.494,-3.2312,-3.1935,-3.044,-2.6689,-2.6398,-2.5807,-2.4212,-2.4241,-2.4196,-2.393,-2.3005,-2.2197,-2.1562,-2.1113,-2.0781,-2.0605,-2.0605,-2.0605,-2.0605,-2.0605,-2.0605,-2.0595,-2.037,-2.0234,-2.0244,-2.0038,0.0,-1.9268,-1.9043,-1.8691,-1.8256,-1.8086,-1.8008,-1.8008,-1.8008,-1.8008,-1.8008,-1.8008,-1.8008,-1.8008,-1.8008,-1.8008,-1.8008,-1.8008,-1.7657,-1.7223,-1.7051,-1.6109,-1.4967,-1.4097,-1.3332,-1.2591,-1.1924,-1.1756,-1.1663,-1.1264,-1.1163,-1.1163,-1.1163,-1.1476,-1.188,-1.2297,-1.2389,-1.2512,-1.2948,-1.3009,-1.2848,-1.242,-1.2718,-1.2962,-1.3009,-1.3009,-1.3009,-1.3009,-1.3009,-1.2818,-1.2389,-1.2389,-1.202,-1.1202,-1.1163,-1.0982,-1.0624,-1.0593,-1.0593,-1.0593,-1.0593,-1.0593,-1.0593,-1.0593,-1.0593,-4.2655,-4.329,-4.311,-4.2381,-4.1796,-4.0918,-3.9035,-3.8341,-3.7548,-3.5453,-3.502,-3.4234,-3.1625,-3.1588,-3.1905,-3.1637,-3.2298,-3.3298,-3.4746,-3.5182,-3.4484,0.0,-3.1289,0.0,-2.678,-2.6022,0.0,-2.3908,-2.4135,-2.3907,-2.2998,-2.2207,-2.1592,-2.121,-2.0801,-2.0605,-2.0605,-2.0605,-2.0605,-2.0605,-2.0507,-2.0458,-2.0449,-1.998,-1.9971,-2.0292,-1.9617,0.0,-1.9248,-1.8783,-1.8403,-1.8135,-1.8047,-1.8008,-1.8008,-1.8008,-1.8008,-1.8008,-1.8008,-1.8008,-1.8008,-1.8008,-1.8008,-1.8008,-1.8008,-1.7339,-1.6594,-1.6602,-1.5506,-1.4119,-1.3149,-1.2472,-1.1786,-1.0832,-1.0593,-1.0593,-1.0593,-1.0593,-1.0593,-1.0593,-1.0593,-1.0807,-1.1437,-1.1531,-1.1748,-1.2397,-1.2489,-1.2274,-1.1617,-1.1531,-1.1779,-1.2428,-1.2489,-1.2489,-1.2489,-1.2489,-1.2212,-1.1593,-1.1531,-1.1257,-1.0624,-1.0593,-1.0593,-1.0593,-1.0593,-1.0593,-1.0593,-1.0593,-1.0593,-1.0593,-1.0593,-1.0593,-4.2522,-4.329,-4.2991,-4.1788,-4.1467,-4.0799,-3.8431,0.0,-3.8657,-3.6487,-3.6053,-3.5544,-3.3805,-3.2781,-3.2347,-3.2852,-3.3014,-3.3088,-3.3128,-3.4081,-3.3298,-2.9293,0.0,0.0,-2.561,-2.4854,-2.433,-2.3818,-2.3114,-2.2654,-2.2568,-2.1717,-2.1239,-2.119,-2.0801,-2.0605,-2.0605,-2.0605,-2.0605,-2.0595,-2.0166,-1.9971,-1.9961,-1.9541,-1.9365,-1.9441,-1.9316,0.0,0.0,-1.8783,-1.8578,-1.851,-1.812,-1.8008,-1.8008,-1.8008,-1.8008,-1.8008,-1.8008,-1.8008,-1.8008,-1.8008,-1.8008,-1.8008,-1.8008,-1.7329,-1.6602,-1.6602,-1.5236,-1.363,-1.304,-1.2178,-1.1344,-1.0727,-1.0593,-1.0593,-1.0593,-1.0593,-1.0593,-1.0593,-1.0593,-1.0624,-1.0713,-1.0713,-1.0744,-1.0807,-1.0807,-1.0776,-1.0713,-1.0713,-1.0744,-1.0807,-1.0807,-1.0807,-1.0807,-1.0807,-1.0776,-1.0713,-1.0713,-1.0681,-1.0593,-1.0593,-1.0593,-1.0593,-1.0593,-1.0593,-1.0593,-1.0593,-1.0593,-1.0593,-1.0593,-1.0593,-4.2683,-4.329,-4.2976,-4.1713,-4.1422,-4.095,-3.9166,-3.8778,-3.8491,-3.7372,-3.6056,-3.4744,-3.3542,-3.245,-3.18,-3.2026,-3.234,-3.2771,-3.3412,-3.3657,-3.2982,-3.0893,-2.9861,0.0,0.0,0.0,-2.376,-2.3066,-2.2471,-2.2021,-2.1717,-2.1385,-2.1073,-2.084,-2.0693,-2.0605,-2.0605,-2.0605,-2.0478,-2.0166,-2.0,-1.9785,-1.9521,-1.9092,-1.9043,-1.9277,-1.9014,0.0,0.0,-1.8676,-1.8451,-1.8208,-1.8076,-1.8008,-1.8008,-1.8008,-1.8008,-1.8008,-1.8008,-1.8008,-1.7906,-1.7354,-1.7173,-1.7173,-1.7173,-1.6498,-1.5614,-1.5013,-1.3875,-1.2739,-1.2157,-1.1463,-1.0842,-1.0646,-1.0593,-1.0593,-1.0593,-1.0593,-1.0593,-1.0593,-1.0593,-1.0593,-1.0593,-1.0593,-1.0593,-1.0593,-1.0593,-1.0593,-1.0593,-1.0593,-1.0593,-1.0593,-1.0593,-1.0593,-1.0593,-1.0593,-1.0593,-1.0593,-1.0593,-1.0593,-1.0593,-1.0593,-1.0593,-1.0593,-1.0593,-1.0593,-1.0593,-1.0593,-1.0593,-1.0593,-1.0593,-1.0593,-4.256,-4.3045,-4.2776,-4.1654,-4.1235,-4.0786,-3.9679,-3.8886,-3.8394,-3.8288,-3.6602,-3.4774,-3.3686,-3.2724,-3.1907,-3.1291,-3.175,-3.2364,-3.2779,-3.2568,-3.1923,-3.0696,0.0,-2.7377,0.0,-2.4246,-2.3115,-2.2383,-2.1934,-2.1504,-2.1064,-2.1035,-2.0889,-2.0615,-2.0605,-2.0605,-2.0605,-2.0478,-2.0215,-1.9912,-1.9658,-1.9385,-1.9082,-1.8617,-1.8588,-1.8896,-1.8584,0.0,0.0,-1.8412,-1.8247,-1.8008,-1.8008,-1.8008,-1.8008,-1.8008,-1.8008,-1.7974,-1.7681,-1.7579,-1.7432,-1.6498,-1.6184,-1.614,-1.5825,-1.5296,-1.4593,-1.389,-1.2891,-1.1951,-1.1495,-1.0995,-1.0593,-1.0593,-1.0593,-1.0593,-1.0593,-1.0593,-1.0593,-1.0593,-1.0593,-1.0593,-1.0593,-1.0593,-1.0593,-1.0593,-1.0593,-1.0593,-1.0593,-1.0593,-1.0593,-1.0593,-1.0593,-1.0593,-1.0593,-1.0593,-1.0593,-1.0593,-1.0593,-1.0593,-1.0593,-1.0593,-1.0593,-1.0593,-1.0593,-1.0593,-1.0593,-1.0593,-1.0593,-1.0593,-1.0593,-1.0593,-4.1945,-4.241,-4.2246,-4.1587,-4.0891,-4.0232,-3.9574,-3.8886,-3.8586,-3.9239,-3.8004,-3.6339,-3.4854,-3.4143,-3.3077,-3.0943,-3.1512,-3.1782,-3.0592,-3.0548,-2.9709,0.0,0.0,-2.5658,-2.4008,-2.3027,-2.2344,-2.1924,-2.1484,0.0,-2.0635,-2.0615,-2.0605,-2.0605,-2.0605,-2.0605,-2.0605,-2.0137,-1.9922,-1.9902,-1.9017,-1.8617,-1.8598,-1.8178,-1.8018,-1.8018,0.0,0.0,0.0,-1.8018,-1.8018,-1.8008,-1.8008,-1.8008,-1.8008,-1.8008,-1.8008,-1.7872,-1.6922,-1.6593,-1.6463,-1.5517,-1.5199,-1.5021,-1.4027,-1.3709,-1.3709,-1.3709,-1.2579,-1.1395,-1.1389,-1.0995,-1.0593,-1.0593,-1.0593,-1.0593,-1.0593,-1.0593,-1.0593,-1.0593,-1.0593,-1.0593,-1.0593,-1.0593,-1.0593,-1.0593,-1.0593,-1.0593,-1.0593,-1.0593,-1.0593,-1.0593,-1.0593,-1.0593,-1.0593,-1.0593,-1.0593,-1.0593,-1.0593,-1.0593,-1.0593,-1.0593,-1.0593,-1.0593,-1.0593,-1.0593,-1.0593,-1.0593,-1.0593,-1.0593,-1.0593,-1.0593,-4.1428,-4.1737,-4.1572,-4.0876,-4.0561,-4.0098,-3.8975,-3.8542,-3.8452,-3.8676,-3.7416,-3.6019,-3.5276,-3.3831,-3.2489,-3.1789,-3.1675,0.0,-3.0618,-3.0493,0.0,-2.6785,-2.5388,-2.4247,0.0,0.0,-2.2334,-2.1924,-2.1484,-2.1035,-2.0625,-2.0605,-2.0605,-2.0605,-2.0605,-2.0458,-2.0117,-1.998,-1.9619,-1.8997,-1.8724,-1.8451,-1.8203,-1.8076,-1.8008,0.0,0.0,0.0,0.0,-1.8008,-1.8008,-1.8008,-1.8008,-1.8008,-1.8008,-1.8008,-1.8008,-1.7974,-1.7647,-1.7139,-1.6463,-1.5517,-1.4736,-1.3991,-1.3018,-1.3208,-1.3564,-1.2915,-1.2084,-1.1389,-1.1389,-1.0995,-1.0593,-1.0593,-1.0593,-1.0593,-1.0593,-1.0593,-1.0593,-1.0593,-1.0593,-1.0593,-1.0593,-1.0593,-1.0593,-1.0593,-1.0593,-1.0593,-1.0593,-1.0593,-1.0593,-1.0593,-1.0593,-1.0593,-1.0593,-1.0593,-1.0593,-1.0593,-1.0593,-1.0593,-1.0593,-1.0593,-1.0593,-1.0593,-1.0593,-1.0593,-1.0593,-1.0593,-1.0593,-1.0593,-1.0593,-1.0593,-4.0831,-4.101,-4.0905,-4.0502,-4.0217,-3.9813,-3.8975,-3.8571,-3.8346,-3.8212,-3.7172,-3.5937,-3.4714,-3.3562,-3.2476,-3.1476,-3.1348,-3.1117,-3.0331,0.0,0.0,-2.5671,0.0,0.0,0.0,-2.2519,-2.21,-2.167,-2.123,-2.0859,-2.0615,-2.0605,-2.0605,-2.0605,-2.0449,-2.0185,-1.9912,-1.9553,-1.9134,-1.8598,-1.8442,-1.8227,-1.8008,-1.8008,-1.8008,0.0,0.0,-1.8008,0.0,-1.8008,-1.8008,-1.8008,-1.8008,-1.8008,-1.8008,-1.8008,-1.7794,-1.7432,-1.7079,-1.6298,-1.5367,-1.4414,-1.3665,-1.3062,-1.2482,-1.2703,-1.3062,-1.2445,-1.1877,-1.1389,-1.1389,-1.0995,-1.0593,-1.0593,-1.0593,-1.0593,-1.0593,-1.0593,-1.0593,-1.0593,-1.0593,-1.0593,-1.0593,-1.0593,-1.0593,-1.0593,-1.0593,-1.0593,-1.0593,-1.0593,-1.0593,-1.0593,-1.0593,-1.0593,-1.0593,-1.0593,-1.0593,-1.0593,-1.0593,-1.0593,-1.0593,-1.0593,-1.0593,-1.0593,-1.0593,-1.0593,-1.0593,-1.0593,-1.0593,-1.0593,-1.0593,-1.0593,0.0,-4.0337,-4.0337,-4.0337,-3.9873,-3.9373,-3.9241,-3.8764,0.0,-3.7717,-3.7146,-3.6,-3.3578,-3.345,-3.2934,-3.0389,-3.0678,-3.0857,-2.9606,-2.8357,0.0,0.0,-2.3408,0.0,-2.2549,-2.2129,-2.1709,-2.1229,-2.082,-2.0605,-2.0605,-2.0605,-2.0605,-2.0605,-2.0107,-1.9873,-1.9873,-1.9017,-1.8588,-1.8549,-1.8159,-1.8008,-1.8008,-1.8008,-1.8008,0.0,-1.8008,-1.8008,0.0,-1.8008,-1.8008,-1.8008,-1.8008,-1.8008,-1.7974,-1.794,-1.7354,-1.6463,-1.5517,-1.4522,-1.3564,-1.2629,-1.2305,-1.2305,-1.2305,-1.2305,-1.2298,-1.2278,-1.1864,-1.1389,-1.1369,-1.0982,-1.0593,-1.0593,-1.0593,-1.0593,-1.0593,-1.0593,-1.0593,-1.0593,-1.0593,-1.0593,-1.0593,-1.0593,-1.0593,-1.0593,-1.0593,-1.0593,-1.0593,-1.0593,-1.0593,-1.0593,-1.0593,-1.0593,-1.0593,-1.0593,-1.0593,-1.0593,-1.0593,-1.0593,-1.0593,-1.0593,-1.0593,-1.0593,-1.0593,-1.0593,-1.0593,-1.0593,-1.0593,-1.0593,-1.0593,-1.0593,-3.9371,0.0,-3.9649,-3.9649,-3.9529,-3.9043,0.0,-3.7702,-3.7549,-3.6171,-3.6147,-3.591,-3.4552,-3.3688,-3.2842,-3.1789,-3.0719,-2.9522,-2.8073,-2.5776,0.0,-2.3849,-2.3408,-2.2925,-2.2549,-2.2129,-2.1709,-2.1229,-2.082,-2.0605,-2.0605,-2.0605,-2.0605,-2.0605,-1.9834,-1.9434,-1.9434,-1.887,-1.8442,-1.812,-1.8057,-1.8008,-1.8008,-1.8008,-1.8008,-1.8008,-1.8008,-1.8008,-1.8008,-1.8008,-1.8008,-1.8008,-1.8008,-1.8008,-1.7906,-1.7182,-1.6784,-1.6463,-1.5517,-1.4522,-1.3564,-1.2629,-1.2305,-1.2305,-1.2305,-1.2305,-1.2258,-1.2037,-1.171,-1.1342,-1.1149,-1.0861,-1.0593,-1.0593,-1.0593,-1.0593,-1.0593,-1.0593,-1.0593,-1.0593,-1.0593,-1.0593,-1.0593,-1.0593,-1.0593,-1.0593,-1.0593,-1.0593,-1.0593,-1.0593,-1.0593,-1.0593,-1.0593,-1.0593,-1.0593,-1.0593,-1.0593,-1.0593,-1.0593,-1.0593,-1.0593,-1.0593,-1.0593,-1.0593,-1.0593,-1.0593,-1.0593,-1.0593,-1.0593,-1.0593,-1.0593,-1.0593,-3.7762,-3.8657,-3.9388,-3.9388,-3.9388,-3.9,-3.7568,-3.7353,-3.6907,-3.5008,-3.4668,-3.4351,-3.3073,-3.2534,-3.1901,-3.0836,-2.9863,-2.8605,-2.669,-2.4692,-2.3525,-2.376,-2.3408,-2.2925,0.0,-2.2129,-2.1709,-2.1229,-2.082,-2.0605,-2.0605,-2.0605,-2.0605,-2.0605,-1.9736,-1.9287,-1.9287,-1.8662,-1.8232,-1.8008,-1.8008,-1.8008,-1.8008,-1.8008,-1.8008,-1.8008,-1.8008,-1.8008,-1.8008,-1.8008,-1.8008,-1.8008,-1.8008,-1.8008,-1.7906,-1.6957,-1.6324,-1.5825,-1.4843,-1.3882,-1.2989,-1.2482,-1.2305,-1.2305,-1.2305,-1.2305,-1.2271,-1.2111,-1.1757,-1.1355,-1.1229,-1.0875,-1.0593,-1.0593,-1.0593,-1.0593,-1.0593,-1.0593,-1.0593,-1.0593,-1.0593,-1.0593,-1.0593,-1.0593,-1.0593,-1.0593,-1.0593,-1.0593,-1.0593,-1.0593,-1.0593,-1.0593,-1.0593,-1.0593,-1.0593,-1.0593,-1.0593,-1.0593,-1.0593,-1.0593,-1.0593,-1.0593,-1.0593,-1.0593,-1.0593,-1.0593,-1.0593,-1.0593,-1.0593,-1.0593,-1.0593,-1.0593,-3.6158,-3.752,-3.8892,-3.8892,-3.8892,-3.859,-3.7458,0.0,-3.5925,-3.3847,-3.2934,-3.2107,-3.0816,-3.0716,-3.0404,-2.9011,-2.8562,-2.7633,-2.5551,-2.4331,-2.3691,-2.3691,-2.3315,0.0,-2.2461,-2.21,-2.168,-2.1132,-2.0781,-2.0605,-2.0605,-2.0605,-2.0576,-2.0507,-1.9734,-1.9258,-1.9189,-1.8408,-1.8008,-1.8008,-1.8008,-1.8008,-1.8008,-1.8008,-1.8008,-1.8008,0.0,0.0,-1.8008,-1.8008,-1.7906,-1.7794,-1.794,-1.7828,-1.7476,-1.668,-1.579,-1.4843,-1.3846,-1.2989,-1.2305,-1.2305,-1.2305,-1.2305,-1.2305,-1.2305,-1.2291,-1.2245,-1.1844,-1.1369,-1.1282,-1.0929,-1.0593,-1.0593,-1.0593,-1.0593,-1.0593,-1.0593,-1.0593,-1.0593,-1.0593,-1.0593,-1.0593,-1.0593,-1.0593,-1.0593,-1.0593,-1.0593,-1.0593,-1.0593,-1.0593,-1.0593,-1.0593,-1.0593,-1.0593,-1.0593,-1.0593,-1.0593,-1.0593,-1.0593,-1.0593,-1.0593,-1.0593,-1.0593,-1.0593,-1.0593,-1.0593,-1.0593,-1.0593,-1.0593,-1.0593,-1.0593,-3.5974,-3.6448,-3.6682,-3.6682,-3.6682,-3.627,-3.4739,-3.4326,-3.3821,-3.2105,-3.1001,-3.0331,-3.0397,-2.9336,-2.8475,-2.8608,-2.7141,-2.5627,0.0,0.0,-2.3198,-2.3198,0.0,-2.2789,-2.206,-2.1924,-2.1543,-2.0772,-2.0644,-2.0605,-2.0605,-2.0605,-2.0429,-2.0029,-1.9541,-1.9111,-1.8705,-1.8252,-1.8008,-1.8008,-1.8008,-1.8008,-1.8008,-1.8008,-1.8008,-1.8008,0.0,-1.8008,-1.8008,-1.8008,-1.7535,-1.6888,-1.7681,-1.7044,-1.5623,-1.5482,-1.4772,-1.3774,-1.2842,-1.2409,-1.2305,-1.2305,-1.2305,-1.2305,-1.2305,-1.2305,-1.2251,-1.204,-1.169,-1.1316,-1.0854,-1.066,-1.0593,-1.0593,-1.0593,-1.0593,-1.0593,-1.0593,-1.0593,-1.0593,-1.0593,-1.0593,-1.0593,-1.0593,-1.0593,-1.0593,-1.0593,-1.0593,-1.0593,-1.0593,-1.0593,-1.0593,-1.0593,-1.0593,-1.0593,-1.0593,-1.0593,-1.0593,-1.0593,-1.0593,-1.0593,-1.0593,-1.0593,-1.0593,-1.0593,-1.0593,-1.0593,-1.0593,-1.0593,-1.0593,-1.0593,-1.0593,-3.3917,-3.404,-3.3904,-3.3222,-3.4145,-3.4713,-3.276,-3.2064,-3.1467,-3.0148,-2.9246,-2.8732,-2.8919,-2.8562,-2.8144,-2.7746,-2.6094,-2.4681,-2.4173,-2.3491,-2.3091,0.0,0.0,-2.2646,-2.2266,-2.1807,-2.1367,-2.0957,-2.0703,-2.0605,-2.0605,-2.038,-2.0117,-1.9922,-1.9277,-1.8802,-1.8598,-1.8188,-1.8008,-1.8008,-1.8008,-1.8008,-1.8008,-1.8008,-1.8008,-1.8008,0.0,-1.7716,-1.7242,-1.7242,-1.668,-1.5904,-1.6332,-1.5948,-1.5128,-1.4593,-1.3774,-1.2879,-1.2445,-1.2305,-1.2305,-1.2305,-1.2305,-1.2305,-1.2305,-1.2191,-1.2074,-1.194,-1.1806,-1.157,-1.1136,-1.0909,-1.0827,-1.0827,-1.0707,-1.0593,-1.0593,-1.0593,-1.0593,-1.0593,-1.0593,-1.0593,-1.0593,-1.0593,-1.0593,-1.0593,-1.0593,-1.0593,-1.0593,-1.0593,-1.0593,-1.0593,-1.0593,-1.0593,-1.0593,-1.0593,-1.0593,-1.0593,-1.0593,-1.0593,-1.0593,-1.0593,-1.0593,-1.0593,-1.0593,-1.0593,-1.0593,-1.0593,-1.0593,-1.0593,-1.0593,-1.0593,-3.2215,-3.1934,-3.1318,-3.013,-3.1679,-3.3,-3.1041,-3.0097,-2.9451,-2.8712,-2.7911,-2.7349,-2.7349,-2.7576,-2.7474,-2.6464,-2.5221,-2.4268,-2.3848,-2.3418,-2.3091,-2.3091,-2.2721,-2.2471,-2.2373,-2.168,-2.1151,-2.1084,-2.0762,-2.0556,-2.0458,-2.0098,-1.9824,-1.9582,-1.8939,-1.8559,-1.8451,-1.813,-1.8008,-1.8008,-1.8008,-1.8008,-1.8008,-1.8008,-1.8008,-1.8008,-1.8008,-1.7467,-1.6602,-1.6602,-1.5895,-1.4879,-1.5128,-1.5057,-1.4736,-1.3738,-1.2915,-1.2305,-1.2305,-1.2305,-1.2305,-1.2305,-1.2258,-1.2211,-1.2278,-1.2098,-1.1893,-1.1784,-1.1864,-1.1884,-1.1489,-1.1209,-1.0995,-1.0995,-1.0807,-1.0593,-1.0593,-1.0593,-1.0593,-1.0593,-1.0593,-1.0593,-1.0593,-1.0593,-1.0593,-1.0593,-1.0593,-1.0593,-1.0593,-1.0593,-1.0593,-1.0593,-1.0593,-1.0593,-1.0593,-1.0593,-1.0593,-1.0593,-1.0593,-1.0593,-1.0593,-1.0593,-1.0593,-1.0593,-1.0593,-1.0593,-1.0593,-1.0593,-1.0593,-1.0593,-1.066,-1.0693,-3.2215,-3.1104,-2.9682,-2.8418,-2.9491,-3.0604,-2.9591,-2.8679,-2.814,-2.8377,-2.7264,-2.6204,-2.6204,-2.5721,-2.5157,-2.466,-2.448,-2.4268,-2.3848,0.0,-2.3091,-2.3091,-2.2721,-2.2353,-2.1973,-2.1504,-2.1064,-2.0683,-2.0625,-2.0429,-1.998,-1.9932,-1.9514,-1.8715,-1.8637,-1.8412,-1.8057,-1.8027,-1.8008,-1.8008,-1.8008,-1.8008,-1.8008,-1.8008,-1.8008,-1.8008,-1.8008,-1.7467,-1.6602,-1.6602,-1.5508,-1.389,-1.4843,-1.4629,-1.3709,-1.2732,-1.2378,-1.2305,-1.2305,-1.2305,-1.2305,-1.2305,-1.2118,-1.1986,-1.2218,-1.2098,-1.1846,-1.1536,-1.185,-1.2144,-1.1535,-1.1209,-1.0995,-1.0995,-1.0807,-1.0593,-1.0593,-1.0593,-1.0593,-1.0593,-1.0593,-1.0593,-1.0593,-1.0593,-1.0593,-1.0593,-1.0593,-1.0593,-1.0593,-1.0593,-1.0593,-1.0593,-1.0593,-1.0593,-1.0593,-1.0593,-1.0593,-1.0593,-1.0593,-1.0593,-1.0593,-1.0593,-1.0593,-1.0593,-1.0593,-1.0593,-1.0593,-1.0593,-1.0593,-1.06,-1.0868,-1.0962,-3.1311,-3.0453,-2.9329,-2.7804,-2.7855,-2.8003,-2.691,-2.6414,-2.6244,-2.6623,-2.6273,-2.5752,-2.5508,-2.5053,-2.4609,-2.4443,-2.4199,-2.3975,-2.3809,-2.3418,-2.3003,-2.2783,-2.2373,-2.1953,-2.1523,-2.1084,-2.0752,-2.0615,-2.0312,-2.0088,-1.9922,-1.9377,-1.8939,-1.8617,-1.8354,-1.813,-1.8008,-1.8008,-1.8008,-1.8008,-1.8008,-1.8008,-1.7974,-1.7398,-1.7139,-1.7104,-1.6507,-1.5693,-1.4799,-1.4799,-1.4019,-1.2879,-1.3237,-1.3164,-1.2806,-1.2445,-1.2305,-1.2305,-1.2305,-1.2305,-1.2271,-1.2091,-1.1993,-1.1893,-1.1784,-1.1557,-1.1376,-1.163,-1.173,-1.1703,-1.1449,-1.1309,-1.1263,-1.1263,-1.0935,-1.0593,-1.0593,-1.0593,-1.0593,-1.0593,-1.0593,-1.0593,-1.0593,-1.0593,-1.0593,-1.0593,-1.0593,-1.0593,-1.0593,-1.0593,-1.0593,-1.0593,-1.0593,-1.0593,-1.0593,-1.0593,-1.0593,-1.0593,-1.0593,-1.0593,-1.0593,-1.0593,-1.0593,-1.0593,-1.0593,-1.068,-1.0861,-1.068,-1.0774,-1.1096,-1.1022,-1.0995,-3.0186,-2.9195,-2.8,-2.6852,-2.6239,-2.5773,-2.5236,-2.5116,-2.5282,-2.582,-2.5557,-2.5081,-2.443,0.0,0.0,-2.3458,-2.3324,-2.3326,-2.3559,-2.3169,-2.2789,-2.2549,-2.2021,-2.1562,-2.122,-2.083,-2.0605,-2.0605,-2.0166,-1.9853,-1.9727,-1.8987,-1.8539,-1.8403,-1.812,-1.8008,-1.8008,-1.8008,-1.8008,-1.8008,-1.8008,-1.7828,-1.7545,-1.6888,-1.6428,-1.6105,-1.5482,-1.4629,-1.3709,-1.3709,-1.3135,-1.2291,-1.2204,-1.2225,-1.2291,-1.2198,-1.2225,-1.2305,-1.2305,-1.2305,-1.2271,-1.2107,-1.1884,-1.1724,-1.171,-1.1436,-1.1216,-1.1617,-1.165,-1.1523,-1.1336,-1.1322,-1.1389,-1.1389,-1.0982,-1.0593,-1.0593,-1.0593,-1.0593,-1.0593,-1.0593,-1.0593,-1.0593,-1.0667,-1.07,-1.0606,-1.0673,-1.0727,-1.0727,-1.0646,-1.0593,-1.0593,-1.0593,-1.0593,-1.0593,-1.0593,-1.0593,-1.0593,-1.0593,-1.0593,-1.0593,-1.0593,-1.0593,-1.0593,-1.0593,-1.0734,-1.0995,-1.0827,-1.0902,-1.1255,-1.1276,-1.1216,-2.9011,-2.7178,-2.5413,-2.5413,-2.4618,-2.4023,-2.492,-2.5116,-2.5322,-2.6201,-2.5284,-2.4034,-2.2793,-2.2241,0.0,-2.1365,-2.1699,-2.2244,-2.2974,-2.273,-2.251,-2.25,-2.1707,-2.119,-2.119,-2.083,-2.0605,-2.0595,-2.0156,-1.9727,-1.9307,-1.8867,-1.8403,-1.8018,-1.8008,-1.8008,-1.8008,-1.8008,-1.8008,-1.8008,-1.7974,-1.7501,-1.6602,-1.6593,-1.607,-1.5199,-1.5163,-1.4593,-1.3673,-1.3673,-1.3135,-1.2271,-1.202,-1.2044,-1.2265,-1.2013,-1.2051,-1.2298,-1.2305,-1.2305,-1.2305,-1.2298,-1.1904,-1.1502,-1.2111,-1.1884,-1.1382,-1.1389,-1.1637,-1.1759,-1.1149,-1.1209,-1.1389,-1.1389,-1.0982,-1.0593,-1.0593,-1.0593,-1.0593,-1.0593,-1.0593,-1.0593,-1.0593,-1.0827,-1.0928,-1.0633,-1.0841,-1.0995,-1.0995,-1.0774,-1.06,-1.0593,-1.0593,-1.0593,-1.0593,-1.0593,-1.0593,-1.0593,-1.0593,-1.0593,-1.0593,-1.0593,-1.0593,-1.0593,-1.0593,-1.0734,-1.0995,-1.0989,-1.0995,-1.1015,-1.1631,-1.171,-2.7409,-2.6309,-2.5413,-2.5413,-2.5073,-2.4803,-2.5057,-2.5116,-2.4976,-2.4575,-2.3913,-2.2978,-2.1492,-2.1617,0.0,-2.1365,-2.1401,-2.1802,-2.2582,-2.2598,-2.2295,-2.1648,-2.1356,-2.1073,-2.0791,-2.0683,-2.0478,-2.0127,-1.9717,-1.9287,-1.8822,-1.8393,-1.81,-1.8018,-1.8008,-1.8008,-1.8008,-1.8008,-1.8008,-1.7974,-1.732,-1.6888,-1.6567,-1.593,-1.5092,-1.4099,-1.3448,-1.2981,-1.2732,-1.2732,-1.2556,-1.2291,-1.2204,-1.2098,-1.2011,-1.2131,-1.2098,-1.2067,-1.2231,-1.2305,-1.2271,-1.2064,-1.1737,-1.1382,-1.139,-1.1116,-1.0894,-1.1062,-1.1182,-1.1256,-1.1289,-1.1209,-1.1122,-1.1122,-1.0835,-1.0593,-1.0593,-1.0593,-1.0593,-1.0593,-1.0593,-1.0593,-1.0593,-1.0667,-1.0687,-1.0606,-1.0841,-1.0995,-1.0995,-1.1096,-1.1089,-1.0882,-1.0894,-1.0894,-1.0894,-1.0894,-1.0807,-1.0606,-1.0787,-1.0807,-1.06,-1.0593,-1.0593,-1.0593,-1.0593,-1.0734,-1.0995,-1.0821,-1.1042,-1.1645,-1.1577,-1.1623,-2.6213,-2.5547,-2.4891,-2.4544,-2.4349,-2.4125,-2.3675,-2.4055,-2.435,-2.3684,-2.2744,-2.1567,-1.9998,-2.0027,0.0,-1.994,-2.026,-2.0846,-2.1673,-2.2057,-2.2002,-2.1278,-2.1074,-2.0859,-2.0635,-2.0605,-2.0498,-2.0195,-1.9619,-1.918,-1.887,-1.833,-1.8008,-1.8008,-1.8008,-1.8008,-1.8008,-1.8008,-1.8008,-1.7974,-1.7035,-1.6384,-1.6,-1.5048,-1.4063,-1.3091,-1.2556,-1.2305,-1.2305,-1.2305,-1.2231,-1.2131,-1.2131,-1.1951,-1.171,-1.1891,-1.1844,-1.1717,-1.1897,-1.1957,-1.1924,-1.175,-1.1496,-1.1243,-1.1182,-1.0962,-1.0801,-1.0942,-1.0995,-1.1009,-1.1062,-1.0955,-1.0881,-1.0962,-1.0807,-1.0593,-1.0593,-1.0593,-1.0593,-1.0593,-1.0593,-1.0593,-1.0593,-1.0787,-1.0894,-1.078,-1.1109,-1.1216,-1.0901,-1.1276,-1.1443,-1.1035,-1.1096,-1.1169,-1.1169,-1.1169,-1.1042,-1.0787,-1.0895,-1.0915,-1.0774,-1.0653,-1.0593,-1.0593,-1.0593,-1.0734,-1.0995,-1.0929,-1.1176,-1.1697,-1.175,-1.181,-2.5063,-2.4521,-2.3794,-2.3027,-2.2845,-2.2545,-2.1451,-2.224,-2.318,-2.2929,-2.1585,-1.9934,-1.8414,-1.7931,-1.7721,-1.7692,-1.8702,-1.9721,-2.0542,-2.1339,-2.166,-2.119,-2.081,-2.0605,-2.0605,-2.0605,-2.0586,-2.0546,-1.9756,-1.9268,-1.9228,-1.8447,-1.8008,-1.8008,-1.8008,-1.8008,-1.8008,-1.8008,-1.8008,-1.7974,-1.6957,-1.6044,-1.5163,-1.4243,-1.331,-1.2409,-1.2335,-1.2305,-1.2305,-1.2305,-1.2131,-1.1906,-1.1933,-1.1697,-1.1362,-1.1415,-1.1395,-1.1355,-1.1382,-1.1389,-1.1389,-1.1389,-1.1229,-1.1042,-1.1309,-1.1182,-1.0955,-1.0955,-1.0955,-1.0928,-1.066,-1.0593,-1.066,-1.0928,-1.0787,-1.0593,-1.0593,-1.0593,-1.0593,-1.0593,-1.0593,-1.0593,-1.0593,-1.1015,-1.1316,-1.1102,-1.1558,-1.1618,-1.0814,-1.1437,-1.1732,-1.1129,-1.1309,-1.147,-1.147,-1.147,-1.1343,-1.1049,-1.1062,-1.1062,-1.1035,-1.0787,-1.064,-1.0673,-1.0673,-1.0787,-1.0995,-1.1283,-1.1389,-1.1402,-1.2004,-1.2138,-2.2601,-2.173,-2.096,-2.1332,-2.15,-2.15,-2.1246,-2.0458,-1.9766,-1.9695,-1.938,-1.8641,-1.7037,-1.7496,-1.8078,-1.7729,-1.8405,-1.9245,-2.0045,-2.0821,-2.1211,-2.0762,-2.0664,-2.0605,-2.0605,-2.0605,-2.0458,-2.0078,-1.958,-1.9141,-1.8763,-1.8256,-1.8008,-1.8008,-1.8008,-1.8008,-1.8008,-1.8008,-1.8008,-1.7974,-1.6298,-1.5411,-1.5199,-1.4985,-1.435,-1.3346,-1.2629,-1.2305,-1.2305,-1.2305,-1.2131,-1.1926,-1.2124,-1.175,-1.1142,-1.1603,-1.1483,-1.1122,-1.1349,-1.1389,-1.1389,-1.1389,-1.1229,-1.1002,-1.1069,-1.0882,-1.0687,-1.0687,-1.0687,-1.0673,-1.0606,-1.0593,-1.0606,-1.0673,-1.064,-1.0593,-1.0593,-1.0593,-1.0593,-1.0593,-1.0593,-1.0593,-1.0593,-1.0888,-1.1223,-1.1658,-1.1826,-1.1832,-1.1645,-1.1986,-1.2071,-1.1752,-1.1772,-1.177,-1.177,-1.177,-1.165,-1.1315,-1.155,-1.1577,-1.1309,-1.1056,-1.1009,-1.1236,-1.1236,-1.1156,-1.0995,-1.1283,-1.1389,-1.1395,-1.179,-1.2087,-2.1816,-2.1221,-2.0738,-2.0086,-1.9483,-1.8991,-1.889,-1.8201,-1.7512,-1.7362,-1.7448,-1.7274,-1.6257,-1.6621,-1.6985,-1.6632,-1.7424,-1.8049,-1.8124,-1.8998,-1.953,-1.9082,-1.952,-1.9835,-1.9835,-2.0284,-2.0507,-2.0244,-1.9648,-1.9189,-1.8965,-1.835,-1.8008,-1.8008,-1.8008,-1.8008,-1.8008,-1.8008,-1.8008,-1.7974,-1.6541,-1.586,-1.5825,-1.4442,-1.352,-1.2989,-1.2519,-1.2305,-1.2305,-1.2305,-1.2051,-1.1697,-1.2131,-1.177,-1.1049,-1.149,-1.1376,-1.0995,-1.1009,-1.1009,-1.1009,-1.1009,-1.0909,-1.0821,-1.0821,-1.0713,-1.0593,-1.0593,-1.0593,-1.0593,-1.0593,-1.0593,-1.0593,-1.0593,-1.0593,-1.0593,-1.0593,-1.0593,-1.0593,-1.0593,-1.0593,-1.0633,-1.0774,-1.1162,-1.1551,-1.1859,-1.2027,-1.1977,-1.169,-1.2031,-1.2191,-1.194,-1.2027,-1.2078,-1.2078,-1.2078,-1.1951,-1.1657,-1.1784,-1.1832,-1.1643,-1.149,-1.1416,-1.1389,-1.1389,-1.1315,-1.1202,-1.1496,-1.1637,-1.1643,-1.1937,-1.2158,-2.1614,-2.1047,-2.061,-1.881,-1.7492,-1.6567,-1.6326,-1.6281,-1.6126,-1.5879,-1.6025,-1.6119,-1.5872,-1.5744,-1.5671,-1.5438,-1.6318,-1.6802,-1.6171,-1.7151,-1.7763,-1.7335,-1.8149,-1.8798,-1.8997,-1.9805,-2.0372,-2.0459,-1.9764,-1.9248,-1.918,-1.8437,-1.8008,-1.8008,-1.8008,-1.8008,-1.8008,-1.8008,-1.8008,-1.7974,-1.6888,-1.6349,-1.628,-1.373,-1.2622,-1.2806,-1.2629,-1.2445,-1.2305,-1.2305,-1.1984,-1.1557,-1.2091,-1.177,-1.1029,-1.1282,-1.1209,-1.0882,-1.0673,-1.0593,-1.0593,-1.0593,-1.0593,-1.0593,-1.0593,-1.0593,-1.0593,-1.0593,-1.0593,-1.0593,-1.0593,-1.0593,-1.0593,-1.0593,-1.0593,-1.0593,-1.0593,-1.0593,-1.0593,-1.0593,-1.0633,-1.0774,-1.1082,-1.1584,-1.1926,-1.1973,-1.2144,-1.2124,-1.1608,-1.2004,-1.2204,-1.2007,-1.2158,-1.2305,-1.2305,-1.2305,-1.2204,-1.1993,-1.198,-1.198,-1.198,-1.198,-1.183,-1.1549,-1.1577,-1.1515,-1.1503,-1.1797,-1.1953,-1.1913,-1.2171,-1.2305,-2.0888,-1.8786,-1.7058,-1.6968,-1.6662,-1.6319,-1.6328,-1.6072,-1.5831,-1.5791,-1.5865,-1.5831,-1.5791,-1.5625,-1.5444,-1.5404,-1.5866,-1.6193,-1.6111,-1.6862,-1.7351,-1.7302,-1.7423,-1.7908,-1.8917,-1.9125,-1.9411,-1.9954,-1.9561,-1.9121,-1.8705,-1.8237,-1.8008,-1.8008,-1.8008,-1.8008,-1.8008,-1.8008,-1.8008,-1.7974,-1.6228,-1.5376,-1.534,-1.4099,-1.3991,-1.4772,-1.3882,-1.3062,-1.2305,-1.2305,-1.2104,-1.1844,-1.2171,-1.177,-1.1029,-1.1282,-1.1082,-1.064,-1.0606,-1.0593,-1.0593,-1.0593,-1.0593,-1.0593,-1.0593,-1.0593,-1.0593,-1.0593,-1.0593,-1.0593,-1.0593,-1.0593,-1.0593,-1.0593,-1.0593,-1.0593,-1.0593,-1.0593,-1.0593,-1.0593,-1.0794,-1.1109,-1.1692,-1.1852,-1.1993,-1.2204,-1.2278,-1.2271,-1.2198,-1.2251,-1.2285,-1.2245,-1.2278,-1.2305,-1.2305,-1.2305,-1.2285,-1.2245,-1.2245,-1.2245,-1.2245,-1.2245,-1.2225,-1.2184,-1.2184,-1.2064,-1.1846,-1.2104,-1.2118,-1.1913,-1.2171,-1.2305,-2.1997,-1.9064,-1.6763,-1.7184,-1.6642,-1.6025,-1.6025,-1.5925,-1.5784,-1.5784,-1.5784,-1.5784,-1.5784,-1.5591,-1.5344,-1.5177,-1.5181,-1.5169,-1.5,-1.5273,-1.5511,-1.5511,-1.6034,-1.6601,-1.7082,-1.8261,-1.8786,-1.8255,-1.89,-1.8875,-1.7862,-1.7912,-1.8008,-1.8008,-1.8008,-1.8008,-1.8008,-1.8008,-1.8008,-1.7974,-1.6088,-1.5763,-1.6724,-1.5234,-1.445,-1.4343,-1.3882,-1.3171,-1.2305,-1.2305,-1.2131,-1.1919,-1.2047,-1.217,-1.2201,-1.1458,-1.1772,-1.2377,-1.1051,-1.0895,-1.1195,-1.0744,-1.0593,-1.0593,-1.0593,-1.0593,-1.0593,-1.0593,-1.0593,-1.0593,-1.0593,-1.0713,-1.0834,-1.0834,-1.0929,-1.1042,-1.1042,-1.0915,-1.0888,-1.1015,-1.1316,-1.1598,-1.1859,-1.2004,-1.2151,-1.2285,-1.2305,-1.2305,-1.2305,-1.2305,-1.2305,-1.2305,-1.2305,-1.2305,-1.2305,-1.2305,-1.2305,-1.2305,-1.2305,-1.2305,-1.2305,-1.2305,-1.2305,-1.2305,-1.2305,-1.2238,-1.2111,-1.2238,-1.2238,-1.2118,-1.2245,-1.2305,-2.2605,-1.9712,-1.7561,-1.7529,-1.6822,-1.6054,-1.5859,-1.5784,-1.5784,-1.5784,-1.5784,-1.5784,-1.5784,-1.5531,-1.5217,-1.5042,-1.4649,-1.4335,-1.4115,-1.4088,-1.4088,-1.4088,-1.4817,-1.5421,-1.5655,-1.7364,-1.7948,-1.6813,-1.8211,-1.8521,-1.7116,-1.7637,-1.8008,-1.8008,-1.8008,-1.8008,-1.8008,-1.8008,-1.8008,-1.7974,-1.6088,-1.6193,-1.794,-1.6053,-1.4914,-1.4414,-1.4171,-1.3419,-1.2305,-1.2305,-1.2317,-1.2364,-1.2364,-1.2876,-1.3496,-1.225,-1.2727,-1.3729,-1.1862,-1.1593,-1.202,-1.1421,-1.1209,-1.1178,-1.0958,-1.0895,-1.0884,-1.0744,-1.07,-1.072,-1.0794,-1.0942,-1.1102,-1.1102,-1.1269,-1.1389,-1.1389,-1.1256,-1.1189,-1.1483,-1.1717,-1.1926,-1.2,-1.2158,-1.2305,-1.2305,-1.2305,-1.2305,-1.2305,-1.2305,-1.2305,-1.2305,-1.2305,-1.2305,-1.2305,-1.2305,-1.2305,-1.2305,-1.2305,-1.2305,-1.2305,-1.2305,-1.2305,-1.2305,-1.2305,-1.2305,-1.2305,-1.2305,-1.2305,-1.2305,-1.2305,-1.2305,-2.1656,-2.004,-1.8773,-1.7362,-1.701,-1.6733,-1.5994,-1.5784,-1.5784,-1.5784,-1.5784,-1.5784,-1.5784,-1.5364,-1.5028,-1.5015,-1.4526,-1.4108,-1.4088,-1.4088,-1.4088,-1.4088,-1.413,-1.4573,-1.5621,-1.6373,-1.6649,-1.6277,-1.7752,-1.8037,-1.6691,-1.751,-1.8008,-1.8008,-1.8008,-1.8008,-1.8008,-1.8008,-1.8008,-1.7974,-1.6088,-1.6193,-1.794,-1.6053,-1.5649,-1.6384,-1.5508,-1.4055,-1.2305,-1.2305,-1.2835,-1.3614,-1.3614,-1.401,-1.4569,-1.4098,-1.3818,-1.3544,-1.304,-1.2917,-1.2917,-1.2887,-1.2887,-1.2734,-1.1958,-1.1741,-1.1621,-1.111,-1.0969,-1.1035,-1.1275,-1.1362,-1.1369,-1.1369,-1.1382,-1.1389,-1.1389,-1.1382,-1.149,-1.1826,-1.1893,-1.1993,-1.2231,-1.2291,-1.2305,-1.2305,-1.2305,-1.2305,-1.2305,-1.2305,-1.2305,-1.2305,-1.2305,-1.2305,-1.2305,-1.2305,-1.2305,-1.2305,-1.2305,-1.2305,-1.2305,-1.2305,-1.2305,-1.2305,-1.2305,-1.2305,-1.2305,-1.2305,-1.2305,-1.2305,-1.2305,-1.2305,-2.4921,-2.2692,-2.0798,-1.9635,-1.8164,-1.6926,-1.6639,-1.6187,-1.5784,-1.5784,-1.5784,-1.5784,-1.5784,-1.5351,-1.5008,-1.5008,-1.4469,-1.4088,-1.4088,-1.4088,-1.4088,-1.4088,-1.4088,-1.425,-1.4657,-1.5517,-1.5574,-1.4348,-1.658,-1.7343,-1.5789,-1.7148,-1.8008,-1.8008,-1.8008,-1.8008,-1.8008,-1.8008,-1.8008,-1.7974,-1.6715,-1.6463,-1.707,-1.6393,-1.5965,-1.572,-1.5965,-1.5013,-1.3237,-1.3918,-1.3833,-1.3346,-1.378,-1.4595,-1.5287,-1.3918,-1.4339,-1.5327,-1.3585,-1.3342,-1.3704,-1.3161,-1.3009,-1.2848,-1.205,-1.1803,-1.1683,-1.1163,-1.0995,-1.1062,-1.1315,-1.1563,-1.1757,-1.1944,-1.1991,-1.1991,-1.1991,-1.1837,-1.1797,-1.2091,-1.2144,-1.2178,-1.2285,-1.2305,-1.2305,-1.2305,-1.2305,-1.2305,-1.2305,-1.2305,-1.2305,-1.2305,-1.2305,-1.2305,-1.2305,-1.2305,-1.2305,-1.2305,-1.2305,-1.2305,-1.2305,-1.2305,-1.2305,-1.2305,-1.2305,-1.2305,-1.2305,-1.2305,-1.2305,-1.2305,-1.2305,-1.2305,-2.6661,-2.4587,-2.2936,-2.1886,-1.9802,-1.7929,-1.7712,-1.6914,-1.6087,-1.5725,-1.5758,-1.5784,-1.5784,-1.5438,-1.5122,-1.5022,-1.4469,-1.4088,-1.4088,-1.4088,-1.4088,-1.4088,-1.4088,-1.4088,-1.4088,-1.4961,-1.4844,-1.3326,-1.5843,0.0,-1.5267,-1.6975,-1.8008,-1.8008,-1.8008,-1.8008,-1.8008,-1.8008,-1.7828,-1.7501,-1.6576,-1.614,-1.614,-1.614,-1.5965,-1.572,-1.668,-1.5974,-1.4279,-1.4914,-1.4847,-1.4332,-1.4773,-1.553,-1.6265,-1.4948,-1.5333,-1.6261,-1.4601,-1.4291,-1.451,-1.3965,-1.3904,-1.3826,-1.2679,-1.2453,-1.2392,-1.1531,-1.1289,-1.1356,-1.1643,-1.1864,-1.2064,-1.2258,-1.2305,-1.2305,-1.2305,-1.2151,-1.2107,-1.2265,-1.2305,-1.2305,-1.2305,-1.2305,-1.2305,-1.2305,-1.2305,-1.2305,-1.2305,-1.2305,-1.2305,-1.2305,-1.2305,-1.2305,-1.2305,-1.2305,-1.2305,-1.2305,-1.2305,-1.2305,-1.2305,-1.2305,-1.2305,-1.2305,-1.2305,-1.2305,-1.2305,-1.2305,-1.2305,-1.2305,-1.2305,-1.2305,0.0,0.0,0.0,0.0,0.0,0.0,-1.9084,0.0,-1.6686,-1.5654,-1.5611,-1.5758,-1.5778,-1.5591,-1.5304,-1.5068,-1.4489,-1.4115,-1.4115,-1.4108,-1.4102,-1.4102,-1.4088,-1.4088,-1.4088,-1.4707,-1.4554,-1.3319,-1.5565,-1.6445,-1.5267,-1.6985,-1.8008,-1.8008,-1.8008,-1.8008,-1.8008,-1.7974,-1.7501,-1.6602,-1.5658,-1.5163,-1.5163,-1.5234,-1.572,-1.6602,-1.7579,-1.6966,-1.5253,-1.5253,-1.5773,-1.6566,-1.6591,-1.6927,-1.7396,-1.7334,-1.6829,-1.6114,-1.6095,-1.5811,-1.543,-1.542,-1.5732,-1.58,-1.3996,-1.3769,-1.3791,-1.2333,-1.1906,-1.1973,-1.2225,-1.2305,-1.2305,-1.2305,-1.2305,-1.2305,-1.2305,-1.2305,-1.2305,-1.2305,-1.2305,-1.2305,-1.2305,-1.2305,-1.2305,-1.2305,-1.2305,-1.2305,-1.2305,-1.2305,-1.2305,-1.2305,-1.2305,-1.2305,-1.2305,-1.2305,-1.2305,-1.2305,-1.2305,-1.2305,-1.2305,-1.2305,-1.2305,-1.2305,-1.2305,-1.2305,-1.2305,-1.2305,-1.2305,-1.2305,-1.2305,-1.2305,-2.8253,0.0,0.0,0.0,0.0,0.0,0.0,0.0,-1.6051,-1.6487,-1.5864,-1.5331,-1.5752,-1.5591,-1.5371,-1.5291,-1.5008,-1.4767,-1.4767,-1.4536,-1.4402,-1.4402,-1.4215,-1.4088,-1.4088,-1.4253,-1.4117,0.0,-1.5227,-1.6042,-1.5531,-1.7097,-1.8008,-1.8008,-1.8008,-1.8008,-1.8008,-1.732,-1.6853,-1.6602,-1.5658,-1.4807,-1.4171,-1.5579,-1.5965,-1.5693,-1.7295,-1.7552,-1.6786,-1.6786,-1.6324,-1.5683,-1.6087,-1.6529,-1.6804,-1.6191,-1.6211,-1.6494,-1.6202,-1.6016,-1.5968,-1.626,-1.6414,-1.6314,-1.5255,-1.4553,-1.3924,-1.3135,-1.2431,-1.1973,-1.2225,-1.2305,-1.2305,-1.2305,-1.2305,-1.2305,-1.2305,-1.2305,-1.2305,-1.2305,-1.2305,-1.2305,-1.2305,-1.2305,-1.2305,-1.2305,-1.2305,-1.2305,-1.2305,-1.2305,-1.2305,-1.2305,-1.2305,-1.2305,-1.2305,-1.2305,-1.2305,-1.2305,-1.2305,-1.2305,-1.2305,-1.2305,-1.2305,-1.2305,-1.2305,-1.2305,-1.2305,-1.2305,-1.2305,-1.2305,-1.2305,-1.2305,-2.8687,-2.7767,0.0,0.0,0.0,0.0,-2.1866,-1.955,-1.7491,0.0,-1.7085,-1.6418,-1.6744,-1.6408,-1.606,-1.606,-1.5666,-1.5244,-1.5042,-1.4816,-1.4663,-1.4536,-1.4369,-1.4222,-1.4095,-1.4088,-1.3968,-1.3626,-1.526,-1.6455,-1.6828,-1.759,-1.8008,-1.8008,-1.7613,-1.7613,-1.8008,-1.668,-1.6,-1.6009,-1.5446,-1.4486,-1.32,-1.5535,-1.5809,-1.452,-1.676,-1.7325,-1.6607,-1.6776,-1.6482,-1.5931,-1.6218,-1.6387,-1.6416,-1.6054,-1.6024,-1.6171,-1.6309,-1.6251,-1.6163,-1.656,-1.6824,-1.6831,-1.5932,-1.5141,-1.4414,-1.3683,-1.2792,-1.2091,-1.2258,-1.2305,-1.2305,-1.2305,-1.2305,-1.2305,-1.2305,-1.2305,-1.2305,-1.2305,-1.2305,-1.2305,-1.2305,-1.2305,-1.2305,-1.2305,-1.2305,-1.2305,-1.2305,-1.2305,-1.2305,-1.2305,-1.2305,-1.2305,-1.2305,-1.2305,-1.2305,-1.2305,-1.2305,-1.2305,-1.2305,-1.2305,-1.2305,-1.2305,-1.2305,-1.2305,-1.2305,-1.2305,-1.2305,-1.2305,-1.2305,-1.2365,-2.8439,-2.8066,0.0,0.0,-2.5889,0.0,-2.4418,-2.227,-2.0024,0.0,-1.8909,-1.8371,-1.8335,-1.7814,-1.7369,-1.7286,-1.6738,-1.6011,-1.5214,-1.5075,-1.4917,-1.4649,-1.4589,-1.4456,-1.4162,-1.4135,-1.4015,-1.3673,-1.5507,-1.722,-1.8531,-1.8208,-1.8008,-1.8008,-1.7182,-1.7104,-1.7828,-1.6088,-1.5128,-1.5021,-1.5021,-1.4076,-1.2361,-1.5124,-1.5281,-1.3546,-1.6078,-1.6579,-1.5583,-1.5965,-1.6299,-1.6619,-1.658,-1.6377,-1.6144,-1.6514,-1.6161,-1.5644,-1.6482,-1.6543,-1.631,-1.6697,-1.7139,-1.7276,-1.6279,-1.5627,-1.4985,-1.3846,-1.2952,-1.2305,-1.2305,-1.2305,-1.2305,-1.2305,-1.2305,-1.2305,-1.2305,-1.2305,-1.2305,-1.2305,-1.2305,-1.2305,-1.2305,-1.2305,-1.2305,-1.2305,-1.2305,-1.2305,-1.2305,-1.2305,-1.2305,-1.2305,-1.2305,-1.2305,-1.2305,-1.2305,-1.2305,-1.2305,-1.2305,-1.2305,-1.2305,-1.2305,-1.2305,-1.2305,-1.2305,-1.2305,-1.2305,-1.2305,-1.2305,-1.2305,-1.2338,-1.2529,-2.9343,-2.8498,-2.7743,-2.7641,-2.6246,0.0,-2.4688,-2.2844,-2.1171,0.0,-2.0305,-1.9367,-1.9263,-1.9483,-1.9516,-1.9088,-1.9236,-1.8543,-1.5999,-1.5458,-1.5291,-1.5231,-1.5017,-1.4763,-1.4462,-1.4436,-1.4315,-1.4021,-1.5344,-1.6859,-1.8521,-1.8208,-1.8008,-1.8008,-1.7828,-1.7467,-1.6888,-1.5763,-1.4772,-1.3991,-1.3991,-1.3287,-1.2058,-1.4137,-1.4663,-1.4031,-1.5308,-1.5901,-1.5988,-1.6063,-1.6144,-1.6193,-1.5811,-1.583,-1.6105,-1.6193,-1.6309,-1.6521,-1.708,-1.7197,-1.723,-1.7627,-1.7822,-1.7712,-1.6768,-1.587,-1.4843,-1.3055,-1.2445,-1.2305,-1.2305,-1.2305,-1.2305,-1.2305,-1.2305,-1.2305,-1.2305,-1.2305,-1.2305,-1.2305,-1.2305,-1.2305,-1.2305,-1.2305,-1.2305,-1.2305,-1.2305,-1.2305,-1.2305,-1.2305,-1.2305,-1.2305,-1.2305,-1.2305,-1.2305,-1.2305,-1.2305,-1.2305,-1.2305,-1.2305,-1.2305,-1.2305,-1.2305,-1.2305,-1.2305,-1.2305,-1.2305,-1.2305,-1.2305,-1.2311,-1.2583,-1.273,-2.9372,-2.8858,-2.8435,-2.7712,0.0,0.0,0.0,-2.4462,-2.3151,-2.3598,-2.2733,-2.1778,-2.1346,-2.1135,-2.0908,-2.0561,-2.0148,-1.9385,-1.7966,-1.7075,-1.6465,-1.6296,-1.5661,-1.5064,-1.477,-1.4609,-1.4819,-1.5658,-1.5866,-1.6868,-1.8857,-1.8359,-1.7794,-1.732,-1.7285,-1.6862,-1.5895,-1.495,-1.4207,-1.3709,-1.3545,-1.2927,-1.197,-1.3724,-1.4015,-1.3225,-1.4612,-1.5191,-1.5185,-1.5584,-1.5732,-1.5743,-1.5498,-1.5547,-1.5762,-1.6007,-1.6242,-1.6494,-1.7181,-1.7383,-1.7484,-1.7871,-1.8008,-1.7906,-1.7432,-1.6332,-1.4807,-1.2835,-1.2305,-1.2305,-1.2305,-1.2305,-1.2305,-1.2305,-1.2305,-1.2305,-1.2305,-1.2305,-1.2305,-1.2305,-1.2305,-1.2305,-1.2305,-1.2305,-1.2305,-1.2305,-1.2305,-1.2305,-1.2305,-1.2305,-1.2305,-1.2305,-1.2305,-1.2305,-1.2305,-1.2305,-1.2305,-1.2305,-1.2305,-1.2305,-1.2305,-1.2305,-1.2305,-1.2305,-1.2305,-1.2305,-1.2305,-1.2489,-1.2445,-1.2311,-1.2643,-1.2864,0.0,-2.9175,-2.9157,0.0,0.0,-2.6825,0.0,0.0,0.0,-2.5685,-2.5136,0.0,0.0,0.0,0.0,0.0,0.0,0.0,0.0,-1.9471,0.0,-1.7498,-1.6859,-1.6165,-1.5387,-1.4821,-1.5298,-1.7261,-1.6591,-1.707,-1.9178,-1.8555,-1.7655,-1.6636,-1.6602,-1.607,-1.4914,-1.4099,-1.3709,-1.3702,-1.3476,-1.2938,-1.2122,-1.3452,-1.3322,-1.2225,-1.3837,-1.4419,-1.4273,-1.5079,-1.541,-1.541,-1.541,-1.5469,-1.5586,-1.6056,-1.6271,-1.6457,-1.7227,-1.75,-1.7559,-1.79,-1.7759,-1.7476,-1.7476,-1.6158,-1.4307,-1.2732,-1.2305,-1.2305,-1.2305,-1.2305,-1.2305,-1.2305,-1.2305,-1.2305,-1.2305,-1.2305,-1.2305,-1.2305,-1.2305,-1.2305,-1.2305,-1.2305,-1.2305,-1.2305,-1.2305,-1.2305,-1.2305,-1.2305,-1.2305,-1.2305,-1.2305,-1.2305,-1.2305,-1.2305,-1.2305,-1.2305,-1.2305,-1.2305,-1.2305,-1.2358,-1.2365,-1.2305,-1.2358,-1.2385,-1.2385,-1.2663,-1.2663,-1.2398,-1.279,-1.3053,0.0,0.0,0.0,0.0,-2.7972,0.0,0.0,0.0,-2.7096,-2.6508,0.0,0.0,0.0,0.0,0.0,0.0,0.0,0.0,-2.365,-2.2875,-2.1323,-1.8422,-1.9482,-1.9407,-1.6691,-1.5239,-1.539,-1.7579,-1.7056,-1.7384,-1.9187,-1.8828,-1.7951,-1.6645,-1.6602,-1.572,-1.3882,-1.3745,-1.3709,-1.3709,-1.3672,-1.3351,-1.28,-1.2998,-1.2626,-1.1887,-1.2821,-1.3588,-1.4273,-1.5079,-1.541,-1.541,-1.541,-1.5644,-1.6075,-1.6494,-1.6904,-1.7337,-1.7773,-1.7939,-1.7949,-1.7998,-1.6862,-1.5517,-1.5517,-1.4163,-1.2586,-1.2372,-1.2305,-1.2305,-1.2305,-1.2305,-1.2305,-1.2305,-1.2305,-1.2305,-1.2305,-1.2305,-1.2305,-1.2305,-1.2305,-1.2305,-1.2305,-1.2305,-1.2305,-1.2305,-1.2305,-1.2305,-1.2305,-1.2305,-1.2305,-1.2305,-1.2305,-1.2305,-1.2305,-1.2305,-1.2305,-1.2305,-1.2305,-1.2305,-1.2305,-1.2589,-1.261,-1.2305,-1.2596,-1.273,-1.273,-1.277,-1.2764,-1.275,-1.328,-1.352,0.0,0.0,0.0,0.0,0.0,0.0,-2.76,0.0,-2.7524,0.0,0.0,0.0,0.0,0.0,0.0,0.0,-2.5511,0.0,0.0,0.0,-2.3748,0.0,0.0,0.0,-1.7504,-1.6962,-1.7257,-1.8417,-1.7961,-1.8105,-1.9234,-1.832,-1.7169,-1.5842,-1.5799,-1.4835,-1.2915,-1.3419,-1.3419,-1.2879,-1.2733,-1.2424,-1.203,-1.188,-1.1808,-1.1834,-1.2174,-1.2757,-1.3593,-1.4677,-1.5111,-1.517,-1.5882,-1.6133,-1.6183,-1.6846,-1.7227,-1.7451,-1.7861,-1.8008,-1.8008,-1.8008,-1.7113,-1.5895,-1.5376,-1.4199,-1.2989,-1.2445,-1.2305,-1.2305,-1.2305,-1.2305,-1.2305,-1.2305,-1.2305,-1.2305,-1.2305,-1.2305,-1.2305,-1.2305,-1.2445,-1.2596,-1.2596,-1.2418,-1.2305,-1.2305,-1.2305,-1.2305,-1.2305,-1.2452,-1.2596,-1.2596,-1.2719,-1.2826,-1.2826,-1.2826,-1.2826,-1.2826,-1.2659,-1.2596,-1.2596,-1.2717,-1.2811,-1.2826,-1.2953,-1.3013,-1.3019,-1.3186,-1.3267,-1.3273,-1.3487,-1.36,-2.8902,0.0,0.0,0.0,0.0,0.0,0.0,0.0,0.0,0.0,0.0,0.0,0.0,0.0,0.0,0.0,0.0,-2.5906,0.0,0.0,0.0,0.0,0.0,0.0,0.0,-1.8684,-1.8774,-1.9075,-1.871,-1.8784,-1.9446,-1.8164,-1.6757,-1.5427,-1.4999,-1.3991,-1.2335,-1.2989,-1.3098,-1.2696,-1.2236,-1.1972,-1.1916,-1.1458,-1.1426,-1.1691,-1.1849,-1.2304,-1.301,-1.4044,-1.455,-1.4755,-1.6,-1.63,-1.6162,-1.7074,-1.7461,-1.7598,-1.79,-1.7828,-1.7613,-1.7613,-1.6784,-1.5685,-1.4985,-1.4099,-1.3171,-1.2482,-1.2365,-1.2405,-1.2325,-1.2365,-1.2405,-1.2318,-1.2305,-1.2305,-1.2305,-1.2365,-1.2425,-1.2425,-1.2703,-1.2911,-1.2911,-1.2692,-1.2552,-1.2552,-1.2552,-1.2552,-1.2552,-1.2739,-1.2911,-1.2911,-1.3073,-1.3213,-1.3213,-1.3213,-1.3213,-1.3213,-1.3038,-1.2911,-1.2911,-1.2991,-1.306,-1.3206,-1.3287,-1.3327,-1.3327,-1.35,-1.3646,-1.3726,-1.3726,-1.3726,0.0,0.0,0.0,-2.8126,0.0,0.0,0.0,0.0,-2.8562,0.0,0.0,0.0,0.0,0.0,0.0,0.0,0.0,0.0,0.0,0.0,0.0,0.0,0.0,0.0,0.0,-2.0044,-1.9222,0.0,-1.9115,-1.9238,-1.9837,-1.862,-1.7227,-1.5838,-1.4442,-1.3273,-1.2305,-1.2342,-1.2806,-1.3637,-1.2725,-1.2639,-1.321,-1.2297,-1.1712,-1.1444,-1.196,-1.2397,-1.2755,-1.3236,-1.3655,-1.4073,-1.5393,-1.5902,-1.6036,-1.7015,-1.7637,-1.7988,-1.8008,-1.7398,-1.6636,-1.6636,-1.5367,-1.3781,-1.3745,-1.3098,-1.2335,-1.2305,-1.2549,-1.2703,-1.2378,-1.2556,-1.2697,-1.2371,-1.2305,-1.2305,-1.2305,-1.2563,-1.277,-1.277,-1.2979,-1.32,-1.32,-1.3186,-1.318,-1.318,-1.318,-1.318,-1.318,-1.3186,-1.32,-1.32,-1.32,-1.3213,-1.3213,-1.3213,-1.3213,-1.3213,-1.32,-1.32,-1.32,-1.3427,-1.3447,-1.3213,-1.3447,-1.3586,-1.3586,-1.36,-1.3753,-1.4075,-1.4075,-1.4075,0.0,0.0,-2.6091,-2.7273,0.0,0.0,0.0,0.0,0.0,0.0,0.0,0.0,0.0,0.0,0.0,0.0,0.0,0.0,0.0,0.0,0.0,0.0,0.0,0.0,0.0,0.0,0.0,0.0,-2.0116,0.0,-1.9904,-1.8217,-1.6813,-1.5826,-1.4044,-1.2835,-1.2305,-1.2305,-1.2445,-1.2769,-1.2445,-1.2333,-1.2353,-1.2041,-1.171,-1.1423,-1.158,-1.1729,-1.1908,-1.2912,-1.34,-1.3702,-1.5626,-1.636,-1.6471,-1.7437,-1.7891,-1.8008,-1.8008,-1.7389,-1.6602,-1.6602,-1.5296,-1.3746,-1.397,-1.3374,-1.2677,-1.2846,-1.2979,-1.3033,-1.2933,-1.2979,-1.3026,-1.2926,-1.2899,-1.2899,-1.2899,-1.2979,-1.3053,-1.3053,-1.3293,-1.3453,-1.3453,-1.3661,-1.3661,-1.3267,-1.3213,-1.3213,-1.3213,-1.3333,-1.3453,-1.3453,-1.3674,-1.3794,-1.3794,-1.3794,-1.3707,-1.3467,-1.3453,-1.3453,-1.3453,-1.3553,-1.3646,-1.3788,-1.3888,-1.3935,-1.3935,-1.3935,-1.3988,-1.4088,-1.4088,-1.4088,-2.5141,-2.5026,0.0,-2.6172,-2.6238,0.0,-2.675,0.0,-2.806,0.0,0.0,0.0,0.0,0.0,0.0,0.0,0.0,0.0,0.0,-2.6961,0.0,0.0,0.0,0.0,0.0,0.0,-2.2298,-2.1165,-2.0641,-2.012,0.0,-1.7873,-1.6462,-1.5495,-1.3732,-1.2643,-1.2305,-1.2305,-1.2305,-1.2305,-1.2305,-1.2204,-1.2024,-1.2024,-1.1917,-1.1695,-1.163,-1.1643,-1.1779,-1.2487,-1.2876,-1.3134,-1.5275,-1.6105,-1.6254,-1.7545,-1.8008,-1.7959,-1.7726,-1.7038,-1.6227,-1.5963,-1.482,-1.355,-1.3796,-1.3407,-1.2991,-1.3153,-1.3287,-1.33,-1.3233,-1.3287,-1.334,-1.3233,-1.3213,-1.3213,-1.3213,-1.3287,-1.3327,-1.3327,-1.356,-1.376,-1.376,-1.3961,-1.3961,-1.3581,-1.352,-1.352,-1.352,-1.3687,-1.376,-1.376,-1.3975,-1.4088,-1.4088,-1.4088,-1.4008,-1.3773,-1.376,-1.376,-1.376,-1.376,-1.3895,-1.4082,-1.4088,-1.4088,-1.4088,-1.4088,-1.4088,-1.4088,-1.4088,-1.4088]},{"header":{"parameterUnit":"m.s-1","parameterCategory":1,"la1":30.6,"la2":29.2853,"lo1":-89.7004,"lo2":-87.6739,"dy":0.0162,"dx":0.0183,"nx":112,"ny":82,"refTime":"2026-04-14T00:00:00:Z","depth":0,"parameterNumber":3,"parameterNumberName":"V-component_of_WINDS"},"data":[0.0,0.0,0.0,0.0,0.0,0.0,0.0,0.0,0.0,0.0,0.0,0.0,0.0,0.0,0.0,0.0,0.0,0.0,0.0,0.0,0.0,0.0,0.0,0.0,0.0,0.0,0.0,0.0,0.0,0.0,0.0,0.0,0.0,0.0,0.0,0.0,0.0,0.0,0.0,0.0,0.0,0.0,0.0,0.0,0.0,0.0,0.0,0.0,0.0,0.0,0.0,0.0,0.0,0.0,0.0,0.0,0.0,0.0,0.0,0.0,0.0,0.0,0.0,0.0,0.0,0.0,0.0,0.0,0.0,0.0,0.0,0.0,0.0,0.0,0.0,0.0,0.0,0.0,0.0,0.0,0.0,0.0,0.0,0.0,0.0,0.0,0.0,0.0,0.0,0.0,1.0566,0.8297,0.5719,0.3714,0.2444,-0.148,-0.4275,-0.5232,0.0,0.0,0.0,0.0,0.0,0.0,0.0,0.0,0.0,0.0,0.0,0.0,0.0,0.0,0.0,0.0,0.0,0.0,0.0,0.0,0.0,0.0,0.0,0.0,0.0,0.0,0.0,0.0,0.0,0.0,0.0,0.0,0.0,0.0,0.0,0.0,0.0,0.0,0.0,0.0,0.0,0.0,0.0,0.0,0.0,0.0,0.0,0.0,0.0,0.0,0.0,0.0,0.0,0.0,0.0,0.0,0.0,0.0,0.0,0.0,0.0,0.0,0.0,0.0,0.0,0.0,0.0,0.0,0.0,0.0,0.0,0.0,0.0,0.0,0.0,0.0,0.0,0.0,0.0,0.0,0.0,0.0,0.0,0.0,0.0,0.0,0.0,0.0,0.0,0.0,0.0,0.0,0.0,0.0,0.0,0.0,0.0,0.0,0.0,0.0,0.0,0.0,0.0,0.0,1.0423,0.844,0.5813,0.4085,0.3873,0.0052,-0.3136,-0.4989,0.0,0.0,0.0,0.0,0.0,0.0,0.0,0.0,0.0,0.0,0.0,0.0,0.0,0.0,0.0,0.0,0.0,0.0,0.0,0.0,0.0,0.0,0.0,0.0,0.0,0.0,0.0,0.0,0.0,0.0,0.0,0.0,0.0,0.0,0.0,0.0,0.0,0.0,0.0,0.0,0.0,0.0,0.0,0.0,0.0,0.0,0.0,0.0,0.0,0.0,0.0,0.0,0.0,0.0,0.0,0.0,0.0,0.0,0.0,0.0,0.0,0.0,0.0,0.0,0.0,0.0,0.0,0.0,0.0,0.0,0.0,0.0,0.0,0.0,0.0,0.0,0.0,0.0,0.0,0.0,0.0,0.0,0.0,0.0,0.0,0.0,0.0,0.0,0.0,0.0,0.0,0.0,0.0,0.0,0.0,0.0,0.0,0.0,0.0,0.0,0.0,0.0,0.0,1.0012,0.9523,0.8253,0.6297,0.4821,0.4165,0.0947,-0.1933,-0.4043,-0.6949,0.0,0.0,0.0,0.0,0.0,0.0,0.0,0.0,0.0,0.0,0.0,0.0,0.0,0.0,0.0,0.0,0.0,0.0,0.0,0.0,0.0,0.0,0.0,0.0,0.0,0.0,0.0,0.0,0.0,0.0,0.0,0.0,0.0,0.0,0.0,0.0,0.0,0.0,0.0,0.0,0.0,0.0,0.0,0.0,0.0,0.0,0.0,0.0,0.0,0.0,0.0,0.0,0.0,0.0,0.0,0.0,0.0,0.0,0.0,0.0,0.0,0.0,0.0,0.0,0.0,0.0,0.0,0.0,0.0,0.0,0.0,0.0,0.0,0.0,0.0,0.0,0.0,0.0,0.0,0.0,0.0,0.0,0.0,0.0,0.0,0.0,0.0,0.0,0.0,0.0,0.0,0.0,0.0,0.0,0.0,0.0,0.0,0.0,0.0,0.0,0.0,0.0,1.0071,0.8946,0.8391,0.6794,0.5287,0.4078,0.1714,-0.074,-0.3158,-0.4935,0.0,0.0,0.0,0.0,0.0,0.0,0.0,0.0,0.0,0.0,0.0,0.0,0.0,0.0,0.0,0.0,0.0,0.0,0.0,0.0,0.0,0.0,0.0,0.0,0.0,0.0,0.0,0.0,0.0,0.0,0.0,0.0,0.0,0.0,0.0,0.0,0.0,0.0,0.0,0.0,0.0,0.0,0.0,0.0,0.0,0.0,0.0,0.0,0.0,0.0,0.0,0.0,0.0,0.0,0.0,0.0,0.0,0.0,0.0,0.0,0.0,0.0,0.0,0.0,0.0,0.0,0.0,0.0,0.0,0.0,0.0,0.0,0.0,0.0,0.0,0.0,0.0,0.0,0.0,0.0,0.0,0.0,0.0,0.0,0.0,0.0,0.0,0.0,0.0,0.0,0.0,0.0,0.0,0.0,0.0,0.0,0.0,0.0,0.0,0.0,0.0,0.0,1.0436,0.9262,0.9198,0.7067,0.5131,0.3899,0.2478,0.0272,-0.2915,-0.3271,0.0,0.0,0.0,0.0,0.0,0.0,0.0,0.0,0.0,0.0,0.0,0.0,0.0,0.0,0.0,0.0,0.0,0.0,0.0,0.0,0.0,0.0,0.0,0.0,0.0,0.0,0.0,0.0,0.0,0.0,0.0,0.0,0.0,0.0,0.0,0.0,0.0,0.0,0.0,0.0,0.0,0.0,0.0,0.0,0.0,0.0,0.0,0.0,0.0,0.0,0.0,0.0,0.0,0.0,0.0,0.0,0.0,0.0,0.0,0.0,0.0,0.0,0.0,0.0,0.0,0.0,0.0,0.0,0.0,0.0,0.0,0.0,0.0,0.0,0.0,0.0,0.0,0.0,0.0,0.0,0.0,0.0,0.0,0.0,0.0,0.0,0.0,0.0,0.0,0.0,0.0,0.0,0.0,0.0,0.0,0.0,0.0,0.0,0.0,0.0,0.0,0.0,1.137,1.0607,0.0,0.8402,0.6969,0.4986,0.4214,0.2432,-0.0956,0.0,0.0,0.0,0.0,0.0,0.0,0.0,0.0,0.0,0.0,0.0,0.0,0.0,0.0,0.0,0.0,0.0,0.0,0.0,0.0,0.0,0.0,0.0,0.0,0.0,0.0,0.0,0.0,0.0,0.0,0.0,0.0,0.0,0.0,0.0,0.0,0.0,0.0,0.0,0.0,0.0,0.0,0.0,0.0,0.0,0.0,0.0,0.0,0.0,0.0,0.0,0.0,0.0,0.0,0.0,0.0,0.0,0.0,0.0,0.0,0.0,0.0,0.0,0.0,0.0,0.0,0.0,0.0,0.0,0.0,0.0,0.0,0.0,0.0,0.0,0.0,0.0,0.0,0.0,0.0,0.0,0.0,0.0,0.0,0.0,0.0,0.0,0.0,0.0,0.0,0.0,0.0,0.0,0.0,0.0,0.0,0.0,0.0,0.0,0.0,0.0,0.0,1.1945,1.1881,1.1288,0.0,0.9098,0.7836,0.5434,0.5104,0.3579,0.02,0.0,0.0,0.0,0.0,0.0,0.0,0.0,0.0,0.0,0.0,0.0,0.0,0.0,0.0,0.0,0.0,0.0,0.0,0.0,0.0,0.0,0.0,0.0,0.0,0.0,0.0,0.0,0.0,0.0,0.0,0.0,0.0,0.0,0.0,0.0,0.0,0.0,0.0,0.0,0.0,0.0,0.0,0.0,0.0,0.0,0.0,0.0,0.0,0.0,0.0,0.0,0.0,0.0,0.0,0.0,0.0,0.0,0.0,0.0,0.0,0.0,0.0,0.0,0.0,0.0,0.0,0.0,0.0,0.0,0.0,0.0,0.0,0.0,0.0,0.0,0.0,0.0,0.0,0.0,0.0,0.0,0.0,0.0,0.0,0.0,0.0,0.0,0.0,0.0,0.0,0.0,0.0,0.0,0.0,0.0,0.0,0.0,0.0,0.0,0.0,0.0,0.0,1.2305,1.1835,1.1118,1.0019,0.8891,0.7338,0.5147,0.4964,0.3557,0.0,0.0,0.0,0.0,0.0,0.0,0.0,0.0,0.0,0.0,0.0,0.0,0.0,0.0,0.0,0.0,0.0,0.0,0.0,0.0,0.0,0.0,0.0,0.0,0.0,0.0,0.0,0.0,0.0,0.0,0.0,0.0,0.0,0.0,0.0,0.0,0.0,0.0,0.0,0.0,0.0,0.0,0.0,0.0,0.0,0.0,0.0,0.0,0.0,0.0,0.0,0.0,0.0,0.0,0.0,0.0,0.0,0.0,0.0,0.0,0.0,0.0,0.0,0.0,0.0,0.0,0.0,0.0,0.0,0.0,0.0,0.0,0.0,0.0,0.0,0.0,0.0,0.0,0.0,0.0,0.0,0.0,0.0,0.0,0.0,0.0,0.0,0.0,0.0,0.0,0.0,0.0,0.0,0.0,0.0,0.0,0.0,0.0,0.0,0.0,0.0,0.0,0.0,1.2372,1.3105,1.2982,1.1232,1.0716,0.9878,0.828,0.7982,0.682,0.4385,0.0,0.0,0.0,0.0,0.0,0.0,0.0,0.0,0.0,0.0,0.0,0.0,0.0,0.0,0.0,0.0,0.0,0.0,0.0,0.0,0.0,0.0,0.0,0.0,0.0,0.0,0.0,0.0,0.0,0.0,0.0,0.0,0.0,0.0,0.0,0.0,0.0,0.0,0.0,0.0,0.0,0.0,0.0,0.0,0.0,0.0,0.0,0.0,0.0,0.0,0.0,0.0,0.0,0.0,0.0,0.0,0.0,0.0,0.0,0.0,0.0,0.0,0.0,0.0,0.0,0.0,0.0,0.0,0.0,0.0,0.0,0.0,0.0,0.0,0.0,0.0,0.0,0.0,0.0,0.0,0.0,0.0,0.0,0.0,0.0,0.0,0.0,0.0,0.0,0.0,0.0,0.0,0.0,0.0,0.0,0.0,0.0,0.0,0.0,0.0,0.0,0.0,1.1918,1.2977,1.3091,1.1099,1.0965,1.0577,0.9319,0.907,0.8263,0.6622,0.0,0.0,0.0,0.0,0.0,0.0,0.0,0.0,0.0,0.0,0.0,0.0,0.0,0.0,0.0,0.0,0.0,0.0,0.0,0.0,0.0,0.0,0.0,0.0,0.0,0.0,0.0,0.0,0.0,0.0,0.0,0.0,0.0,0.0,0.0,0.0,0.0,0.0,0.0,0.0,0.0,0.0,0.0,0.0,0.0,0.0,0.0,0.0,0.0,0.0,0.0,0.0,0.0,0.0,0.0,0.0,0.0,0.0,0.0,0.0,0.0,0.0,0.0,0.0,0.0,0.0,0.0,0.0,0.0,0.0,0.0,0.0,0.0,0.0,0.0,0.0,0.0,0.0,0.0,0.0,0.0,0.0,0.0,0.0,0.0,0.0,0.0,0.0,0.0,0.0,0.0,0.0,0.0,0.0,0.0,0.0,0.0,0.0,0.0,0.0,0.0,0.0,1.1212,1.2173,1.2219,1.036,1.0437,1.0192,0.9155,0.9047,0.8576,0.7606,0.0,0.0,0.0,0.0,0.0,0.0,0.0,0.0,0.0,0.0,0.0,0.0,0.0,0.0,0.0,0.0,0.0,0.0,0.0,0.0,0.0,0.0,0.0,0.0,0.0,0.0,0.0,0.0,0.0,0.0,0.0,0.0,0.0,0.0,0.0,0.0,0.0,0.0,0.0,0.0,0.0,0.0,0.0,0.0,0.0,0.0,0.0,0.0,0.0,0.0,0.0,0.0,0.0,0.0,0.0,0.0,0.0,0.0,0.0,0.0,1.7477,0.0,0.0,0.0,0.0,0.0,0.0,0.0,0.0,0.0,0.0,0.0,0.0,0.0,0.0,0.0,0.0,0.0,0.0,0.0,0.0,0.0,0.0,0.0,0.0,0.0,0.0,0.0,0.0,0.0,0.0,0.0,0.0,0.0,0.0,0.0,0.0,0.0,0.0,0.0,0.0,0.0,1.2064,1.3591,1.4073,1.2294,1.2154,1.1943,1.1297,1.0805,1.0242,0.9551,0.9053,0.0,0.0,0.0,0.0,0.0,0.0,0.0,0.0,0.0,0.0,0.0,0.0,0.0,0.0,0.0,0.0,0.0,0.0,0.0,0.0,0.0,0.0,0.0,0.0,0.0,0.0,0.0,0.0,0.0,0.0,0.0,0.0,0.0,0.0,0.0,0.0,0.0,0.0,0.0,0.0,0.0,0.0,0.0,0.0,0.0,0.0,0.0,0.0,0.0,0.0,0.0,0.0,0.0,0.0,0.0,0.0,0.0,0.0,0.0,0.0,1.873,0.0,0.0,0.0,0.0,0.0,0.0,0.0,0.0,0.0,0.0,0.0,0.0,0.0,0.0,0.0,0.0,0.0,0.0,0.0,0.0,0.0,0.0,0.0,0.0,0.0,0.0,0.0,0.0,0.0,0.0,0.0,0.0,0.0,0.0,0.0,0.0,0.0,0.0,0.0,0.0,1.2657,1.3876,1.4287,1.2972,1.2959,1.2925,1.2631,1.2336,1.2007,1.1696,1.1308,0.0,0.0,0.0,0.0,0.0,0.0,0.0,0.0,0.0,0.0,0.0,0.0,0.0,0.0,0.0,0.0,0.0,0.0,0.0,0.0,0.0,0.0,0.0,0.0,0.0,0.0,0.0,0.0,0.0,0.0,0.0,0.0,0.0,0.0,0.0,0.0,0.0,0.0,0.0,0.0,0.0,0.0,0.0,0.0,0.0,0.0,0.0,0.0,0.0,0.0,0.0,0.0,0.0,2.8345,2.8669,2.8686,2.9068,2.8987,2.8297,2.39,2.2074,2.2026,1.9805,0.0,0.0,0.0,0.0,0.0,0.0,0.0,0.0,0.0,0.0,0.0,0.0,0.0,0.0,0.0,0.0,0.0,0.0,0.0,0.0,0.0,0.0,0.0,0.0,2.2259,2.0962,0.0,0.0,0.0,0.0,0.0,0.0,0.0,0.0,0.0,0.0,0.0,0.0,1.3213,1.4016,1.4234,1.3304,1.3428,1.3502,1.341,1.3353,1.3345,1.341,1.3145,1.2373,0.0,0.0,0.0,0.0,0.0,0.0,0.0,0.0,0.0,0.0,0.0,0.0,0.0,0.0,0.0,0.0,0.0,0.0,0.0,0.0,0.0,0.0,0.0,0.0,0.0,0.0,0.0,0.0,0.0,0.0,0.0,0.0,2.9283,2.8484,0.0,0.0,0.0,0.0,0.0,0.0,0.0,0.0,0.0,0.0,0.0,0.0,0.0,2.7476,2.7878,2.8873,2.9385,2.9498,3.0924,3.141,3.0964,3.1038,3.0778,3.0165,2.8037,0.0,2.6376,2.4991,0.0,0.0,0.0,0.0,0.0,0.0,0.0,0.0,0.0,0.0,0.0,0.0,0.0,0.0,0.0,0.0,0.0,0.0,0.0,0.0,0.0,0.0,2.3928,2.4366,2.4062,2.3186,0.0,1.928,1.7656,1.7832,1.6482,0.0,0.0,0.0,0.0,0.0,0.0,0.0,1.4115,1.5284,1.5642,1.4204,1.407,1.3904,1.3449,1.3194,1.3153,1.3394,1.3145,1.2917,1.2696,1.127,0.0,0.0,0.0,0.0,0.0,0.0,0.0,0.0,0.0,0.0,0.0,0.0,0.0,0.0,0.0,0.0,0.0,0.0,0.0,0.0,0.0,0.0,0.0,0.0,0.0,0.0,0.0,0.0,0.0,3.0296,3.0003,2.9463,2.9424,2.9097,0.0,0.0,0.0,0.0,0.0,0.0,0.0,0.0,0.0,2.8691,2.9291,2.9731,2.9959,3.0443,3.0851,3.1171,3.188,3.2089,3.1851,3.1851,3.1562,3.0994,3.0264,2.9659,2.9003,2.6925,2.5622,2.4835,0.0,0.0,0.0,0.0,2.2182,2.2088,2.2088,2.2088,0.0,2.1658,0.0,0.0,0.0,0.0,0.0,0.0,0.0,0.0,0.0,0.0,2.5694,2.5957,2.5328,2.4463,2.3816,2.2244,2.0628,0.0,1.8486,1.7399,1.6367,0.0,0.0,0.0,0.0,1.5963,1.6089,1.6705,1.6687,1.5613,1.5497,1.5215,1.4569,1.4432,1.4405,1.4517,1.4423,1.4154,1.3696,1.2976,1.1943,0.0,0.0,0.0,0.0,0.0,0.0,0.0,0.0,0.0,0.0,0.0,0.0,0.0,0.0,0.0,0.0,0.0,0.0,0.0,0.0,0.0,0.0,0.0,0.0,0.0,0.0,0.0,0.0,3.1464,3.1078,3.0442,3.0652,3.04,0.0,0.0,0.0,0.0,0.0,0.0,2.8908,2.9761,3.0253,3.0398,3.1174,3.1675,3.1813,3.1813,3.1951,3.2215,3.2215,3.2139,3.2001,3.1863,3.1574,3.1185,3.1047,3.0758,3.0263,2.836,2.7157,2.6533,2.6151,2.5619,2.5032,2.4624,2.4405,2.4289,2.4289,2.4289,2.4255,2.4143,2.4186,2.4094,2.3173,0.0,0.0,0.0,0.0,2.6359,2.5871,2.614,2.6627,2.6774,2.5964,2.5191,2.5191,2.4259,2.2867,0.0,2.0079,1.9314,1.8034,0.0,0.0,0.0,0.0,1.7153,1.7539,1.7759,1.7605,1.6866,1.6793,1.6482,1.5748,1.569,1.569,1.569,1.569,1.5507,1.5099,1.4689,1.3883,1.2651,0.0,0.0,0.0,0.0,0.0,0.0,0.0,0.0,0.0,0.0,0.0,0.0,0.0,0.0,0.0,0.0,0.0,0.0,0.0,0.0,0.0,0.0,0.0,0.0,0.0,0.0,0.0,0.0,0.0,3.3021,3.281,0.0,0.0,0.0,0.0,3.1128,3.1173,3.1198,3.121,3.1304,3.1542,3.2068,3.2123,3.2441,3.3023,3.2993,3.2729,3.2215,3.2215,3.1938,3.1411,3.0922,3.0683,3.062,3.0093,2.9867,2.9867,3.0238,2.9761,2.8724,2.87,2.8075,2.7162,2.7137,2.6799,2.6349,2.6349,2.6349,2.6461,2.7211,2.7675,2.7814,2.7122,2.6944,0.0,0.0,2.6471,2.6952,2.6925,2.6558,2.6234,2.6235,2.5796,2.5384,2.5384,2.4833,2.3892,0.0,2.1743,2.0958,1.969,0.0,1.8355,1.7649,1.814,1.8355,1.7688,1.8205,1.8367,1.7633,1.755,1.7257,1.651,1.6436,1.6436,1.6436,1.6436,1.6736,1.7401,1.603,1.5216,1.5119,1.3691,0.0,0.0,0.0,0.0,0.0,0.0,0.0,0.0,0.0,0.0,0.0,0.0,0.0,0.0,0.0,0.0,0.0,0.0,0.0,0.0,0.0,0.0,0.0,0.0,0.0,0.0,0.0,0.0,3.584,3.6396,0.0,3.5627,3.5165,3.4831,3.462,3.462,3.4313,3.3567,3.3526,3.3312,3.2797,3.2767,3.2692,3.2516,3.2516,3.2548,3.26,3.26,3.2607,3.2673,3.2473,3.2217,3.1893,3.168,3.1586,3.1573,3.1339,3.0535,2.9415,2.8687,2.816,2.772,2.7052,2.6663,2.6555,2.7095,2.7263,2.7417,2.8279,2.8369,2.8072,2.7416,2.7576,2.7725,2.6519,2.6985,2.7739,2.7315,2.706,2.6945,2.7074,2.6601,2.5982,2.5556,2.4904,2.4012,2.275,2.2338,2.2072,2.1602,2.1037,2.0555,2.028,2.013,1.9965,1.9684,1.9503,1.9123,1.8394,1.8313,1.8004,1.7274,1.7202,1.7006,1.6521,1.695,1.7107,1.6894,1.6834,1.6785,1.6785,1.6239,1.5955,0.0,0.0,0.0,0.0,0.0,0.0,0.0,0.0,0.0,0.0,0.0,0.0,0.0,0.0,0.0,0.0,0.0,0.0,0.0,0.0,0.0,0.0,0.0,0.0,0.0,0.0,3.8131,3.7605,3.838,3.8643,3.7755,3.7658,3.7408,3.6718,3.6676,3.6221,3.5251,3.521,3.4897,3.4178,3.3634,3.3309,3.3238,3.269,3.2602,3.3016,3.3016,3.3049,3.3128,3.3128,3.2944,3.2593,3.2351,3.2254,3.2213,3.1536,3.0779,2.9949,2.8946,2.8416,2.8125,2.7132,2.665,2.6624,2.7417,2.8084,2.8657,2.8986,2.9036,2.8823,2.794,2.8051,2.8226,2.6999,2.7321,2.795,2.7513,2.7397,2.7369,2.728,2.6904,2.6356,2.5685,2.4977,2.4226,2.3429,2.2723,2.2258,2.2286,2.1794,2.1472,2.1673,2.1366,2.1088,2.1088,2.0534,1.9965,1.9477,1.9216,1.8768,1.8031,1.7977,1.7759,1.7274,1.7715,1.7841,1.7633,1.7841,1.7977,1.7977,1.7954,1.7943,1.7931,0.0,0.0,0.0,0.0,0.0,0.0,0.0,0.0,0.0,0.0,0.0,0.0,0.0,0.0,0.0,0.0,0.0,0.0,0.0,0.0,0.0,0.0,0.0,3.7421,3.8325,3.8894,3.8394,3.8825,3.8921,3.8408,3.8338,3.8033,3.7382,3.7326,3.6995,3.6279,3.6237,3.6237,3.617,3.4673,3.4298,3.5209,3.3617,3.3028,3.3404,3.339,3.3123,3.2713,3.2664,3.2664,3.2609,3.1958,3.1695,3.1626,3.0917,3.0669,3.0568,2.9726,2.9069,2.8452,2.7653,2.7044,2.6714,2.7517,2.8894,3.0199,2.9549,2.984,3.0238,2.8981,2.8607,2.8457,2.7794,2.76,2.76,2.76,2.7585,2.7405,2.6761,2.6572,2.6378,2.5719,2.5053,2.459,2.4575,2.2989,2.1671,2.1736,2.1269,2.1102,2.1687,2.1744,0.0,2.172,2.121,2.082,2.082,2.0245,1.9579,1.8835,1.8794,1.8782,1.8756,1.8782,1.9111,1.9798,1.9164,1.8794,1.8794,1.8725,1.8689,1.8663,0.0,0.0,0.0,0.0,0.0,0.0,0.0,0.0,0.0,0.0,0.0,0.0,0.0,0.0,0.0,0.0,0.0,0.0,0.0,0.0,0.0,3.9136,3.9974,3.9182,4.0481,4.14,4.1263,4.1766,4.2034,4.1913,4.1513,4.0969,4.0285,3.98,3.8903,3.7462,3.7343,3.6785,3.5604,3.5114,3.4569,3.3941,3.3465,3.3449,3.3823,3.3141,3.3494,3.4673,3.3959,3.3734,3.3958,3.3783,3.3413,3.293,3.2255,3.1991,3.1822,3.028,2.9576,2.9386,2.8768,2.8821,2.9286,2.9504,2.9952,3.0405,3.0242,3.0026,2.9684,2.8846,2.8607,2.8457,2.7794,2.76,2.76,2.76,2.724,2.6836,2.6632,2.6228,2.5689,2.5023,2.4724,2.4455,2.3984,2.3091,2.2535,2.2987,2.2935,2.2891,2.3047,2.2725,0.0,2.2429,2.1866,2.1448,2.1448,2.128,2.1097,2.0875,2.0875,2.0641,2.0116,2.0578,2.0715,2.0391,2.069,2.0875,2.0875,2.0862,2.0588,0.0,0.0,0.0,0.0,0.0,0.0,0.0,0.0,0.0,0.0,0.0,0.0,0.0,0.0,0.0,0.0,0.0,0.0,0.0,0.0,0.0,0.0,4.0508,4.1429,4.1287,4.2139,4.2776,4.2776,4.3105,4.329,4.329,4.2746,4.2126,4.1467,4.0771,3.9839,3.8538,3.8472,3.7891,3.6619,3.5925,3.5317,3.4696,3.4023,3.3992,3.461,3.409,3.4263,3.507,3.4493,3.4156,3.4084,3.3769,3.344,3.3036,3.2348,3.2064,0.0,0.0,0.0,0.0,0.0,2.938,2.9865,2.9865,3.0001,3.0073,2.9804,2.946,2.9041,2.8368,2.8173,2.8109,2.7705,2.76,2.754,2.7255,2.6896,2.6452,2.5899,2.5457,2.4993,2.4321,2.4171,2.4066,2.3684,2.3334,0.0,2.353,2.3399,2.3312,2.3551,2.3312,2.3076,2.3076,2.2529,2.2123,2.2123,2.1875,2.1697,2.1697,2.1697,0.0,0.0,0.0,2.1503,2.1078,2.1479,0.0,0.0,0.0,0.0,0.0,0.0,0.0,0.0,2.1008,2.1064,0.0,0.0,0.0,0.0,0.0,0.0,0.0,0.0,0.0,0.0,0.0,0.0,0.0,0.0,0.0,0.0,4.1533,4.2671,4.32,4.329,4.329,4.329,4.329,4.326,4.32,4.2641,4.2021,4.1324,4.0666,4.0038,3.9418,0.0,0.0,0.0,0.0,3.6151,3.6387,3.4902,3.461,3.5504,3.5392,3.5034,3.4503,3.4377,3.3974,3.335,3.2766,3.2452,3.2333,3.175,3.1511,3.1438,3.0703,3.0419,3.0315,2.9482,2.9268,2.9435,2.9363,0.0,0.0,2.8786,2.8547,2.8368,2.7779,2.76,2.76,2.76,2.76,2.745,2.6752,2.6576,2.6249,2.498,2.4664,2.4505,2.3909,2.3773,2.3773,2.3773,2.3773,2.3773,2.3773,2.3231,2.2965,2.3508,2.3595,2.3595,2.3595,2.312,2.2785,2.2785,0.0,0.0,2.1908,2.1908,2.1908,2.1908,2.1908,2.1932,2.1988,2.2011,2.2035,2.209,2.315,2.3704,2.3704,2.4721,2.5202,2.5147,2.3062,2.2669,0.0,0.0,0.0,0.0,0.0,0.0,0.0,0.0,0.0,0.0,0.0,0.0,0.0,0.0,0.0,4.1739,4.2598,4.3155,4.3275,4.329,4.329,4.329,4.329,4.3135,4.2635,4.1991,4.1332,4.0636,3.9978,3.9559,3.9388,3.8901,3.8287,3.7614,3.6801,3.616,3.5699,3.5386,3.5326,3.5504,0.0,0.0,3.4472,3.3706,3.314,3.2706,3.2572,3.2183,3.169,3.1555,3.1511,3.1467,3.1322,3.1278,3.1174,3.0467,3.023,3.0193,2.9703,2.9217,2.8771,2.8637,2.8218,2.7764,2.7645,2.76,0.0,2.76,2.76,2.745,2.6752,2.6524,2.6243,2.5444,2.5155,2.5049,2.4906,2.4891,2.4891,2.4891,2.4891,2.4891,2.4891,2.408,2.3465,2.3573,2.3595,2.3595,2.3595,2.3508,2.3421,2.3421,2.3319,2.3238,2.3238,2.3238,2.3238,2.3238,2.3238,2.3442,2.3846,2.3867,2.4081,2.4514,2.4745,2.4859,2.4859,2.5089,2.5202,2.5202,2.4745,2.4649,0.0,0.0,0.0,0.0,0.0,0.0,0.0,0.0,0.0,0.0,0.0,4.0068,4.093,0.0,4.1868,4.2712,4.312,4.329,4.329,4.3045,4.297,4.3245,4.3045,4.2716,4.2425,4.1512,4.0756,4.0427,3.9783,3.9388,3.9388,3.8766,3.8078,3.7434,3.6806,3.6178,3.5519,3.5504,3.5504,3.5504,3.4646,3.4162,3.3978,3.3153,3.2505,3.1989,3.1989,3.1615,3.0972,3.0687,3.0552,3.0552,3.0552,3.0746,3.0943,3.0627,3.0103,2.9505,2.919,2.8652,2.8109,2.8109,2.7884,2.766,2.7944,2.8042,2.8116,2.8424,2.8496,2.8248,2.7225,2.6898,2.6598,2.5559,2.5243,2.5202,2.5202,2.5202,2.5202,2.5202,2.5202,2.5202,2.5202,2.4772,2.441,2.441,2.4163,2.3991,2.3991,2.3773,2.3595,2.3595,2.3595,2.3595,2.3595,2.3858,2.4116,2.4389,2.441,2.4532,2.4776,2.4796,2.493,2.5202,2.5449,2.5596,2.5596,2.5854,2.5946,2.5946,2.5946,2.5819,0.0,0.0,0.0,0.0,0.0,0.0,0.0,0.0,4.2793,4.2009,4.1806,4.1923,4.25,4.259,4.2716,4.32,4.329,4.329,4.329,4.2776,4.259,4.309,4.2566,4.2156,4.2036,4.1025,4.0352,4.0217,3.9723,3.9328,3.923,3.8571,3.7898,3.7255,3.6626,3.6043,3.5504,3.5504,3.5504,3.5489,3.4801,3.4159,3.3469,3.2811,3.2123,3.1511,3.1511,3.1182,3.0657,3.0028,2.9759,2.9744,2.9651,2.9804,3.0133,3.0133,2.9475,2.8577,2.8442,2.8064,2.76,2.76,2.7685,2.786,2.8343,2.8583,2.8779,2.9248,2.931,2.891,2.763,2.7261,2.6909,2.5641,2.543,2.5505,2.5505,2.5505,2.5505,2.5505,2.5505,2.5505,2.5505,2.5505,2.543,2.524,2.4831,2.4552,2.4552,2.4178,2.3921,2.3921,2.3921,2.3921,2.3921,2.4307,2.4736,2.5182,2.5202,2.524,2.5354,2.5354,2.5392,2.5486,2.5924,2.6138,2.6138,2.6521,2.6691,2.6691,2.6691,2.6504,4.3327,4.2975,4.2991,4.3104,4.3585,4.4082,0.0,0.0,4.3671,4.3561,4.3312,4.3095,4.317,4.3185,4.32,4.329,4.329,4.329,4.329,4.2776,4.2425,4.25,4.1931,4.1265,4.0681,4.0487,4.0157,3.9574,3.9454,3.9155,3.8542,3.7883,3.7225,3.6611,3.5953,3.5579,3.5504,3.5504,3.5504,3.5489,3.4801,3.4159,3.3469,3.2811,3.2123,3.1511,3.1511,3.1466,3.1331,3.0687,3.0402,3.0342,2.9804,2.9265,2.8816,2.8816,2.8727,2.8502,2.7929,2.766,2.76,2.76,2.7944,2.8415,2.8463,2.8873,2.9316,2.9384,2.892,2.8249,2.7502,2.7134,2.6779,2.6085,2.6228,2.6522,2.6522,2.6522,2.6522,2.6522,2.6522,2.6522,2.6522,2.6522,2.6245,2.5319,2.5163,2.5125,2.5125,2.5067,2.5028,2.5028,2.5028,2.5028,2.5028,2.5086,2.5144,2.5202,2.5202,2.5411,2.5888,2.5906,2.6104,2.6522,2.659,2.6624,2.6624,2.6674,2.6691,2.6691,2.6691,2.6674,4.4634,4.4622,4.4837,4.5682,4.6129,4.6317,4.6225,4.6083,4.5706,4.4606,4.4272,4.3989,4.3409,4.329,4.329,0.0,4.329,4.329,4.329,4.2447,4.1826,4.1826,4.0876,4.0277,4.0382,4.0053,3.9709,3.9403,3.9388,3.9125,3.8422,3.7764,3.712,3.6507,3.5848,3.5504,3.5504,3.5504,3.5295,3.4906,3.4218,3.3559,3.2901,3.2213,3.1765,3.1481,3.1077,3.0731,3.0342,2.9669,2.916,2.8824,2.8926,2.8778,2.8555,2.8572,2.8353,2.7989,2.7705,2.7835,2.8116,2.8116,2.8519,2.9088,2.9451,2.9717,2.9995,3.0351,2.9922,2.9178,2.847,2.7854,2.7252,2.6569,2.6573,2.6691,2.6691,2.6691,2.6691,2.6691,2.6691,2.6691,2.6691,2.6691,2.6556,2.6141,2.5854,2.567,2.567,2.5392,2.5202,2.5202,2.5202,2.5316,2.5633,2.567,2.5781,2.6052,2.607,2.6158,2.6401,2.6401,2.6487,2.6691,2.6691,2.6691,2.6691,2.6691,2.6691,2.6691,2.6691,2.6691,4.5169,4.5676,4.6312,4.7567,4.8041,4.8158,4.8028,4.7803,4.7205,4.585,4.5153,4.4586,4.3849,4.3472,4.329,4.329,4.329,4.329,4.329,4.2207,4.1422,4.1422,4.0217,3.9604,4.0083,3.9694,3.9388,3.9388,3.9388,3.9035,3.8167,3.7659,3.7045,3.6237,3.5744,3.5504,3.5504,3.531,3.4966,3.4503,3.3619,3.2976,3.2482,3.2027,3.1697,3.1481,3.1212,3.0611,2.9816,2.9328,2.8727,2.8152,2.8573,2.8756,2.8748,2.879,2.8519,2.81,2.81,2.8376,2.8756,2.8756,2.9157,2.9739,3.0166,3.0265,3.0338,3.0771,3.0209,2.9347,2.8805,2.8095,2.735,2.6826,2.6691,2.6691,2.6691,2.6691,2.6691,2.6691,2.6691,2.6691,2.6691,2.6691,2.6691,2.6691,2.6401,2.6191,2.6191,2.5854,2.5617,2.5617,2.5617,2.5764,2.6157,2.6191,2.6332,2.6674,2.6691,2.6691,2.6691,2.6691,2.6691,2.6691,2.6691,2.6691,2.6691,2.6691,2.6691,2.6691,2.6691,2.6758,4.4422,4.5581,4.6955,4.7733,4.8443,4.8984,4.897,4.8257,4.7589,4.7523,4.6064,4.4774,4.4774,4.3966,4.329,4.329,4.329,4.329,4.329,4.2207,4.1422,4.1422,4.0217,3.9388,0.0,3.9388,3.9388,3.9388,3.9388,3.8805,3.7509,3.7419,3.6836,3.5579,3.5519,3.5504,3.5504,3.4846,3.4533,3.4488,3.3155,3.2512,3.2497,3.255,3.2176,3.1524,3.2228,3.1732,3.0473,3.0466,3.0047,2.9425,2.9404,2.9361,2.9361,2.9355,2.9355,2.9339,2.9339,2.9361,2.9361,2.9361,2.9783,3.0272,3.0293,3.0216,3.0104,3.0123,2.9041,2.7874,2.7841,2.73,2.6725,2.6725,2.6691,2.6691,2.6691,2.6691,2.6691,2.6691,2.6691,2.6691,2.6691,2.6691,2.6691,2.6691,2.6691,2.6674,2.6674,2.6674,2.6657,2.6657,2.6657,2.6657,2.6674,2.6674,2.6691,2.6691,2.6691,2.6691,2.6691,2.6691,2.6691,2.6691,2.6691,2.6691,2.6691,2.6691,2.6691,2.6691,2.6691,2.6906,4.3927,4.4935,4.5864,4.6599,4.7408,4.808,4.808,4.8306,4.8187,4.7094,4.6386,4.5408,4.3707,4.3488,4.3373,4.2803,4.3045,4.329,4.329,4.2581,4.1916,4.1467,4.0606,0.0,0.0,0.0,0.0,3.9388,3.899,3.8347,3.7464,3.7476,3.7131,3.6243,3.6738,3.6776,3.6293,3.6072,3.5231,3.3825,3.2982,3.2553,3.2581,3.3043,3.2867,3.218,3.2441,3.1728,3.0429,3.0431,3.0046,2.9467,2.9858,2.9995,3.0059,3.0456,3.058,3.0477,2.9673,2.9651,2.9995,2.9995,3.0414,3.0898,3.0898,3.053,3.0108,3.0108,2.899,2.7807,2.7807,2.7249,2.6691,2.6691,2.6691,2.6691,2.6691,2.6691,2.6691,2.6691,2.6691,2.6691,2.6691,2.6691,2.6691,2.6691,2.6691,2.6691,2.6691,2.6691,2.6691,2.6691,2.6691,2.6691,2.6691,2.6691,2.6691,2.6691,2.6691,2.6691,2.6691,2.6691,2.6691,2.6691,2.6971,2.6971,2.6691,2.7241,2.7348,2.7099,2.7363,2.756,4.2934,4.3591,4.4116,4.525,4.601,4.6668,4.7423,4.808,4.8201,4.7213,4.6744,4.5832,4.3602,4.3287,4.3144,4.2505,4.2716,4.306,4.326,4.2776,4.2156,4.1497,4.0801,4.0142,0.0,0.0,0.0,3.9065,3.8631,3.8127,3.7498,3.7566,3.7437,3.7055,3.7261,3.7185,3.6694,3.6182,3.5133,3.3517,3.3137,3.296,3.2986,3.3659,3.3425,3.2508,3.2756,3.1927,3.0416,3.0631,3.0341,2.9783,3.0393,3.0617,3.0679,3.1055,3.119,3.1075,3.0314,3.0293,3.0617,3.0617,3.0878,3.119,3.119,3.0497,2.9702,2.9702,2.8602,2.7401,2.7401,2.7063,2.6691,2.6691,2.6691,2.6691,2.6691,2.6691,2.6691,2.6691,2.6691,2.6691,2.6691,2.6691,2.6691,2.6691,2.6691,2.6691,2.6691,2.6691,2.6691,2.6691,2.6691,2.6691,2.6691,2.6691,2.6691,2.6691,2.6691,2.6691,2.6691,2.6691,2.6775,2.6906,2.7178,2.7239,2.7131,2.7648,2.7768,2.7515,2.7783,2.795,4.1492,4.1692,4.1944,4.3738,4.4275,4.4846,4.6872,4.739,4.7506,4.7614,4.6978,4.5898,4.4293,4.3324,4.2694,4.2461,4.2449,4.2626,4.32,4.2806,4.2186,0.0,0.0,0.0,0.0,0.0,0.0,3.8517,0.0,3.8179,3.7636,3.7654,3.7729,3.7867,3.7174,3.679,3.6758,3.5321,3.4264,3.3659,3.3659,3.3659,3.3659,3.4333,3.3876,3.2584,3.3246,3.2383,3.0491,3.1105,3.0952,3.0414,3.0975,3.119,3.119,3.119,3.119,3.119,3.119,3.119,3.119,3.119,3.119,3.119,3.119,3.0211,2.9044,2.901,2.7927,2.6742,2.6708,2.6691,2.6691,2.6691,2.6691,2.6708,2.6725,2.6725,2.6725,2.6725,2.6708,2.6691,2.6691,2.6691,2.6691,2.6691,2.6691,2.6691,2.6691,2.6691,2.6691,2.6691,2.6691,2.6691,2.6691,2.6691,2.6691,2.6691,2.6691,2.6708,2.6725,2.6725,2.6923,2.7317,2.7348,2.753,2.7897,2.794,2.7954,2.7926,2.7954,2.8116,3.981,3.9998,4.0463,4.0914,4.2203,4.3356,4.3438,4.4646,4.553,4.4513,4.4636,4.4423,4.2832,4.3156,4.3453,4.2746,4.2879,0.0,4.3275,4.3155,0.0,4.2414,0.0,4.1225,4.1339,4.0758,0.0,0.0,3.8924,3.8275,3.7637,3.823,3.8576,3.8608,3.8486,3.8145,3.7611,3.5597,3.4513,3.4358,3.4358,3.4358,3.4358,3.5052,3.4544,3.3223,3.3934,3.3007,3.1037,3.1771,3.1631,3.0995,3.1151,3.119,3.119,3.119,3.119,3.119,3.119,3.119,3.119,3.119,3.119,3.119,3.119,3.0548,2.9702,2.9162,2.8281,2.7384,2.6843,2.6691,2.6691,2.6691,2.6691,2.6791,2.7083,2.7147,2.7147,2.7147,2.6906,2.6691,2.6691,2.6691,2.6691,2.6691,2.6691,2.6691,2.6691,2.6691,2.6691,2.6691,2.6691,2.6691,2.6691,2.6691,2.6691,2.6691,2.6691,2.6824,2.7131,2.7147,2.735,2.7754,2.7988,2.8061,2.7897,2.8456,2.857,2.829,2.8583,2.8767,3.8803,3.8483,3.8482,3.9006,3.9797,4.0759,4.1754,4.2738,4.3357,4.3163,4.3476,4.3442,4.2222,4.2893,4.3423,0.0,0.0,0.0,4.3324,4.329,4.3171,0.0,4.2276,0.0,4.1996,4.0946,4.0139,0.0,3.947,3.8873,3.8207,3.8637,3.891,3.8944,3.8672,3.799,3.6884,3.5666,3.5052,3.5052,3.5052,3.5052,3.5052,3.5447,3.4957,3.3897,0.0,3.3119,3.1701,3.1785,3.1582,3.119,3.119,3.119,3.119,3.119,3.119,3.119,3.119,3.119,3.119,3.119,3.119,3.119,3.119,3.0683,3.0004,2.96,2.867,2.7758,2.752,2.7212,2.7003,2.7194,2.7225,2.7303,2.7515,2.756,2.756,2.756,2.7378,2.7178,2.6987,2.6954,2.6906,2.6725,2.6691,2.6758,2.6939,2.6808,2.6691,2.6691,2.6691,2.6691,2.6691,2.6691,2.6775,2.6955,2.6954,2.7147,2.7562,2.756,2.7736,2.8116,2.8298,2.8394,2.8373,2.8791,2.8875,2.867,2.8887,2.9005,3.8111,3.715,3.6602,3.7541,3.7543,3.8006,4.0712,4.0997,4.1053,4.2356,4.2598,4.244,4.19,4.2427,4.2861,4.2714,0.0,4.3523,4.3343,4.329,4.3195,4.2922,4.2767,4.2629,4.2366,4.0943,4.0071,4.0206,4.0137,3.9726,3.8947,3.8989,3.9002,3.8845,3.8142,3.7077,3.5616,3.56,3.56,3.56,3.56,3.56,3.56,3.56,3.5199,3.4455,3.3931,3.322,3.2412,3.1749,3.1427,3.1345,3.1241,3.119,3.119,3.119,3.119,3.119,3.119,3.119,3.119,3.119,3.119,3.119,3.119,3.0751,3.0243,3.0123,2.918,2.8219,2.8352,2.7976,2.7592,2.7844,2.7897,2.7911,2.7968,2.7968,2.7968,2.7968,2.794,2.7797,2.7439,2.7378,2.7272,2.6906,2.6857,2.6988,2.7332,2.7019,2.6791,2.6857,2.6857,2.6857,2.6857,2.6857,2.7003,2.7348,2.7378,2.756,2.7936,2.7968,2.8129,2.8471,2.8471,2.8658,2.9005,2.9005,2.9005,2.9005,2.9005,2.9005,3.7263,3.6534,3.6339,3.6012,3.6638,3.7411,3.7853,3.7896,0.0,3.9742,3.9895,4.0019,4.0777,4.1489,4.2101,4.2622,4.2672,4.2799,4.324,4.329,4.3411,0.0,4.3126,4.3079,4.4035,4.269,0.0,0.0,4.1322,4.0354,3.8984,3.9516,3.9345,3.8142,3.7364,3.6535,3.56,3.56,3.56,3.56,3.56,3.56,3.56,3.56,3.5199,3.4523,3.5008,0.0,3.3203,3.3068,3.2662,3.2056,3.1427,3.119,3.119,3.119,3.119,3.119,3.119,3.119,3.119,3.119,3.119,3.119,3.119,3.1106,3.0886,3.0277,3.0152,2.992,2.8709,2.8594,2.8647,2.8039,2.7897,2.7982,2.8264,2.8316,2.8316,2.8316,2.8088,2.7883,2.7811,2.7797,2.7783,2.7692,2.7678,2.7725,2.7797,2.7439,2.7317,2.7666,2.7678,2.7678,2.7678,2.7678,2.7725,2.7797,2.7797,2.795,2.8303,2.8316,2.8502,2.8893,2.8905,2.8929,2.9005,2.9005,2.9005,2.9005,2.9005,2.9005,3.7023,3.6405,3.6279,3.5633,3.5714,3.5989,3.6213,0.0,0.0,3.8217,3.8509,3.8771,3.9958,4.105,4.1713,4.1682,4.217,4.2674,4.2809,4.2821,4.2955,4.3271,4.3355,4.3372,4.334,4.2348,4.1704,4.1726,4.0644,3.9874,3.9532,3.9152,3.8447,3.7347,3.6569,3.5994,3.56,3.56,3.56,3.56,3.56,3.56,3.5583,3.5194,3.5047,3.5064,3.4619,0.0,3.3372,3.2983,3.2374,3.1701,3.1326,3.119,3.119,3.119,3.119,3.119,3.119,3.119,3.119,3.119,3.119,3.119,3.119,3.1368,3.1475,3.1079,3.1028,3.0858,2.9889,2.9511,2.9219,2.8611,2.8469,2.8507,2.8688,2.8707,2.8707,2.8707,2.8583,2.8417,2.8197,2.8156,2.8102,2.7926,2.7897,2.795,2.8143,2.7988,2.7876,2.7897,2.7897,2.7897,2.7897,2.7897,2.7964,2.8156,2.8156,2.8316,2.8713,2.8707,2.8797,2.8994,2.9005,2.9005,2.9005,2.9005,2.9005,2.9005,2.9005,2.9005,3.6998,3.6405,3.6254,3.5483,3.4994,3.4793,3.5224,3.4826,3.4938,3.7035,3.7472,3.7771,3.8879,4.0159,4.0928,4.0493,4.134,4.2144,4.2433,4.2301,4.2395,0.0,4.3463,0.0,4.2547,4.1846,0.0,4.1202,3.9773,3.9204,3.9834,3.8464,3.7398,3.6829,3.6028,3.56,3.56,3.56,3.56,3.56,3.543,3.5346,3.5329,3.4607,3.459,3.5059,3.3892,0.0,3.3339,3.2615,3.1955,3.141,3.1258,3.119,3.119,3.119,3.119,3.119,3.119,3.119,3.119,3.119,3.119,3.119,3.119,3.1523,3.1877,3.1807,3.1791,3.162,3.0977,3.0392,2.9826,2.9167,2.9005,2.9005,2.9005,2.9005,2.9005,2.9005,2.9005,2.8905,2.8577,2.854,2.8451,2.8174,2.8134,2.8228,2.8484,2.854,2.8438,2.8161,2.8134,2.8134,2.8134,2.8134,2.8255,2.8515,2.854,2.867,2.8994,2.9005,2.9005,2.9005,2.9005,2.9005,2.9005,2.9005,2.9005,2.9005,2.9005,2.9005,3.6882,3.6405,3.6153,3.5064,3.4718,3.4692,3.4756,0.0,3.3827,3.5934,3.6369,3.6487,3.6973,3.7961,3.8892,3.9412,3.9607,4.0408,4.2402,4.1992,4.2144,4.3944,0.0,0.0,4.3261,4.2618,4.1929,4.1255,3.9834,3.904,3.9089,3.7709,3.688,3.6795,3.6028,3.56,3.56,3.56,3.56,3.5583,3.4928,3.459,3.4573,3.3846,3.3541,3.3588,3.3457,0.0,0.0,3.2615,3.2259,3.2141,3.1464,3.119,3.119,3.119,3.119,3.119,3.119,3.119,3.119,3.119,3.119,3.119,3.119,3.1506,3.1807,3.1807,3.2397,3.2703,3.1192,3.1015,3.0852,2.9372,2.9005,2.9005,2.9005,2.9005,2.9005,2.9005,2.9005,2.8994,2.894,2.894,2.8929,2.8905,2.8905,2.8917,2.894,2.894,2.8929,2.8905,2.8905,2.8905,2.8905,2.8905,2.8917,2.894,2.894,2.8952,2.9005,2.9005,2.9005,2.9005,2.9005,2.9005,2.9005,2.9005,2.9005,2.9005,2.9005,2.9005,3.6697,3.6405,3.6141,3.5002,3.468,3.4514,3.3896,3.3119,3.3093,3.4927,3.5201,3.5356,3.6127,3.7084,3.7898,3.8167,3.8542,3.9403,4.1076,4.0648,4.0821,4.2521,4.2155,0.0,0.0,0.0,4.1153,3.9952,3.892,3.8142,3.7709,3.7134,3.6592,3.6096,3.5752,3.56,3.56,3.56,3.538,3.4928,3.4641,3.4269,3.3812,3.3068,3.2983,3.3389,3.2933,0.0,0.0,3.2429,3.2039,3.1616,3.1309,3.119,3.119,3.119,3.119,3.119,3.119,3.119,3.1249,3.147,3.1547,3.1547,3.1547,3.1861,3.2281,3.2565,3.3087,3.3186,3.1568,3.0557,2.9787,2.9152,2.9005,2.9005,2.9005,2.9005,2.9005,2.9005,2.9005,2.9005,2.9005,2.9005,2.9005,2.9005,2.9005,2.9005,2.9005,2.9005,2.9005,2.9005,2.9005,2.9005,2.9005,2.9005,2.9005,2.9005,2.9005,2.9005,2.9005,2.9005,2.9005,2.9005,2.9005,2.9005,2.9005,2.9005,2.9005,2.9005,2.9005,2.9005,3.6269,3.6119,3.5893,3.4951,3.46,3.4223,3.3294,3.2629,3.2575,3.3949,3.4206,3.4472,3.5266,3.6424,3.7193,3.7127,3.7838,3.8827,4.003,3.9773,4.0043,4.1673,0.0,4.0973,0.0,4.0755,4.0037,3.8768,3.799,3.7246,3.6485,3.6434,3.618,3.5616,3.56,3.56,3.56,3.538,3.5013,3.4489,3.4049,3.3575,3.3051,3.2327,3.2276,3.273,3.2188,0.0,0.0,3.1972,3.1684,3.119,3.119,3.119,3.119,3.119,3.119,3.121,3.1332,3.1389,3.1449,3.1861,3.2021,3.2022,3.2179,3.2433,3.2777,3.3124,3.3148,3.2834,3.169,3.021,2.9005,2.9005,2.9005,2.9005,2.9005,2.9005,2.9005,2.9005,2.9005,2.9005,2.9005,2.9005,2.9005,2.9005,2.9005,2.9005,2.9005,2.9005,2.9005,2.9005,2.9005,2.9005,2.9005,2.9005,2.9005,2.9005,2.9005,2.9005,2.9005,2.9005,2.9005,2.9005,2.9005,2.9005,2.9005,2.9005,2.9005,2.9005,2.9005,2.9005,3.5666,3.5508,3.537,3.4818,3.4311,3.3759,3.3206,3.2629,3.2378,3.2998,3.3475,3.3887,3.4251,3.5667,3.6736,3.6552,3.7554,3.8726,3.9599,3.9632,4.0241,0.0,0.0,4.1061,4.1167,3.9884,3.87,3.7973,3.7212,0.0,3.565,3.5616,3.56,3.56,3.56,3.56,3.56,3.4878,3.4506,3.4472,3.3021,3.2327,3.2293,3.1565,3.1207,3.1207,0.0,0.0,0.0,3.1207,3.1207,3.119,3.119,3.119,3.119,3.119,3.119,3.1269,3.166,3.1789,3.1879,3.235,3.2501,3.2583,3.3045,3.3199,3.3199,3.3199,3.2347,3.1415,3.1397,3.021,2.9005,2.9005,2.9005,2.9005,2.9005,2.9005,2.9005,2.9005,2.9005,2.9005,2.9005,2.9005,2.9005,2.9005,2.9005,2.9005,2.9005,2.9005,2.9005,2.9005,2.9005,2.9005,2.9005,2.9005,2.9005,2.9005,2.9005,2.9005,2.9005,2.9005,2.9005,2.9005,2.9005,2.9005,2.9005,2.9005,2.9005,2.9005,2.9005,2.9005,3.4916,3.4944,3.4806,3.4299,3.4035,3.3646,3.2704,3.234,3.2265,3.2453,3.2813,3.3514,3.4742,3.5263,3.6004,3.755,3.7749,0.0,3.9455,3.965,0.0,4.1245,4.1228,4.0959,0.0,0.0,3.8684,3.7973,3.7212,3.6434,3.5633,3.56,3.56,3.56,3.56,3.5346,3.4844,3.4607,3.3981,3.2987,3.2513,3.2039,3.1529,3.1309,3.119,0.0,0.0,0.0,0.0,3.119,3.119,3.119,3.119,3.119,3.119,3.119,3.119,3.121,3.1351,3.1565,3.1879,3.235,3.2713,3.306,3.3476,3.3422,3.3258,3.3536,3.2535,3.1397,3.1397,3.021,2.9005,2.9005,2.9005,2.9005,2.9005,2.9005,2.9005,2.9005,2.9005,2.9005,2.9005,2.9005,2.9005,2.9005,2.9005,2.9005,2.9005,2.9005,2.9005,2.9005,2.9005,2.9005,2.9005,2.9005,2.9005,2.9005,2.9005,2.9005,2.9005,2.9005,2.9005,2.9005,2.9005,2.9005,2.9005,2.9005,2.9005,2.9005,2.9005,2.9005,3.4261,3.4412,3.4324,3.3985,3.3746,3.3407,3.2704,3.2365,3.2391,3.2998,3.3177,3.3659,3.5248,3.5599,3.599,3.7099,3.736,3.7831,3.9084,0.0,0.0,4.0983,0.0,0.0,0.0,3.9005,3.8278,3.7533,3.6772,3.6129,3.5616,3.56,3.56,3.56,3.5329,3.4962,3.4489,3.3952,3.3224,3.2293,3.2022,3.165,3.119,3.119,3.119,0.0,0.0,3.119,0.0,3.119,3.119,3.119,3.119,3.119,3.119,3.119,3.1291,3.1449,3.162,3.1986,3.24,3.2856,3.3196,3.348,3.3721,3.3638,3.348,3.3734,3.2632,3.1397,3.1397,3.021,2.9005,2.9005,2.9005,2.9005,2.9005,2.9005,2.9005,2.9005,2.9005,2.9005,2.9005,2.9005,2.9005,2.9005,2.9005,2.9005,2.9005,2.9005,2.9005,2.9005,2.9005,2.9005,2.9005,2.9005,2.9005,2.9005,2.9005,2.9005,2.9005,2.9005,2.9005,2.9005,2.9005,2.9005,2.9005,2.9005,2.9005,2.9005,2.9005,2.9005,0.0,3.3847,3.3847,3.3847,3.3458,3.3111,3.3147,3.2743,0.0,3.441,3.4338,3.4388,3.5772,3.6424,3.6497,3.5818,3.6723,3.7767,3.8583,3.939,0.0,0.0,4.0544,0.0,3.9056,3.8328,3.7601,3.6863,3.6062,3.56,3.56,3.56,3.56,3.56,3.4827,3.4421,3.4421,3.3021,3.2276,3.2209,3.1532,3.119,3.119,3.119,3.119,0.0,3.119,3.119,0.0,3.119,3.119,3.119,3.119,3.119,3.121,3.123,3.147,3.1879,3.235,3.2809,3.3258,3.3666,3.3807,3.3807,3.3807,3.3807,3.3788,3.3733,3.2596,3.1397,3.1342,3.0173,2.9005,2.9005,2.9005,2.9005,2.9005,2.9005,2.9005,2.9005,2.9005,2.9005,2.9005,2.9005,2.9005,2.9005,2.9005,2.9005,2.9005,2.9005,2.9005,2.9005,2.9005,2.9005,2.9005,2.9005,2.9005,2.9005,2.9005,2.9005,2.9005,2.9005,2.9005,2.9005,2.9005,2.9005,2.9005,2.9005,2.9005,2.9005,2.9005,2.9005,3.3477,0.0,3.3269,3.3269,3.3169,3.3199,0.0,3.3873,3.4332,3.5083,3.5444,3.5988,3.7134,3.6683,3.6475,3.755,3.8105,3.8474,3.8727,3.9502,0.0,4.1101,4.0544,3.9808,3.9056,3.8328,3.7601,3.6863,3.6062,3.56,3.56,3.56,3.56,3.56,3.4353,3.366,3.366,3.2767,3.2022,3.1464,3.1275,3.119,3.119,3.119,3.119,3.119,3.119,3.119,3.119,3.119,3.119,3.119,3.119,3.119,3.1249,3.1564,3.1733,3.1879,3.235,3.2809,3.3258,3.3666,3.3807,3.3807,3.3807,3.3807,3.3678,3.3073,3.2173,3.1268,3.0632,2.9739,2.9005,2.9005,2.9005,2.9005,2.9005,2.9005,2.9005,2.9005,2.9005,2.9005,2.9005,2.9005,2.9005,2.9005,2.9005,2.9005,2.9005,2.9005,2.9005,2.9005,2.9005,2.9005,2.9005,2.9005,2.9005,2.9005,2.9005,2.9005,2.9005,2.9005,2.9005,2.9005,2.9005,2.9005,2.9005,2.9005,2.9005,2.9005,2.9005,2.9005,3.4678,3.3827,3.3124,3.3124,3.3124,3.331,3.405,3.4228,3.4567,3.5781,3.6057,3.6278,3.7055,3.6854,3.6941,3.791,3.8137,3.8482,3.9292,4.0097,4.0747,4.1153,4.0544,3.9808,0.0,3.8328,3.7601,3.6863,3.6062,3.56,3.56,3.56,3.56,3.56,3.4184,3.3406,3.3406,3.2324,3.1579,3.119,3.119,3.119,3.119,3.119,3.119,3.119,3.119,3.119,3.119,3.119,3.119,3.119,3.119,3.119,3.1249,3.1641,3.195,3.2179,3.2665,3.3105,3.3508,3.3721,3.3807,3.3807,3.3807,3.3807,3.3715,3.3275,3.2302,3.1305,3.0852,2.9879,2.9005,2.9005,2.9005,2.9005,2.9005,2.9005,2.9005,2.9005,2.9005,2.9005,2.9005,2.9005,2.9005,2.9005,2.9005,2.9005,2.9005,2.9005,2.9005,2.9005,2.9005,2.9005,2.9005,2.9005,2.9005,2.9005,2.9005,2.9005,2.9005,2.9005,2.9005,2.9005,2.9005,2.9005,2.9005,2.9005,2.9005,2.9005,2.9005,2.9005,3.6237,3.4911,3.3586,3.3586,3.3586,3.3843,3.4777,0.0,3.4692,3.6536,3.6577,3.645,3.6888,3.7428,3.7882,3.8152,3.8075,3.8562,4.0204,4.0795,4.1035,4.1035,4.0485,0.0,3.8903,3.8278,3.755,3.6694,3.5994,3.56,3.56,3.56,3.5549,3.543,3.4095,3.3355,3.3237,3.1884,3.119,3.119,3.119,3.119,3.119,3.119,3.119,3.119,0.0,0.0,3.119,3.119,3.1249,3.1291,3.123,3.1271,3.1447,3.1788,3.2196,3.2665,3.3121,3.3508,3.3807,3.3807,3.3807,3.3807,3.3807,3.3807,3.377,3.3642,3.254,3.1342,3.1103,3.0026,2.9005,2.9005,2.9005,2.9005,2.9005,2.9005,2.9005,2.9005,2.9005,2.9005,2.9005,2.9005,2.9005,2.9005,2.9005,2.9005,2.9005,2.9005,2.9005,2.9005,2.9005,2.9005,2.9005,2.9005,2.9005,2.9005,2.9005,2.9005,2.9005,2.9005,2.9005,2.9005,2.9005,2.9005,2.9005,2.9005,2.9005,2.9005,2.9005,2.9005,3.6448,3.5974,3.5734,3.5734,3.5734,3.5876,3.6368,3.6409,3.6507,3.7177,3.7775,3.8389,3.9082,3.9375,3.9737,4.0386,4.0049,4.0226,0.0,0.0,4.0282,4.0282,0.0,3.9571,3.821,3.7973,3.7313,3.5887,3.5667,3.56,3.56,3.56,3.5295,3.4692,3.3846,3.3102,3.2479,3.1613,3.119,3.119,3.119,3.119,3.119,3.119,3.119,3.119,0.0,3.119,3.119,3.119,3.1391,3.1678,3.1332,3.1638,3.2299,3.2367,3.2697,3.3151,3.3564,3.3748,3.3807,3.3807,3.3807,3.3807,3.3807,3.3807,3.366,3.2968,3.2118,3.1091,2.9721,2.9189,2.9005,2.9005,2.9005,2.9005,2.9005,2.9005,2.9005,2.9005,2.9005,2.9005,2.9005,2.9005,2.9005,2.9005,2.9005,2.9005,2.9005,2.9005,2.9005,2.9005,2.9005,2.9005,2.9005,2.9005,2.9005,2.9005,2.9005,2.9005,2.9005,2.9005,2.9005,2.9005,2.9005,2.9005,2.9005,2.9005,2.9005,2.9005,2.9005,2.9005,3.7504,3.7393,3.749,3.7966,3.7509,3.7225,3.8442,3.8467,3.8428,3.9201,3.9344,3.9456,3.9803,4.0227,4.0759,4.1525,4.1456,4.1382,4.1659,4.079,4.0096,0.0,0.0,3.9225,3.8565,3.777,3.7009,3.6299,3.5859,3.56,3.56,3.5211,3.4844,3.4506,3.3389,3.2649,3.2293,3.1582,3.119,3.119,3.119,3.119,3.119,3.119,3.119,3.119,0.0,3.1312,3.1509,3.1509,3.1788,3.2161,3.1968,3.2162,3.2534,3.2777,3.3151,3.355,3.3734,3.3807,3.3807,3.3807,3.3807,3.3807,3.3807,3.3495,3.306,3.2693,3.2326,3.1788,3.0595,2.9971,2.9647,2.9647,2.9317,2.9005,2.9005,2.9005,2.9005,2.9005,2.9005,2.9005,2.9005,2.9005,2.9005,2.9005,2.9005,2.9005,2.9005,2.9005,2.9005,2.9005,2.9005,2.9005,2.9005,2.9005,2.9005,2.9005,2.9005,2.9005,2.9005,2.9005,2.9005,2.9005,2.9005,2.9005,2.9005,2.9005,2.9005,2.9005,2.9005,2.9005,3.8392,3.8397,3.8675,3.9534,3.886,3.8468,4.0362,4.0122,3.98,4.0815,4.0611,4.0261,4.0261,4.098,4.1705,4.2146,4.2288,4.2033,4.1305,4.0561,4.0096,4.0096,3.9453,3.892,3.8751,3.755,3.6728,3.6518,3.596,3.5515,3.5346,3.481,3.4336,3.4003,3.2886,3.2226,3.2039,3.1481,3.119,3.119,3.119,3.119,3.119,3.119,3.119,3.119,3.119,3.143,3.1807,3.1807,3.2144,3.2648,3.2534,3.2567,3.2713,3.3166,3.3536,3.3807,3.3807,3.3807,3.3807,3.3807,3.3678,3.355,3.3733,3.3238,3.2564,3.2375,3.2596,3.2651,3.1672,3.0797,3.021,3.021,2.9592,2.9005,2.9005,2.9005,2.9005,2.9005,2.9005,2.9005,2.9005,2.9005,2.9005,2.9005,2.9005,2.9005,2.9005,2.9005,2.9005,2.9005,2.9005,2.9005,2.9005,2.9005,2.9005,2.9005,2.9005,2.9005,2.9005,2.9005,2.9005,2.9005,2.9005,2.9005,2.9005,2.9005,2.9005,2.9005,2.9189,2.928,3.8392,3.8497,3.877,3.9658,3.9673,3.9885,4.1581,4.0862,4.0095,4.0906,4.1094,4.1132,4.1132,4.2283,4.3029,4.2392,4.2293,4.2033,4.1305,0.0,4.0096,4.0096,3.9453,3.8717,3.8058,3.7246,3.6485,3.5735,3.5633,3.5295,3.4607,3.4523,3.3884,3.2496,3.2361,3.1972,3.1275,3.1224,3.119,3.119,3.119,3.119,3.119,3.119,3.119,3.119,3.119,3.143,3.1807,3.1807,3.2332,3.3124,3.2665,3.2761,3.3199,3.3606,3.378,3.3807,3.3807,3.3807,3.3807,3.3807,3.3293,3.2821,3.3568,3.3238,3.2436,3.1696,3.2559,3.3366,3.1801,3.0797,3.021,3.021,2.9592,2.9005,2.9005,2.9005,2.9005,2.9005,2.9005,2.9005,2.9005,2.9005,2.9005,2.9005,2.9005,2.9005,2.9005,2.9005,2.9005,2.9005,2.9005,2.9005,2.9005,2.9005,2.9005,2.9005,2.9005,2.9005,2.9005,2.9005,2.9005,2.9005,2.9005,2.9005,2.9005,2.9005,2.9005,2.9023,2.9757,3.0118,3.7315,3.7943,3.8745,3.916,4.0246,4.1517,4.265,4.2477,4.2306,4.3128,4.3297,4.3177,4.2663,4.2638,4.2625,4.2337,4.1914,4.1525,4.1238,4.0561,3.9943,3.9462,3.8751,3.8024,3.728,3.6518,3.5943,3.5616,3.5182,3.4793,3.4506,3.3647,3.2886,3.2327,3.187,3.1481,3.119,3.119,3.119,3.119,3.119,3.119,3.121,3.1468,3.1565,3.1584,3.1878,3.2265,3.2663,3.2663,3.3027,3.355,3.339,3.3419,3.3578,3.3734,3.3807,3.3807,3.3807,3.3807,3.3715,3.322,3.2839,3.2564,3.2375,3.1751,3.1256,3.1953,3.2228,3.2155,3.1562,3.1176,3.0944,3.0944,2.9941,2.9005,2.9005,2.9005,2.9005,2.9005,2.9005,2.9005,2.9005,2.9005,2.9005,2.9005,2.9005,2.9005,2.9005,2.9005,2.9005,2.9005,2.9005,2.9005,2.9005,2.9005,2.9005,2.9005,2.9005,2.9005,2.9005,2.9005,2.9005,2.9005,2.9005,2.9244,2.9739,2.9244,2.95,3.0485,3.0283,3.021,3.7028,3.7962,3.9165,3.9253,4.0598,4.216,4.3164,4.3392,4.368,4.4722,4.4378,4.3773,4.3401,0.0,0.0,4.1887,4.1648,4.1333,4.0908,4.0231,3.9571,3.9056,3.8142,3.7347,3.6846,3.6079,3.56,3.56,3.4928,3.4387,3.4167,3.297,3.2192,3.1955,3.1464,3.119,3.119,3.119,3.119,3.119,3.119,3.1271,3.1408,3.1678,3.1897,3.2039,3.2367,3.2761,3.3199,3.3199,3.3451,3.377,3.3532,3.3587,3.377,3.3513,3.3587,3.3807,3.3807,3.3807,3.3715,3.3151,3.2651,3.221,3.2173,3.1421,3.0815,3.1916,3.2008,3.1659,3.1146,3.1213,3.1397,3.1397,3.0173,2.9005,2.9005,2.9005,2.9005,2.9005,2.9005,2.9005,2.9005,2.9207,2.9299,2.9042,2.9225,2.9372,2.9372,2.9152,2.9005,2.9005,2.9005,2.9005,2.9005,2.9005,2.9005,2.9005,2.9005,2.9005,2.9005,2.9005,2.9005,2.9005,2.9005,2.939,3.021,2.9647,2.9953,3.1029,3.098,3.0815,3.7808,3.8814,4.0084,4.0084,4.0668,4.161,4.3054,4.3392,4.3859,4.5382,4.3904,4.2481,4.3093,4.2611,0.0,4.1041,4.1572,4.1616,4.0298,3.9469,3.8988,3.8971,3.7692,3.6795,3.6795,3.6079,3.56,3.5583,3.4912,3.4167,3.344,3.2679,3.1955,3.1207,3.119,3.119,3.119,3.119,3.119,3.119,3.121,3.1411,3.1807,3.1789,3.2057,3.2501,3.2517,3.2777,3.3214,3.3214,3.3451,3.3715,3.2913,3.3091,3.3697,3.2894,3.3109,3.3788,3.3807,3.3807,3.3807,3.3788,3.2706,3.1709,3.3275,3.2651,3.1378,3.1397,3.1971,3.2197,3.0632,3.0797,3.1397,3.1397,3.0173,2.9005,2.9005,2.9005,2.9005,2.9005,2.9005,2.9005,2.9005,2.9647,2.9922,2.9115,2.9684,3.021,3.021,2.95,2.9023,2.9005,2.9005,2.9005,2.9005,2.9005,2.9005,2.9005,2.9005,2.9005,2.9005,2.9005,2.9005,2.9005,2.9005,2.939,3.021,3.0191,3.021,3.0265,3.1849,3.2173,3.8074,3.8913,4.0084,4.0084,4.142,4.2851,4.3291,4.3392,4.381,4.5262,4.4621,4.379,4.3822,4.2887,0.0,4.1041,4.1111,4.0789,3.951,3.914,3.8616,3.7591,3.7083,3.6592,3.6011,3.5735,3.538,3.4861,3.415,3.3406,3.2682,3.1938,3.143,3.1207,3.119,3.119,3.119,3.119,3.119,3.121,3.1488,3.1678,3.1825,3.2127,3.255,3.3014,3.3284,3.349,3.3606,3.3606,3.3694,3.377,3.3532,3.3238,3.2999,3.333,3.3238,3.3041,3.3605,3.3807,3.3715,3.3146,3.2247,3.1378,3.1292,3.054,2.9831,3.0393,3.0723,3.0925,3.1017,3.0797,3.0558,3.0558,2.9769,2.9005,2.9005,2.9005,2.9005,2.9005,2.9005,2.9005,2.9005,2.9207,2.9262,2.9042,2.9684,3.021,3.021,3.0485,3.0467,2.9898,2.9831,2.9831,2.9831,2.9831,2.9592,2.9042,2.9537,2.9592,2.9023,2.9005,2.9005,2.9005,2.9005,2.939,3.021,2.9629,3.0234,3.1885,3.1806,3.1935,3.8954,3.9813,4.112,4.1668,4.2819,4.3861,4.4062,4.4189,4.4384,4.4898,4.4637,4.422,4.4009,4.3071,0.0,4.1687,4.1424,4.0803,3.9504,3.8887,3.8108,3.6948,3.6502,3.6129,3.565,3.56,3.5414,3.4979,3.3981,3.322,3.2767,3.1749,3.119,3.119,3.119,3.119,3.119,3.119,3.119,3.121,3.1621,3.1897,3.2092,3.2549,3.3029,3.3447,3.3694,3.3807,3.3807,3.3807,3.3605,3.333,3.333,3.2834,3.2173,3.2669,3.254,3.2192,3.2687,3.2852,3.2761,3.2284,3.1586,3.0889,3.0723,3.0118,2.9574,3.0063,3.021,3.0246,3.0393,3.0099,2.9794,3.0118,2.9592,2.9005,2.9005,2.9005,2.9005,2.9005,2.9005,2.9005,2.9005,2.9537,2.9831,2.9519,3.0418,3.0815,2.9849,3.098,3.1439,3.032,3.0485,3.0687,3.0687,3.0687,3.0338,2.9537,2.9934,2.9989,2.95,2.917,2.9005,2.9005,2.9005,2.939,3.021,3.0026,3.0705,3.2137,3.2284,3.2449,4.0304,4.1318,4.2705,4.4117,4.4476,4.4607,4.51,4.5348,4.5248,4.452,4.4255,4.4124,4.3913,4.3289,4.2783,4.2711,4.2129,4.1229,3.9884,3.8595,3.7516,3.6795,3.6045,3.56,3.56,3.56,3.5566,3.5498,3.4218,3.3372,3.3305,3.1952,3.119,3.119,3.119,3.119,3.119,3.119,3.119,3.121,3.1641,3.2092,3.2517,3.2952,3.3361,3.3748,3.3775,3.3807,3.3807,3.3807,3.333,3.2601,3.2674,3.2137,3.1323,3.147,3.1415,3.1305,3.1378,3.1397,3.1397,3.1397,3.0852,3.0338,3.1072,3.0723,3.0099,3.0099,3.0099,2.9922,2.9189,2.9005,2.9189,2.9922,2.9537,2.9005,2.9005,2.9005,2.9005,2.9005,2.9005,2.9005,2.9005,3.0265,3.1091,3.0503,3.1647,3.1812,2.961,3.1317,3.2124,3.0577,3.1072,3.1513,3.1513,3.1513,3.1164,3.0356,3.0393,3.0393,3.032,2.9537,2.9133,2.9225,2.9225,2.9537,3.021,3.0999,3.1397,3.1433,3.2981,3.3348,4.1734,4.2304,4.3212,4.4724,4.5076,4.5076,4.5175,4.5152,4.5054,4.4893,4.4839,4.4728,4.4528,4.3992,4.3376,4.2802,4.1705,4.0461,3.9129,3.7855,3.6738,3.596,3.5701,3.56,3.56,3.56,3.5346,3.4776,3.3914,3.3152,3.2581,3.1701,3.119,3.119,3.119,3.119,3.119,3.119,3.119,3.121,3.1986,3.2401,3.2501,3.2599,3.2905,3.3346,3.3666,3.3807,3.3807,3.3807,3.333,3.2656,3.3311,3.2284,3.0613,3.188,3.1549,3.0558,3.1182,3.1397,3.1397,3.1397,3.0852,3.0228,3.0411,2.9898,2.9262,2.9262,2.9262,2.9225,2.9042,2.9005,2.9042,2.9225,2.9133,2.9005,2.9005,2.9005,2.9005,2.9005,2.9005,2.9005,2.9005,2.9812,3.0834,3.1922,3.2381,3.2399,3.1885,3.2821,3.3164,3.2179,3.2234,3.2339,3.2339,3.2339,3.2008,3.1195,3.1733,3.1806,3.1176,3.0375,3.0246,3.087,3.087,3.065,3.021,3.0999,3.1397,3.1415,3.2394,3.3096,4.1356,4.2102,4.2994,4.472,4.5347,4.5428,4.5047,4.4909,4.4742,4.436,4.4578,4.4709,4.4215,4.3871,4.3396,4.2632,4.168,4.0538,3.9089,3.8105,3.7218,3.6461,3.6139,3.5968,3.5968,3.5761,3.543,3.5064,3.4032,3.3237,3.2848,3.1782,3.119,3.119,3.119,3.119,3.119,3.119,3.119,3.121,3.186,3.2161,3.2179,3.2822,3.3255,3.3508,3.3707,3.3807,3.3807,3.3807,3.3109,3.2137,3.333,3.2339,3.0356,3.1568,3.1256,3.021,3.0246,3.0246,3.0246,3.0246,2.9971,2.9629,2.9629,2.9335,2.9005,2.9005,2.9005,2.9005,2.9005,2.9005,2.9005,2.9005,2.9005,2.9005,2.9005,2.9005,2.9005,2.9005,2.9005,2.9115,2.95,3.0564,3.1629,3.2472,3.2931,3.2908,3.2118,3.3054,3.3495,3.2693,3.2931,3.3183,3.3183,3.3183,3.2834,3.2027,3.2375,3.2399,3.199,3.1568,3.1366,3.1397,3.1397,3.1195,3.0779,3.1586,3.1971,3.199,3.2797,3.3403,4.0225,4.1644,4.2969,4.4721,4.542,4.5516,4.4856,4.4581,4.4305,4.3626,4.403,4.4287,4.3608,4.3404,4.3057,4.2415,4.1559,4.0564,3.9282,3.8522,3.7877,3.728,3.6803,3.6498,3.6395,3.6006,3.5644,3.5436,3.4146,3.3339,3.322,3.1935,3.119,3.119,3.119,3.119,3.119,3.119,3.119,3.121,3.1678,3.1915,3.1951,3.3148,3.3648,3.3578,3.3666,3.3734,3.3807,3.3807,3.2926,3.1751,3.322,3.2339,3.0301,3.1103,3.0797,2.9898,2.9225,2.9005,2.9005,2.9005,2.9005,2.9005,2.9005,2.9005,2.9005,2.9005,2.9005,2.9005,2.9005,2.9005,2.9005,2.9005,2.9005,2.9005,2.9005,2.9005,2.9005,2.9005,2.9115,2.95,3.0448,3.172,3.2656,3.2784,3.3366,3.3311,3.2003,3.2981,3.3532,3.2876,3.3403,3.3807,3.3807,3.3807,3.3532,3.2839,3.2803,3.2803,3.2803,3.2803,3.2504,3.1837,3.1806,3.1745,3.1604,3.2412,3.2729,3.2619,3.344,3.3807,3.9284,4.207,4.4582,4.5535,4.5315,4.4837,4.4709,4.4158,4.3643,4.3533,4.3589,4.3643,4.3533,4.2928,4.2433,4.2323,4.0667,3.9336,3.9138,3.8095,3.7316,3.7209,3.7152,3.6921,3.6437,3.635,3.5843,3.4735,3.388,3.3119,3.2479,3.1667,3.119,3.119,3.119,3.119,3.119,3.119,3.119,3.121,3.2021,3.2417,3.2434,3.3014,3.306,3.2697,3.3105,3.348,3.3807,3.3807,3.3256,3.254,3.344,3.2339,3.0301,3.1103,3.0448,2.9133,2.9042,2.9005,2.9005,2.9005,2.9005,2.9005,2.9005,2.9005,2.9005,2.9005,2.9005,2.9005,2.9005,2.9005,2.9005,2.9005,2.9005,2.9005,2.9005,2.9005,2.9005,2.9005,2.9555,3.0522,3.2014,3.2454,3.2839,3.3532,3.3733,3.3715,3.3513,3.366,3.3752,3.3642,3.3733,3.3807,3.3807,3.3807,3.3752,3.3642,3.3642,3.3642,3.3642,3.3642,3.3587,3.3476,3.3476,3.3146,3.2436,3.3256,3.3293,3.2619,3.344,3.3807,3.8292,4.0999,4.3105,4.3905,4.4072,4.403,4.403,4.3754,4.3515,4.3515,4.3515,4.3515,4.3515,4.2837,4.2158,4.1699,4.0469,3.9387,3.895,3.8403,3.8033,3.8033,3.7773,3.7506,3.7268,3.6726,3.6087,3.535,3.4096,3.3192,3.2728,3.174,3.119,3.119,3.119,3.119,3.119,3.119,3.119,3.121,3.2092,3.223,3.1787,3.2484,3.284,3.2887,3.3105,3.3437,3.3807,3.3807,3.333,3.2638,3.2986,3.2336,3.1174,3.0851,3.0272,2.9607,2.9168,2.8851,2.8694,2.8929,2.9005,2.9005,2.9005,2.9005,2.9005,2.9005,2.9005,2.9005,2.9005,2.9335,2.9666,2.9666,3.0026,3.0338,3.0338,2.9989,2.9812,3.0265,3.0986,3.1757,3.2472,3.2981,3.3385,3.3752,3.3807,3.3807,3.3807,3.3807,3.3807,3.3807,3.3807,3.3807,3.3807,3.3807,3.3807,3.3807,3.3807,3.3807,3.3807,3.3807,3.3807,3.3807,3.3807,3.3623,3.3275,3.3623,3.3623,3.3293,3.3642,3.3807,3.7161,3.932,4.0752,4.206,4.2705,4.3082,4.3425,4.3515,4.3515,4.3515,4.3515,4.3515,4.3515,4.2671,4.1809,4.1187,4.0249,3.9386,3.8781,3.8707,3.8707,3.8707,3.835,3.8048,3.7911,3.6921,3.6097,3.5648,3.4071,3.2988,3.2706,3.1737,3.119,3.119,3.119,3.119,3.119,3.119,3.119,3.121,3.2092,3.2039,3.123,3.2109,3.2632,3.2856,3.2983,3.3317,3.3807,3.3807,3.3386,3.2743,3.2743,3.2377,3.1699,3.0608,3.0074,2.9781,2.8995,2.8515,2.8316,2.8626,2.8731,2.8743,2.8827,2.8851,2.8918,2.922,2.9299,2.9354,2.9555,3.0063,3.0503,3.0503,3.0962,3.1397,3.1397,3.0925,3.0742,3.1549,3.2192,3.2656,3.2858,3.3403,3.3807,3.3807,3.3807,3.3807,3.3807,3.3807,3.3807,3.3807,3.3807,3.3807,3.3807,3.3807,3.3807,3.3807,3.3807,3.3807,3.3807,3.3807,3.3807,3.3807,3.3807,3.3807,3.3807,3.3807,3.3807,3.3807,3.3807,3.3807,3.5863,3.7102,3.8173,4.0901,4.1577,4.1941,4.3209,4.3515,4.3515,4.3515,4.3515,4.3515,4.3515,4.2213,4.115,4.1113,3.9774,3.8762,3.8707,3.8707,3.8707,3.8707,3.8692,3.8465,3.7946,3.6774,3.5703,3.4907,3.3298,3.2207,3.1893,3.1428,3.119,3.119,3.119,3.119,3.119,3.119,3.119,3.121,3.2092,3.2039,3.123,3.2109,3.2264,3.1897,3.2332,3.3011,3.3807,3.3807,3.3546,3.3174,3.3174,3.2414,3.1243,3.0493,2.9718,2.8962,2.8206,2.794,2.794,2.7954,2.7954,2.8024,2.8342,2.8433,2.8672,2.9814,3.0136,3.032,3.1085,3.1323,3.1342,3.1342,3.1378,3.1397,3.1397,3.1378,3.1568,3.2381,3.2564,3.2839,3.3605,3.377,3.3807,3.3807,3.3807,3.3807,3.3807,3.3807,3.3807,3.3807,3.3807,3.3807,3.3807,3.3807,3.3807,3.3807,3.3807,3.3807,3.3807,3.3807,3.3807,3.3807,3.3807,3.3807,3.3807,3.3807,3.3807,3.3807,3.3807,3.3807,3.2478,3.4611,3.639,3.8022,3.9973,4.1632,4.2105,4.2866,4.3515,4.3515,4.3515,4.3515,4.3515,4.2176,4.1095,4.1095,3.9753,3.8707,3.8707,3.8707,3.8707,3.8707,3.8707,3.8627,3.8433,3.7693,3.6801,3.5849,3.4374,3.3138,3.2283,3.1582,3.119,3.119,3.119,3.119,3.119,3.119,3.119,3.121,3.177,3.1879,3.1603,3.1915,3.2109,3.223,3.2109,3.2565,3.339,3.309,3.2787,3.2419,3.1598,3.1122,3.0745,2.9261,2.8839,2.8902,2.8164,2.7739,2.7562,2.7826,2.7897,2.795,2.8303,2.8407,2.8647,2.9856,3.021,3.0393,3.1195,3.177,3.2302,3.2816,3.2944,3.2944,3.2944,3.2522,3.2412,3.322,3.3366,3.3458,3.3752,3.3807,3.3807,3.3807,3.3807,3.3807,3.3807,3.3807,3.3807,3.3807,3.3807,3.3807,3.3807,3.3807,3.3807,3.3807,3.3807,3.3807,3.3807,3.3807,3.3807,3.3807,3.3807,3.3807,3.3807,3.3807,3.3807,3.3807,3.3807,3.3807,2.974,3.1971,3.4003,3.554,3.7737,3.98,4.0857,4.1995,4.2883,4.3058,4.3296,4.3515,4.3515,4.2415,4.1407,4.1132,3.9753,3.8707,3.8707,3.8707,3.8707,3.8707,3.8707,3.8707,3.8707,3.798,3.7207,3.6366,3.4763,0.0,3.2555,3.1675,3.119,3.119,3.119,3.119,3.119,3.119,3.1271,3.1411,3.1842,3.2022,3.2022,3.2022,3.2109,3.223,3.1788,3.2127,3.2937,3.2632,3.2298,3.1909,3.106,3.0645,3.035,2.91,2.8611,2.8522,2.8048,2.7527,2.7147,2.7409,2.7659,2.796,2.8477,2.8811,2.9283,3.0636,3.1017,3.1201,3.199,3.2596,3.3146,3.3678,3.3807,3.3807,3.3807,3.3385,3.3151,3.3697,3.3807,3.3807,3.3807,3.3807,3.3807,3.3807,3.3807,3.3807,3.3807,3.3807,3.3807,3.3807,3.3807,3.3807,3.3807,3.3807,3.3807,3.3807,3.3807,3.3807,3.3807,3.3807,3.3807,3.3807,3.3807,3.3807,3.3807,3.3807,3.3807,3.3807,3.3807,3.3807,0.0,0.0,0.0,0.0,0.0,0.0,3.9455,0.0,4.156,4.2148,4.2892,4.3441,4.3496,4.2837,4.2047,4.126,3.9808,3.8781,3.8781,3.8762,3.8744,3.8744,3.8707,3.8707,3.8707,3.7576,3.6712,3.6347,3.4353,3.2983,3.2555,3.1693,3.119,3.119,3.119,3.119,3.119,3.121,3.1411,3.1807,3.2282,3.2517,3.2517,3.2484,3.223,3.1807,3.1389,3.1658,3.2432,3.2432,3.2161,3.1738,3.1702,3.1013,3.0055,3.0023,2.9075,2.7841,2.7807,2.7317,2.6725,2.6776,2.7249,2.7998,2.8855,2.9612,3.0525,3.2128,3.2601,3.2784,3.3587,3.3807,3.3807,3.3807,3.3807,3.3807,3.3807,3.3807,3.3807,3.3807,3.3807,3.3807,3.3807,3.3807,3.3807,3.3807,3.3807,3.3807,3.3807,3.3807,3.3807,3.3807,3.3807,3.3807,3.3807,3.3807,3.3807,3.3807,3.3807,3.3807,3.3807,3.3807,3.3807,3.3807,3.3807,3.3807,3.3807,3.3807,3.3807,3.3807,3.3807,3.3807,2.5946,0.0,0.0,0.0,0.0,0.0,0.0,0.0,3.9479,4.1325,4.1735,4.2121,4.3277,4.2837,4.2231,4.2011,4.1095,4.0435,4.0435,3.9937,3.957,3.957,3.9056,3.8707,3.8707,3.8376,3.7885,0.0,3.5442,3.4111,3.3402,3.1987,3.119,3.119,3.119,3.119,3.119,3.1488,3.1696,3.1807,3.2282,3.2681,3.2983,3.2298,3.2109,3.2265,3.1524,3.1023,3.0756,3.0756,3.054,3.0127,2.9247,2.9066,2.9179,2.8044,2.8078,2.8569,2.7993,2.7672,2.7587,2.8163,2.8502,2.8762,2.9227,2.9757,3.0465,3.1809,3.2383,3.2784,3.3587,3.3807,3.3807,3.3807,3.3807,3.3807,3.3807,3.3807,3.3807,3.3807,3.3807,3.3807,3.3807,3.3807,3.3807,3.3807,3.3807,3.3807,3.3807,3.3807,3.3807,3.3807,3.3807,3.3807,3.3807,3.3807,3.3807,3.3807,3.3807,3.3807,3.3807,3.3807,3.3807,3.3807,3.3807,3.3807,3.3807,3.3807,3.3807,3.3807,3.3807,3.3807,2.4393,2.5667,0.0,0.0,0.0,0.0,3.3751,3.5634,3.7509,0.0,4.0128,4.0763,4.1705,4.1923,4.1974,4.1974,4.2039,4.1882,4.1187,4.0708,4.0286,3.9937,3.9478,3.9074,3.8726,3.8707,3.8377,3.7566,3.617,3.4694,3.3206,3.1897,3.119,3.119,3.137,3.137,3.119,3.1788,3.2092,3.2109,3.2384,3.2825,3.3404,3.2298,3.1969,3.2232,3.1192,3.0389,2.9807,2.9353,2.9205,2.9265,2.8592,2.8383,2.8433,2.7876,2.7825,2.8079,2.8247,2.8077,2.7925,2.8756,2.9213,2.9524,2.9886,3.0534,3.1357,3.2236,3.2788,3.322,3.3678,3.3807,3.3807,3.3807,3.3807,3.3807,3.3807,3.3807,3.3807,3.3807,3.3807,3.3807,3.3807,3.3807,3.3807,3.3807,3.3807,3.3807,3.3807,3.3807,3.3807,3.3807,3.3807,3.3807,3.3807,3.3807,3.3807,3.3807,3.3807,3.3807,3.3807,3.3807,3.3807,3.3807,3.3807,3.3807,3.3807,3.3807,3.3807,3.3807,3.3807,3.3972,2.3443,2.4397,0.0,0.0,2.7103,0.0,3.1113,3.3251,3.5123,0.0,3.7822,3.8843,3.9098,4.013,4.0919,4.0848,4.2087,4.2682,4.1519,4.1279,4.0983,4.0249,4.0084,3.9717,3.8909,3.8836,3.8505,3.7694,3.6532,3.4823,3.2422,3.1616,3.119,3.119,3.1564,3.1584,3.1271,3.2092,3.2534,3.2583,3.2583,3.296,3.362,3.2341,3.177,3.1721,3.056,2.9756,2.9231,2.8218,2.823,2.8857,2.879,2.8366,2.7891,2.8602,2.8062,2.7165,2.862,2.8653,2.8179,2.8993,2.9685,3.0304,3.0697,3.1601,3.2599,3.3121,3.3522,3.3807,3.3807,3.3807,3.3807,3.3807,3.3807,3.3807,3.3807,3.3807,3.3807,3.3807,3.3807,3.3807,3.3807,3.3807,3.3807,3.3807,3.3807,3.3807,3.3807,3.3807,3.3807,3.3807,3.3807,3.3807,3.3807,3.3807,3.3807,3.3807,3.3807,3.3807,3.3807,3.3807,3.3807,3.3807,3.3807,3.3807,3.3807,3.3807,3.3807,3.3807,3.3899,3.4307,2.4188,2.4072,2.3905,2.5052,2.5567,0.0,2.7966,2.8847,3.0096,0.0,3.3462,3.4058,3.5945,3.6934,3.7292,3.6766,3.8793,4.1045,4.279,4.247,4.2011,4.1846,4.1258,4.0561,3.9735,3.9662,3.9331,3.8524,3.6368,3.4282,3.2405,3.1616,3.119,3.119,3.1271,3.143,3.1678,3.223,3.2697,3.306,3.306,3.2991,3.2795,3.1847,3.1091,3.0523,2.9881,2.9059,2.8116,2.7893,2.7891,2.7976,2.7385,2.7418,2.7824,2.7976,2.8247,2.8688,2.9583,2.9786,2.9768,3.0531,3.0869,3.1068,3.1454,3.2004,3.2665,3.3462,3.3734,3.3807,3.3807,3.3807,3.3807,3.3807,3.3807,3.3807,3.3807,3.3807,3.3807,3.3807,3.3807,3.3807,3.3807,3.3807,3.3807,3.3807,3.3807,3.3807,3.3807,3.3807,3.3807,3.3807,3.3807,3.3807,3.3807,3.3807,3.3807,3.3807,3.3807,3.3807,3.3807,3.3807,3.3807,3.3807,3.3807,3.3807,3.3807,3.3807,3.3807,3.3825,3.4454,3.4857,2.4429,2.4161,2.3966,2.409,0.0,0.0,0.0,2.699,2.8147,3.0068,3.0582,3.1174,3.2714,3.3822,3.4626,3.4992,3.7399,3.9635,4.0831,4.1867,4.2341,4.1904,4.1749,4.1387,4.0579,4.0139,3.9374,3.8036,3.6058,3.4299,3.291,3.1799,3.1291,3.1488,3.1507,3.1714,3.2144,3.2616,3.2968,3.3199,3.2802,3.2609,3.2557,3.1282,3.0401,2.988,2.9227,2.8421,2.7536,2.7335,2.7249,2.7198,2.6843,2.6928,2.73,2.7655,2.806,2.8569,2.9683,3.0108,3.0207,3.0954,3.119,3.1249,3.1449,3.1968,3.2681,3.3546,3.3807,3.3807,3.3807,3.3807,3.3807,3.3807,3.3807,3.3807,3.3807,3.3807,3.3807,3.3807,3.3807,3.3807,3.3807,3.3807,3.3807,3.3807,3.3807,3.3807,3.3807,3.3807,3.3807,3.3807,3.3807,3.3807,3.3807,3.3807,3.3807,3.3807,3.3807,3.3807,3.3807,3.3807,3.3807,3.3807,3.3807,3.3807,3.3807,3.4197,3.4192,3.3825,3.4619,3.5224,0.0,2.4481,2.4412,0.0,0.0,2.4207,0.0,0.0,0.0,2.7483,2.8039,0.0,0.0,0.0,0.0,0.0,0.0,0.0,0.0,3.9701,0.0,4.1098,4.1596,4.1703,4.1017,4.0311,3.9211,3.7551,3.5989,3.4614,3.3469,3.2138,3.1526,3.1789,3.1807,3.2057,3.2632,3.3014,3.3199,3.3181,3.2534,3.2226,3.2208,3.0846,2.9922,2.9332,2.8607,2.7922,2.7272,2.6857,2.6691,2.6691,2.6691,2.6793,2.6996,2.7739,2.8111,2.8432,2.9837,3.0311,3.0412,3.1004,3.131,3.1447,3.1447,3.2056,3.2903,3.3606,3.3807,3.3807,3.3807,3.3807,3.3807,3.3807,3.3807,3.3807,3.3807,3.3807,3.3807,3.3807,3.3807,3.3807,3.3807,3.3807,3.3807,3.3807,3.3807,3.3807,3.3807,3.3807,3.3807,3.3807,3.3807,3.3807,3.3807,3.3807,3.3807,3.3807,3.3807,3.3807,3.3807,3.3954,3.3972,3.3807,3.3954,3.4027,3.4027,3.4674,3.4674,3.4064,3.5023,3.5862,0.0,0.0,0.0,0.0,2.3576,0.0,0.0,0.0,2.3815,2.4611,0.0,0.0,0.0,0.0,0.0,0.0,0.0,0.0,3.2477,3.5308,3.7978,3.9618,4.0391,4.0687,4.042,4.0092,3.9448,3.8351,3.6785,3.5155,3.3486,3.2611,3.2054,3.1806,3.1807,3.223,3.3105,3.3184,3.3199,3.3199,3.3109,3.2332,3.0996,3.0808,2.9926,2.8521,2.8134,2.7707,2.7272,2.6857,2.6691,2.6691,2.6691,2.7097,2.7773,2.8569,2.9279,2.9954,3.0784,3.1072,3.1089,3.1173,3.1714,3.235,3.235,3.2965,3.3662,3.3762,3.3807,3.3807,3.3807,3.3807,3.3807,3.3807,3.3807,3.3807,3.3807,3.3807,3.3807,3.3807,3.3807,3.3807,3.3807,3.3807,3.3807,3.3807,3.3807,3.3807,3.3807,3.3807,3.3807,3.3807,3.3807,3.3807,3.3807,3.3807,3.3807,3.3807,3.3807,3.3807,3.3807,3.4472,3.4527,3.3807,3.4491,3.4857,3.4857,3.4968,3.4949,3.4912,3.6486,3.7272,0.0,0.0,0.0,0.0,0.0,0.0,2.3108,0.0,2.3198,0.0,0.0,0.0,0.0,0.0,0.0,0.0,2.8332,0.0,0.0,0.0,3.4797,0.0,0.0,0.0,3.9199,3.9479,3.8988,3.7346,3.6221,3.4966,3.3482,3.2966,3.2546,3.2214,3.2213,3.2647,3.3536,3.3317,3.3317,3.355,3.3063,3.2261,3.1136,3.0649,2.9691,2.8394,2.825,2.7992,2.7639,2.7677,2.7688,2.7722,2.7929,2.7943,2.7959,2.9178,2.9837,3.0226,3.0937,3.119,3.119,3.119,3.1601,3.2144,3.2417,3.295,3.3508,3.3734,3.3807,3.3807,3.3807,3.3807,3.3807,3.3807,3.3807,3.3807,3.3807,3.3807,3.3807,3.3807,3.4192,3.4491,3.4491,3.4119,3.3807,3.3807,3.3807,3.3807,3.3807,3.4211,3.4491,3.4491,3.4945,3.5238,3.5238,3.5238,3.5238,3.5238,3.478,3.4491,3.4491,3.4821,3.5078,3.5238,3.5587,3.5752,3.5771,3.6229,3.645,3.6468,3.718,3.7492,2.7427,0.0,0.0,0.0,0.0,0.0,0.0,0.0,0.0,0.0,0.0,0.0,0.0,0.0,0.0,0.0,0.0,2.8025,0.0,0.0,0.0,0.0,0.0,0.0,0.0,3.8629,3.8281,3.6839,3.6038,3.505,3.3766,3.3453,3.3154,3.2803,3.2722,3.306,3.3775,3.3508,3.3465,3.362,3.3166,3.2452,3.1555,3.1059,3.0258,2.9212,2.8874,2.8726,2.8713,2.8636,2.8711,2.8958,2.9316,2.9106,2.8713,2.9722,3.0243,3.048,3.1004,3.1271,3.137,3.137,3.1733,3.2247,3.2599,3.3014,3.3437,3.3721,3.3972,3.4082,3.3862,3.3972,3.4082,3.3844,3.3807,3.3807,3.3807,3.3972,3.4137,3.4137,3.4784,3.5353,3.5353,3.4871,3.4486,3.4486,3.4486,3.4486,3.4486,3.5,3.5353,3.5353,3.5917,3.6303,3.6303,3.6303,3.6303,3.6303,3.5701,3.5353,3.5353,3.5573,3.5881,3.6285,3.6505,3.6615,3.6615,3.7217,3.7621,3.7841,3.7841,3.7841,0.0,0.0,0.0,2.6228,0.0,0.0,0.0,0.0,2.3966,0.0,0.0,0.0,0.0,0.0,0.0,0.0,0.0,0.0,0.0,0.0,0.0,0.0,0.0,0.0,0.0,3.7499,3.7422,0.0,3.6818,3.5803,3.4532,3.4205,3.3901,3.3581,3.3313,3.3375,3.3807,3.3793,3.3578,3.3229,3.3588,3.3141,3.1989,3.2351,3.2069,3.1231,3.0072,3.0022,3.0698,2.9554,2.9535,3.0267,3.0539,3.063,3.056,3.0228,3.0548,3.1157,3.119,3.1468,3.1789,3.1789,3.24,3.3169,3.3184,3.3465,3.3775,3.3807,3.4362,3.4784,3.4009,3.438,3.4766,3.399,3.3807,3.3807,3.3807,3.4399,3.4968,3.4968,3.5661,3.6266,3.6266,3.6229,3.6211,3.6211,3.6211,3.6211,3.6211,3.6229,3.6266,3.6266,3.6266,3.6303,3.6303,3.6303,3.6303,3.6303,3.6266,3.6266,3.6266,3.7015,3.707,3.6303,3.707,3.7456,3.7456,3.7492,3.7915,3.867,3.867,3.867,0.0,0.0,2.7315,2.6919,0.0,0.0,0.0,0.0,0.0,0.0,0.0,0.0,0.0,0.0,0.0,0.0,0.0,0.0,0.0,0.0,0.0,0.0,0.0,0.0,0.0,0.0,0.0,0.0,3.6012,0.0,3.4561,3.4995,3.4761,3.3652,3.4117,3.4215,3.3807,3.3807,3.3734,3.3592,3.3734,3.3318,3.2392,3.253,3.2173,3.1384,3.0972,3.0958,3.1224,3.1077,3.1189,3.1419,3.1427,3.1426,3.139,3.0976,3.0987,3.119,3.119,3.1451,3.1807,3.1807,3.2433,3.3289,3.3831,3.428,3.4711,3.5293,3.5661,3.5807,3.5532,3.5661,3.5789,3.5514,3.544,3.544,3.544,3.5661,3.5862,3.5862,3.6523,3.7088,3.7088,3.7533,3.7533,3.645,3.6303,3.6303,3.6303,3.6758,3.7088,3.7088,3.7569,3.79,3.79,3.79,3.7661,3.7125,3.7088,3.7088,3.7088,3.7364,3.7621,3.7881,3.8157,3.8285,3.8285,3.8285,3.8432,3.8707,3.8707,3.8707,2.8479,2.8163,0.0,2.7399,2.6353,0.0,2.5608,0.0,2.4285,0.0,0.0,0.0,0.0,0.0,0.0,0.0,0.0,0.0,0.0,2.5641,0.0,0.0,0.0,0.0,0.0,0.0,3.475,3.5224,3.5217,3.5203,0.0,3.5654,3.5403,3.4299,3.4748,3.4619,3.3807,3.3807,3.3807,3.3807,3.3807,3.3532,3.3036,3.3036,3.2742,3.2241,3.1953,3.199,3.2252,3.2215,3.2377,3.2611,3.2206,3.2039,3.1986,3.1408,3.119,3.1263,3.1732,3.2129,3.2546,3.3002,3.3681,3.44,3.4912,3.5272,3.5573,3.6138,3.6505,3.6666,3.6358,3.6505,3.6652,3.6358,3.6303,3.6303,3.6303,3.6505,3.674,3.674,3.7382,3.7933,3.7933,3.8358,3.8358,3.7312,3.7147,3.7147,3.7147,3.7606,3.7933,3.7933,3.8395,3.8707,3.8707,3.8707,3.8487,3.797,3.7933,3.7933,3.7933,3.7933,3.8175,3.8689,3.8707,3.8707,3.8707,3.8707,3.8707,3.8707,3.8707,3.8707]}]]